GFSWCAN_sfc_dewp_000.txt.gz
Dewpoint
49 49 48 48 48 49 49 48 49 48 48 48 49 49 49 49 51 52 52 52 47 45 45 47 45 41 42 40 37 40 38 37 31 27 24 25 23 29 27 29 30 29 24 22 21 14 14 28 31 28 32 33 37 37
48 48 48 48 48 48 48 48 49 50 48 48 48 48 48 49 50 51 51 54 51 46 45 48 48 47 46 41 43 40 38 38 37 31 24 31 30 32 25 24 32 26 26 25 24 24 28 30 33 34 35 33 37 38
48 48 48 48 48 48 48 48 48 49 47 48 49 49 49 50 51 52 52 49 46 43 44 45 45 48 48 47 45 39 39 41 38 37 32 28 24 30 27 29 28 32 32 28 29 29 32 33 33 36 38 37 39 40
48 48 48 48 48 48 48 48 47 47 49 48 49 49 50 50 51 51 50 49 43 40 36 40 46 46 48 49 47 44 44 42 40 38 33 33 25 33 25 30 29 32 34 31 31 33 34 35 38 38 39 41 40 40
48 47 48 48 48 48 47 47 47 48 48 49 49 50 49 51 50 50 49 49 49 40 36 37 44 44 47 48 47 46 43 42 39 34 31 31 29 33 34 32 31 35 32 30 29 31 31 31 33 40 40 41 41 39
48 48 48 47 47 47 47 47 47 48 48 48 49 49 49 49 49 40 38 47 50 46 41 35 41 42 45 47 47 46 46 42 40 37 32 33 36 34 33 31 35 35 37 34 32 34 35 35 40 40 41 41 41 35
47 47 47 47 47 47 46 47 47 48 48 48 49 49 49 48 49 41 35 45 48 45 39 36 35 39 42 44 43 44 44 42 41 37 33 31 36 37 33 29 33 36 38 39 40 40 37 39 39 41 41 37 28 23
46 46 46 47 47 47 47 46 47 48 49 48 48 48 49 49 49 47 48 48 47 42 39 33 33 35 42 37 37 42 38 41 40 37 37 34 37 35 34 37 38 39 39 39 39 40 39 40 33 25 25 24 24 26
45 45 46 46 46 47 47 46 46 48 49 48 47 48 48 47 46 47 48 47 47 43 36 35 32 31 40 38 37 38 40 34 39 36 36 38 33 34 36 35 37 38 38 38 39 39 36 27 23 25 26 30 31 31
45 45 45 46 46 46 47 46 47 48 48 47 46 42 40 45 47 47 44 40 39 39 40 34 37 35 42 34 34 35 34 35 35 36 39 34 35 35 34 34 35 36 38 39 35 30 28 30 31 33 33 32 32 33
45 45 46 46 46 47 47 47 47 47 47 44 41 39 45 46 43 38 35 34 37 36 38 37 35 35 40 36 35 35 33 33 32 31 35 33 32 31 27 30 33 34 34 33 33 34 35 35 34 34 34 32 33 33
45 44 44 44 45 46 46 46 46 45 43 43 44 43 40 38 36 34 33 34 35 32 35 36 36 39 37 38 36 35 33 33 31 34 33 30 29 25 30 32 35 35 33 33 35 35 36 36 36 35 33 31 29 27
44 44 44 44 44 45 44 45 45 45 43 41 38 34 37 34 33 31 31 33 33 33 34 34 34 34 36 37 34 33 33 32 33 32 30 30 30 36 37 33 29 32 33 33 33 34 31 26 26 27 27 28 27 28
44 43 43 44 44 44 44 44 43 42 40 36 35 33 32 31 30 30 31 32 32 32 33 33 33 33 33 33 32 32 31 31 29 24 21 32 35 35 27 28 28 29 31 32 27 26 27 27 27 27 26 26 25 26
44 43 42 43 44 44 43 42 41 39 36 31 31 27 28 30 31 32 32 33 33 34 33 33 33 34 32 31 31 29 25 21 20 18 30 33 35 34 24 26 28 29 26 27 26 26 25 24 24 25 25 24 26 26
42 41 41 43 44 43 43 40 36 34 30 30 31 29 31 31 31 32 32 32 35 33 33 33 32 30 29 29 26 22 21 19 26 31 33 34 32 29 31 28 29 31 31 31 29 28 27 24 24 26 26 24 22 22
41 39 42 43 43 40 41 36 32 30 29 30 30 32 31 32 32 32 33 34 36 33 31 29 25 24 28 24 24 30 26 30 32 33 33 33 33 28 32 32 30 29 30 30 29 28 27 24 23 25 26 28 26 25
37 38 42 42 41 38 35 32 28 28 30 31 30 31 32 32 32 32 32 33 31 32 30 26 30 20 17 18 19 29 31 28 29 30 30 30 29 29 28 28 27 27 28 27 26 27 25 25 26 27 27 28 26 26
39 40 41 41 39 32 30 31 30 25 29 30 30 30 31 31 31 32 32 33 29 26 26 21 19 19 20 23 23 32 31 31 27 27 27 29 28 29 30 29 29 28 28 28 28 27 27 28 27 26 26 26 26 26
40 41 40 39 38 30 28 28 31 27 26 28 30 29 29 29 30 31 32 33 29 25 22 20 21 22 23 22 23 24 31 32 25 21 23 26 29 30 29 28 28 28 27 27 26 25 24 24 23 23 22 22 22 23
36 38 37 34 31 30 29 28 28 29 30 28 29 29 27 29 29 29 30 31 31 29 23 22 15 21 29 28 25 25 29 27 25 24 23 27 27 26 25 25 24 24 23 21 21 21 20 20 19 17 14 15 17 19
35 37 29 31 28 31 28 31 30 29 28 29 28 28 26 25 26 28 29 28 28 28 28 25 25 29 30 28 28 30 29 29 28 27 25 24 24 23 20 19 19 17 18 17 17 11 10 14 13 12 10 11 15 16
36 32 28 25 19 18 24 32 28 25 23 23 28 26 25 25 26 28 25 28 28 31 31 31 29 29 27 27 26 26 26 22 21 21 21 22 21 19 16 14 12 9 10 12 13 10 8 6 7 6 8 8 8 8
33 27 21 21 20 14 27 25 28 27 25 18 16 19 20 23 26 24 22 24 28 29 29 29 28 26 25 24 21 20 22 22 21 19 21 21 18 17 15 13 10 9 7 8 7 3 3 -1 1 4 3 4 4 5
17 23 22 22 25 13 20 20 22 23 20 11 21 12 19 18 20 19 20 21 24 25 26 28 27 26 21 20 20 18 19 21 19 14 13 13 10 9 9 10 7 8 6 -0 -1 -1 -1 -1 -1 -1 1 1 3 5
13 19 22 21 22 21 10 11 15 21 19 14 14 17 13 13 10 13 19 20 24 23 23 24 23 20 19 19 17 15 13 15 16 11 10 9 6 -2 -4 -5 -3 -2 3 -7 -7 -7 -4 -3 -3 -5 -1 1 3 0
14 14 21 27 25 23 17 15 18 21 18 19 18 19 20 13 15 18 22 21 21 21 23 23 22 19 16 12 10 11 11 12 11 10 10 8 7 5 -3 -10 -8 -1 0 -3 -11 -12 -8 -4 -3 -3 0 1 -6 -2
19 25 17 15 23 23 22 16 15 19 23 24 21 18 17 16 13 17 19 21 19 18 16 14 14 12 9 8 7 6 9 9 8 7 5 3 1 -6 -8 -10 -9 3 -8 -14 -16 -10 -10 -4 -1 1 -0 -4 -11 -14
22 24 24 17 17 20 20 18 19 23 26 24 20 16 13 12 11 10 15 18 17 14 10 9 8 8 7 6 2 -0 -3 -6 -8 -10 -14 -17 -16 -10 -11 -17 -16 -14 -15 -16 -3 2 2 3 -1 -10 -14 -12 -9 -9
20 18 16 9 17 15 22 19 20 21 21 19 18 15 11 8 10 12 12 12 9 5 4 2 1 2 -4 -5 -10 -8 -12 -17 -15 -12 -16 -18 -12 -11 -19 -17 -14 -12 -13 -17 -15 -14 -6 -14 -12 -17 -18 -18 -20 -21
26 25 22 20 16 22 21 26 27 27 25 16 16 11 6 3 6 8 5 4 4 3 -0 -8 -10 -19 -14 -16 -17 -16 -12 -14 -18 -14 -14 -15 -16 -20 -20 -16 -17 -18 -23 -25 -26 -24 -22 -23 -26 -26 -24 -23 -22 -24
23 19 13 13 13 14 14 14 9 12 16 19 10 5 -4 -3 -7 1 1 -4 -4 -8 -9 -19 -15 -11 -14 -16 -19 -20 -12 -17 -17 -18 -17 -15 -15 -18 -18 -17 -23 -26 -26 -26 -26 -26 -25 -26 -26 -27 -27 -27 -27 -26
4 5 6 7 13 12 3 -1 -5 3 10 11 -1 -3 -6 -4 -5 -2 1 -5 -5 -8 -12 -15 -15 -15 -14 -16 -15 -17 -14 -19 -19 -6 -2 1 0 -3 -5 -15 -20 -26 -26 -26 -28 -29 -26 -26 -26 -28 -28 -29 -29 -28

GFSWCAN_sfc_dewp_003.txt.gz
Dewpoint
49 49 48 48 48 48 48 48 48 48 48 48 48 48 49 49 50 52 52 53 48 46 47 48 44 42 42 43 40 42 41 41 36 35 35 32 33 32 30 30 32 30 29 28 23 23 23 27 32 32 36 36 36 38
48 48 48 48 48 48 48 48 48 48 48 47 48 49 49 49 50 52 52 54 52 47 47 49 48 48 48 43 43 42 41 40 40 36 33 33 33 33 29 31 33 29 31 30 28 30 32 31 37 36 36 35 37 38
48 48 48 48 48 48 48 49 48 47 48 48 49 49 50 50 50 52 53 51 49 46 46 46 46 48 49 48 48 42 40 42 39 38 36 34 34 34 32 32 32 33 32 32 33 31 31 33 34 35 35 37 37 39
48 48 48 48 47 47 47 47 48 48 48 48 49 49 50 50 51 51 50 50 47 44 38 43 48 47 48 49 47 46 43 42 41 39 36 35 35 34 32 34 34 34 34 33 32 34 34 34 36 38 38 39 40 40
47 47 47 47 47 46 46 47 48 48 49 49 50 50 50 50 51 52 51 50 49 45 39 41 45 45 47 47 45 45 43 42 40 38 35 37 34 35 35 35 34 35 34 35 35 34 35 34 33 36 39 40 41 42
47 47 47 46 46 46 47 47 48 48 48 48 49 49 50 50 48 48 45 49 49 47 43 39 42 43 45 47 46 46 45 43 42 39 36 36 37 37 35 34 35 35 36 36 34 36 36 37 36 39 40 42 43 41
47 47 47 46 46 46 46 47 48 48 48 48 48 49 49 48 49 41 38 46 47 46 41 37 38 41 43 45 44 44 45 43 43 39 36 36 38 37 34 33 35 37 38 38 39 40 40 40 40 41 39 29 26 24
46 46 46 47 46 45 46 47 48 48 48 48 48 48 48 48 48 48 49 48 47 41 39 35 35 38 43 40 39 43 41 42 41 39 37 37 38 38 36 37 36 37 38 40 41 41 41 34 27 25 25 26 28 31
46 46 46 46 46 46 46 47 48 48 47 47 47 48 48 48 46 48 48 47 47 42 36 34 34 34 41 39 38 40 41 36 39 37 38 40 34 34 33 32 33 34 36 37 33 28 27 26 26 28 30 32 34 34
45 45 46 46 46 46 46 47 47 47 47 46 46 43 40 45 47 46 43 40 40 39 41 34 37 36 41 36 35 37 37 35 35 37 39 35 35 30 26 29 32 33 33 37 37 30 31 32 31 32 33 35 35 35
45 45 46 46 47 47 46 46 46 46 47 45 42 40 45 45 43 38 35 35 37 34 38 37 36 37 40 37 36 36 34 34 33 34 36 35 32 26 30 33 34 33 35 35 35 35 35 36 35 34 35 36 36 36
45 45 44 45 45 46 46 46 46 45 44 44 44 44 41 39 35 34 33 35 32 32 35 36 36 39 37 40 37 35 35 34 32 36 33 31 27 25 32 33 34 35 36 36 37 37 37 36 37 37 37 36 34 31
44 44 45 44 44 44 44 44 44 44 43 42 39 35 37 35 32 25 31 33 33 33 34 34 34 35 37 37 34 35 34 33 35 33 31 29 26 36 33 31 32 34 35 34 34 35 32 28 28 29 30 31 30 30
43 43 43 44 44 44 43 43 42 41 39 34 34 31 30 32 31 32 32 32 32 33 33 34 33 34 33 34 33 34 32 32 30 28 26 30 35 32 31 30 34 34 32 30 26 28 29 28 28 28 28 28 28 29
43 42 41 43 44 43 42 41 41 39 36 32 32 27 28 31 32 32 32 33 33 34 34 34 34 35 32 32 31 31 28 25 25 25 31 32 33 27 24 26 26 29 26 28 28 28 27 26 25 28 27 28 29 28
41 40 39 42 43 42 41 39 38 36 33 32 32 30 31 32 32 32 32 32 35 34 34 34 32 31 29 30 29 26 25 22 27 31 33 34 33 34 32 28 29 32 32 32 30 29 29 27 27 28 28 28 26 26
39 36 40 42 42 40 40 36 34 31 31 31 31 32 32 32 32 32 33 33 35 33 32 31 29 27 30 26 26 29 26 29 33 33 35 35 33 31 32 32 30 29 30 30 29 29 28 27 26 28 27 28 28 29
37 38 41 41 40 37 36 33 30 30 30 30 30 30 32 32 32 32 33 33 34 33 31 28 30 26 21 20 25 30 30 32 32 33 34 32 30 29 28 28 28 29 29 29 28 29 28 27 25 25 24 23 24 24
39 39 40 40 37 33 31 31 30 27 29 30 30 30 31 31 31 32 33 33 31 28 28 24 22 23 25 26 28 28 31 32 30 30 28 29 29 30 30 30 30 29 28 27 27 26 25 24 22 20 18 18 18 20
39 39 39 38 37 31 29 29 31 28 27 29 30 29 29 29 30 32 33 33 31 27 25 23 23 24 25 26 26 28 32 33 30 27 28 28 29 28 27 28 28 27 25 24 22 19 18 18 16 15 14 14 15 16
36 37 36 34 31 31 30 29 28 29 30 29 29 29 28 29 29 29 30 31 31 29 25 25 26 29 29 29 29 30 31 28 27 28 28 26 25 23 22 22 21 19 18 17 15 12 12 13 12 12 12 12 13 14
35 36 30 31 26 27 28 31 30 28 29 29 27 29 27 26 27 28 29 29 28 28 30 29 30 31 30 28 28 28 28 27 27 26 26 25 23 19 15 14 15 15 14 14 13 10 9 10 9 9 10 10 10 11
35 30 25 22 20 20 25 28 27 26 16 18 22 20 21 25 26 28 25 28 28 30 31 30 28 28 26 26 26 25 25 24 23 22 22 20 17 15 12 11 10 9 9 8 8 8 7 4 6 6 7 7 8 8
32 25 16 14 14 18 26 24 26 26 25 22 20 13 16 17 22 21 19 22 28 29 29 28 26 24 24 23 20 21 23 22 19 17 20 17 15 13 12 9 8 6 5 4 4 3 3 3 1 3 3 3 5 6
16 24 18 17 17 13 19 19 21 22 21 21 18 10 19 22 16 12 13 20 23 24 25 28 26 24 20 19 19 18 19 19 16 12 12 11 10 8 7 5 6 5 4 3 1 0 0 1 1 1 1 2 3 4
10 24 22 21 21 20 15 14 18 20 21 13 14 15 16 18 12 13 16 18 21 21 23 23 21 19 17 19 16 14 13 16 13 10 7 6 4 3 2 0 -0 1 3 1 -1 -2 -1 -1 -1 -1 1 2 1 1
11 21 24 28 25 24 14 13 17 18 13 12 17 17 15 15 14 16 20 19 19 18 18 19 21 18 15 13 12 12 12 12 12 9 8 6 5 3 1 -1 -2 1 2 1 -3 -4 -4 -3 -2 -0 2 3 2 -2
24 24 18 15 18 21 15 13 13 17 20 24 22 14 14 13 15 15 16 19 17 16 14 13 13 11 10 9 10 10 9 8 8 7 5 4 3 1 -1 -1 -2 1 -4 -5 -4 -3 -2 -1 0 2 1 -0 -1 -2
19 19 17 14 14 18 18 17 17 20 24 20 16 12 12 11 10 10 13 16 16 14 11 9 8 8 7 5 2 0 1 3 1 -5 -6 -3 -4 -0 -1 -3 -4 -4 -4 -6 -2 2 4 5 4 0 -4 -4 -4 -4
15 21 14 10 15 14 21 20 23 18 20 18 17 13 10 8 9 11 11 11 9 7 6 5 5 7 2 1 -2 -1 -4 -6 -3 -1 -3 -3 -3 -1 -4 -5 -5 -5 -7 -7 -8 -7 -3 -5 -4 -7 -9 -9 -9 -9
23 23 22 20 20 22 24 24 27 26 17 12 13 9 6 5 7 7 5 3 4 4 4 2 -2 -10 -3 -5 -4 -5 -3 -4 -11 -8 -6 -6 -6 -5 -5 -7 -7 -9 -9 -9 -10 -10 -10 -9 -11 -11 -11 -12 -14 -14
10 12 9 9 11 11 10 6 12 15 16 16 5 4 2 0 -2 4 3 0 1 1 -4 -6 -2 -2 -8 -8 -10 -8 -8 -4 -6 -8 -10 -8 -6 -6 -6 -6 -11 -12 -10 -10 -11 -12 -13 -12 -12 -13 -13 -14 -15 -16
6 6 8 6 15 15 6 1 -4 1 5 8 -1 -3 -3 -1 -3 2 2 -2 -0 -2 -2 -3 -5 -7 -9 -11 -8 -7 -11 -8 -12 -8 -4 -4 -7 -3 -3 -6 -7 -12 -13 -12 -12 -14 -13 -13 -13 -15 -15 -17 -17 -18

GFSWCAN_sfc_dewp_006.txt.gz
Dewpoint
45 44 47 48 48 48 49 49 49 49 49 49 49 49 49 50 50 53 56 57 52 47 46 46 44 44 44 45 45 44 42 43 44 45 45 40 42 35 31 30 33 32 35 36 32 35 31 26 32 32 33 38 36 36
45 48 48 48 48 48 48 48 48 48 48 48 49 49 49 49 50 53 54 55 55 51 49 51 50 49 47 45 45 45 44 43 45 44 44 43 39 37 37 35 33 32 34 35 31 31 31 32 35 35 37 38 37 38
48 48 47 47 48 48 48 48 48 47 47 48 48 49 49 49 50 52 54 56 53 53 48 48 47 49 50 51 51 43 45 44 43 45 46 47 38 42 38 37 35 34 33 35 33 29 30 31 32 34 34 36 36 36
47 47 47 47 47 47 47 47 47 48 48 48 48 49 49 49 50 52 53 54 55 52 44 48 49 49 50 50 49 49 47 46 44 44 48 42 42 38 42 38 40 36 35 34 33 32 32 32 34 35 35 38 39 39
47 47 46 47 47 48 48 48 48 48 49 49 49 49 49 50 51 53 54 54 54 52 47 49 48 48 48 47 47 47 46 45 45 47 43 46 41 42 41 40 39 35 33 37 36 30 35 33 34 37 39 39 40 41
46 46 46 47 47 47 48 48 48 48 48 49 50 50 50 50 51 52 50 53 51 52 51 48 47 47 48 48 47 47 46 46 45 46 46 41 39 43 40 39 35 35 36 36 35 37 38 38 40 42 43 41 40 38
46 46 46 46 47 47 47 47 48 48 49 49 49 49 48 49 51 46 46 50 48 51 51 47 46 45 46 47 47 49 49 48 48 46 45 44 43 41 39 40 38 38 38 40 42 42 40 41 38 35 33 31 33 33
46 46 45 46 46 47 47 47 47 47 48 48 48 49 49 49 50 52 51 49 48 45 49 44 43 47 46 47 45 45 46 49 44 43 41 42 41 43 40 38 36 35 36 40 36 39 40 33 30 30 32 34 36 36
46 46 46 45 46 47 47 47 47 47 47 47 48 49 52 51 52 51 48 47 50 48 45 46 43 41 45 42 43 45 46 41 42 41 42 43 38 38 33 32 34 35 36 36 33 33 32 31 31 33 34 36 36 35
46 46 46 46 46 46 46 46 46 47 47 47 50 49 47 49 47 47 46 47 48 47 44 38 41 40 42 41 40 42 44 39 40 42 42 41 37 29 30 33 34 35 35 39 37 34 33 32 34 36 36 37 37 37
45 45 46 46 46 46 46 46 46 47 49 50 48 46 50 46 47 43 41 41 42 41 41 40 41 41 43 41 39 41 38 40 36 39 39 38 34 30 34 34 35 36 36 36 36 36 36 37 36 37 37 38 37 36
45 45 45 45 45 45 45 45 46 49 48 48 48 47 46 42 42 37 36 39 39 38 39 40 40 42 41 42 41 39 37 37 34 39 37 34 30 31 34 35 36 37 38 37 37 37 37 36 36 37 37 35 34 32
44 44 44 44 44 44 44 43 44 44 44 47 43 40 41 39 35 36 32 35 35 36 36 36 36 40 41 42 38 40 36 36 38 35 33 32 30 35 34 35 35 35 34 34 33 32 28 27 31 34 33 34 34 32
42 43 43 44 44 43 43 42 42 42 44 39 37 34 35 34 34 33 35 35 34 34 36 38 36 40 36 37 36 37 33 34 32 31 31 31 34 36 36 36 35 33 34 29 28 30 34 32 33 33 33 33 33 33
41 41 42 42 43 43 42 42 41 40 39 35 37 31 32 32 34 33 33 34 35 36 37 38 37 38 34 34 33 33 31 31 31 31 33 34 34 36 33 31 30 35 33 31 32 33 34 34 33 33 33 33 33 32
40 40 40 42 43 41 40 41 40 40 37 35 34 32 33 33 32 33 33 33 36 36 37 37 33 33 31 34 32 32 31 29 31 34 33 34 33 32 29 29 32 33 31 33 31 32 33 32 32 32 31 29 29 29
39 37 40 42 41 40 40 39 38 34 34 34 32 33 33 33 32 32 33 33 36 34 32 34 33 31 34 32 31 33 32 34 33 34 35 36 36 35 35 34 35 32 31 31 31 31 30 30 29 28 25 21 23 25
37 39 40 40 40 39 38 36 36 33 31 32 32 32 33 33 33 33 34 35 37 34 34 32 32 31 31 29 31 33 33 34 35 36 36 34 32 31 31 31 31 32 31 30 29 28 27 26 23 20 18 17 18 19
38 39 39 39 38 38 35 34 34 30 31 33 33 34 34 34 34 34 35 36 35 35 35 33 33 30 33 34 33 32 33 34 34 31 31 32 32 31 31 31 30 29 27 26 25 24 22 19 18 16 16 16 17 18
38 38 38 38 39 36 33 33 35 30 29 31 33 31 31 32 33 34 35 36 35 35 33 32 31 32 33 32 33 36 36 36 34 32 30 29 29 29 29 28 27 26 25 21 18 18 17 17 15 15 16 15 17 17
38 38 37 38 37 34 32 31 30 31 30 29 31 32 31 34 34 33 33 34 36 32 29 30 31 31 30 31 32 33 33 34 34 35 31 27 26 26 24 22 21 20 20 20 18 16 16 15 13 13 17 18 17 18
37 36 36 34 32 33 32 33 31 31 29 31 32 32 32 32 32 33 33 33 30 31 31 31 32 32 30 28 28 29 29 30 29 27 27 26 23 20 18 18 20 19 17 17 16 16 15 11 12 13 15 15 15 16
35 34 32 33 29 29 27 32 29 28 27 28 31 28 30 31 31 31 28 30 31 32 34 30 28 29 27 28 27 27 28 27 24 23 22 21 20 20 16 14 15 16 14 10 10 11 12 8 10 12 13 13 14 14
33 29 25 26 27 24 29 25 25 24 26 26 25 24 27 28 29 29 25 25 26 27 29 28 27 25 25 24 22 22 24 24 22 23 23 21 18 14 13 11 11 10 9 8 10 11 10 11 8 11 11 11 11 11
26 25 25 21 25 23 22 22 22 22 21 22 23 24 25 27 25 23 21 21 24 25 26 27 26 25 22 22 21 20 22 22 19 15 16 15 14 12 10 8 9 7 8 10 9 9 9 8 9 9 8 9 8 7
21 26 23 23 24 23 22 21 21 22 22 21 22 24 27 26 20 17 18 22 22 23 23 25 24 21 18 19 18 17 16 16 14 12 9 8 9 11 9 8 9 9 8 9 7 6 6 6 6 6 7 7 6 6
20 22 25 28 26 25 25 24 24 25 21 21 25 24 24 17 17 18 20 20 21 20 19 20 22 20 17 16 15 15 14 13 13 10 9 7 7 7 8 7 5 6 7 6 6 5 5 4 5 6 7 8 7 5
25 24 22 26 24 26 23 24 23 22 24 26 25 20 19 20 19 17 17 19 20 18 17 16 15 15 15 14 15 14 13 11 11 10 9 9 8 8 6 7 5 4 4 5 4 5 5 5 6 6 6 5 4 4
26 29 27 20 23 25 24 24 24 25 26 27 25 22 17 13 14 16 16 18 20 19 17 15 14 14 12 10 10 11 11 12 6 2 2 7 7 8 7 6 6 5 5 4 2 3 4 6 5 4 2 2 2 3
25 28 25 22 21 22 26 28 27 29 25 23 20 16 13 13 13 15 16 17 16 14 13 13 14 15 12 13 10 9 9 8 7 7 5 4 5 6 6 5 5 4 4 3 3 2 2 3 3 3 1 0 1 -1
28 29 26 25 23 27 25 25 29 27 24 20 18 17 13 12 13 12 11 11 13 14 14 12 9 9 10 8 9 7 7 7 3 2 3 5 5 5 5 4 4 4 2 2 1 0 -1 -0 0 -1 -2 -4 -5 -6
24 20 22 20 23 23 21 22 21 23 23 20 15 14 12 13 8 10 9 12 12 10 4 7 9 9 7 7 5 6 -2 5 5 4 2 4 5 5 5 4 3 2 1 -1 -1 -2 -3 -3 -3 -3 -4 -5 -7 -8
20 20 20 20 20 20 19 18 14 15 16 14 10 10 9 10 5 9 9 9 9 8 7 7 9 9 5 1 4 6 0 5 1 1 1 0 -1 0 2 4 3 1 -2 -2 -2 -2 -4 -5 -5 -6 -7 -9 -10 -10

GFSWCAN_sfc_dewp_009.txt.gz
Dewpoint
44 44 45 45 45 46 46 47 48 49 48 48 49 49 49 49 50 53 55 58 43 36 42 39 33 36 35 38 46 46 44 45 46 44 46 40 43 38 33 31 33 33 36 38 36 35 31 24 29 29 36 34 31 33
45 44 43 44 45 46 46 48 48 48 48 48 48 48 48 49 50 52 55 56 55 42 50 50 51 50 43 41 42 47 40 44 45 44 46 49 42 40 39 34 34 33 34 36 31 32 32 30 29 30 34 35 34 34
44 44 43 43 45 47 48 48 48 48 48 48 48 48 49 50 50 52 56 56 51 53 49 47 47 49 50 52 54 43 47 45 46 50 51 51 42 45 40 39 36 33 33 35 33 25 26 28 29 31 32 34 35 35
45 46 48 48 48 48 48 48 48 48 48 48 48 48 49 49 50 51 55 57 48 51 50 49 49 49 50 50 51 51 49 50 49 48 52 45 45 41 45 40 39 36 34 31 32 29 27 28 30 33 35 37 38 39
47 47 47 47 47 47 47 47 47 47 48 48 48 49 49 50 50 53 55 54 56 47 48 50 49 48 48 49 48 48 49 47 46 49 45 48 44 44 45 43 39 34 28 37 35 33 36 33 37 40 40 41 42 41
46 47 47 47 48 47 48 48 48 48 48 48 48 49 49 49 50 52 54 53 52 57 52 48 49 47 48 47 47 47 47 46 45 47 49 43 42 44 42 38 34 36 38 39 37 39 40 40 40 39 37 36 35 34
46 47 47 47 48 48 48 48 48 48 48 48 48 48 49 49 53 50 44 52 51 54 53 48 48 48 48 48 49 48 49 48 46 47 50 47 43 42 43 37 38 37 37 40 40 42 41 37 36 35 36 37 38 37
46 46 47 47 47 47 47 48 49 48 48 48 48 48 48 49 50 51 51 48 50 49 50 46 46 50 48 50 49 48 51 49 46 45 46 47 43 47 41 39 36 36 38 39 36 39 36 35 34 35 37 37 37 37
46 46 46 46 46 47 46 46 47 48 48 48 49 49 52 53 53 50 47 47 53 51 47 48 43 42 46 44 46 48 49 46 45 43 45 45 41 40 36 35 36 36 37 38 36 35 34 34 34 35 35 36 35 35
45 46 45 45 46 46 46 46 46 47 47 48 49 48 50 52 47 48 48 50 50 49 46 42 45 44 45 45 42 44 44 43 40 43 42 43 40 34 34 35 36 37 37 38 37 35 35 35 35 35 35 36 35 34
45 44 44 44 44 44 45 46 47 49 49 52 51 46 51 46 49 46 43 44 43 43 42 41 44 44 45 42 39 43 40 42 38 41 40 39 37 34 35 36 37 37 37 37 37 37 36 36 35 36 35 35 37 35
45 44 44 44 43 43 43 44 47 49 50 49 51 49 48 44 45 40 39 41 41 39 40 40 41 42 43 45 42 42 38 39 36 40 39 34 33 34 35 37 37 37 36 36 36 35 34 34 35 34 32 31 33 33
44 44 44 44 43 43 43 43 44 44 46 49 46 42 41 41 37 35 33 36 35 38 37 39 38 43 42 43 41 40 35 38 40 37 34 34 33 35 36 35 35 34 33 33 30 28 28 29 33 35 33 33 34 33
42 43 43 43 43 43 42 43 43 44 46 42 40 35 37 35 34 34 35 35 34 35 39 41 39 40 40 38 38 36 35 38 34 33 34 34 35 36 37 34 32 32 35 30 29 31 34 34 33 33 33 33 33 32
41 41 42 42 42 43 42 43 43 43 41 36 38 32 32 33 34 33 33 35 35 37 40 41 41 41 37 36 36 35 32 33 34 33 34 34 35 37 35 34 33 30 34 33 34 33 34 35 34 31 30 30 30 30
40 40 39 42 42 41 41 42 43 42 38 36 34 33 33 33 32 33 33 33 36 37 40 41 36 35 33 35 34 34 34 32 33 34 35 35 36 38 33 32 35 33 31 34 33 33 33 31 31 30 29 28 31 29
39 38 40 41 41 40 40 40 40 36 36 35 33 33 33 33 32 32 33 33 36 35 33 35 34 32 35 34 32 35 33 34 33 34 36 37 37 35 32 35 34 34 34 33 32 30 30 30 29 26 22 20 21 23
37 38 40 40 41 39 38 37 36 33 32 35 33 33 35 35 34 34 35 37 39 37 36 34 36 33 33 31 33 34 35 34 35 36 36 37 36 35 34 34 33 33 31 30 29 28 28 26 22 21 18 17 17 18
35 38 39 41 40 39 35 35 35 31 33 35 35 35 35 36 36 37 38 39 37 37 36 34 34 31 33 34 33 34 35 35 33 33 34 33 33 33 33 32 31 31 29 28 27 26 21 19 19 18 17 16 18 18
38 37 39 39 39 37 33 34 35 31 30 32 35 33 33 33 36 36 36 38 35 34 33 32 31 31 31 31 32 35 36 37 35 33 32 31 31 31 30 30 28 26 23 21 20 21 20 19 16 15 17 17 19 19
37 35 38 39 37 35 32 31 30 31 29 29 33 33 32 37 35 35 36 36 36 32 30 30 31 32 31 31 31 33 33 35 36 35 32 28 28 28 29 29 26 25 24 24 22 19 19 17 15 15 19 20 19 20
35 37 38 37 34 34 32 34 30 31 29 30 30 30 31 33 33 34 34 33 29 30 32 31 31 32 29 28 28 29 30 31 31 30 29 29 27 26 26 25 24 22 20 20 18 19 18 14 14 15 18 18 17 18
36 35 35 36 32 32 29 31 29 28 28 28 31 26 29 30 30 32 30 30 29 28 31 29 28 28 27 28 28 28 29 28 25 24 24 24 23 24 21 18 19 20 17 13 13 14 16 12 14 15 16 16 17 17
33 33 31 30 30 26 31 26 26 26 28 27 26 24 25 28 29 28 25 24 25 26 28 26 26 26 26 25 23 24 26 26 24 25 25 23 20 19 16 14 13 13 13 12 14 15 15 15 12 14 14 13 14 13
28 27 30 25 30 27 25 25 26 26 23 24 24 25 26 28 25 22 21 21 23 24 27 27 25 25 25 24 23 21 23 23 21 18 20 19 18 14 12 12 12 11 12 14 13 13 13 12 12 12 11 12 10 9
23 28 25 25 26 25 24 23 23 23 23 23 25 27 28 25 21 19 19 22 23 24 24 25 27 24 21 21 21 19 19 18 17 15 12 11 13 16 14 13 13 13 12 13 12 11 10 9 9 8 9 9 9 9
22 23 26 27 26 26 26 26 27 24 22 22 25 23 24 19 19 19 21 21 22 22 22 23 23 22 19 18 17 17 17 16 16 12 12 10 11 11 12 11 9 9 9 10 9 9 8 8 8 8 8 10 10 9
25 28 22 25 25 26 23 24 25 24 26 25 25 21 21 21 19 19 19 21 22 21 20 19 18 18 18 18 19 18 17 15 14 14 13 13 12 12 10 11 9 4 8 8 7 7 7 7 7 8 8 8 7 8
26 29 28 23 25 25 24 23 24 25 26 25 25 24 19 16 18 20 19 20 24 24 21 19 18 19 17 16 15 16 16 15 12 6 6 10 12 13 11 10 9 9 9 8 6 6 6 6 6 6 5 6 7 7
27 29 26 24 22 21 26 29 29 29 26 26 24 18 16 16 16 19 20 20 19 18 18 18 18 19 16 16 14 12 13 12 10 9 8 7 8 9 9 9 8 8 8 8 6 6 5 5 6 7 6 5 5 3
28 29 27 26 24 25 26 28 29 29 27 24 24 22 17 15 16 15 15 17 17 18 18 15 13 14 13 11 11 10 11 11 7 6 6 7 8 8 9 8 8 8 7 6 5 4 4 3 4 4 3 1 -0 -1
27 23 23 20 23 25 27 25 25 25 25 24 19 19 17 17 12 13 13 17 15 13 10 13 12 10 10 10 10 11 3 8 7 6 5 6 7 8 8 7 8 7 6 3 3 3 3 1 1 1 1 -1 -2 -4
24 24 22 22 21 19 23 23 20 19 19 17 15 16 14 14 8 11 13 14 12 11 10 11 12 12 9 6 8 8 4 7 4 5 5 4 2 3 4 6 6 5 3 3 3 2 1 -0 -1 -1 -3 -4 -5 -6

GFSWCAN_sfc_dewp_012.txt.gz
Dewpoint
43 43 43 43 44 44 45 46 46 46 46 47 47 47 47 46 48 50 51 56 57 48 42 42 38 36 37 44 47 46 44 45 51 46 45 46 44 42 38 31 36 37 39 38 41 35 32 26 26 32 40 41 35 35
42 42 43 43 44 44 45 46 46 46 47 47 47 47 47 47 49 50 50 55 60 55 50 54 52 50 45 39 47 49 44 45 48 46 47 50 41 39 40 38 32 36 38 41 36 38 38 30 33 34 36 38 36 37
43 44 44 44 45 45 46 46 46 46 47 47 48 48 48 48 49 50 51 55 57 54 50 46 46 50 51 52 55 46 47 47 48 53 54 53 41 48 39 43 41 34 34 40 39 26 27 30 29 32 31 35 35 36
43 43 43 43 44 44 46 45 46 48 47 47 48 48 48 49 49 50 51 57 57 52 47 50 50 48 50 50 52 53 52 54 54 53 54 44 44 45 47 44 46 38 34 32 32 32 30 27 35 36 37 39 41 42
43 43 42 43 44 44 46 46 47 47 48 48 48 48 48 49 49 51 53 56 57 46 48 50 50 48 48 49 49 50 52 52 51 50 44 50 49 48 48 47 45 35 33 42 41 37 39 37 40 41 41 39 37 37
44 44 43 43 45 45 47 47 46 47 47 48 48 48 48 49 50 53 51 54 56 54 53 48 49 47 47 49 48 48 51 51 49 50 50 47 43 48 43 42 33 38 39 39 38 41 41 41 38 37 37 37 37 36
47 47 47 47 47 47 47 47 47 47 47 47 48 48 49 49 54 53 48 51 50 57 53 48 47 48 47 48 48 48 49 48 48 50 52 48 45 45 42 42 37 37 38 39 39 41 39 37 36 38 38 37 37 36
46 47 47 47 48 48 47 47 47 47 47 48 48 49 50 49 50 52 50 49 51 50 51 46 42 48 48 51 49 49 51 50 48 45 48 49 45 51 44 38 37 37 38 38 37 37 36 36 37 37 37 36 35 34
45 45 46 47 48 47 47 47 47 48 47 48 48 48 52 53 54 52 48 49 57 52 43 48 41 40 47 46 47 50 49 47 46 44 48 46 42 41 39 37 36 37 39 37 35 36 36 36 35 35 35 34 33 33
44 44 43 45 47 47 48 47 48 48 48 48 50 50 49 51 49 49 49 47 48 49 48 44 46 44 45 43 42 44 45 45 40 43 43 44 41 35 36 37 37 37 39 38 36 35 35 35 34 34 33 34 36 36
44 44 43 43 44 46 47 48 48 48 48 52 51 48 51 49 48 47 44 45 42 41 43 42 44 44 46 42 39 43 41 42 38 40 41 38 36 35 36 37 37 37 37 37 37 37 36 35 34 35 35 34 33 32
44 44 43 43 43 44 45 46 48 50 51 51 51 51 51 47 45 39 38 41 42 40 39 40 42 43 44 46 41 41 37 40 36 41 38 34 36 35 36 37 36 36 36 35 35 35 35 35 33 33 32 33 33 32
43 43 43 43 43 44 44 44 45 47 47 50 46 41 43 41 36 35 33 36 35 36 37 39 37 43 43 43 41 39 35 36 41 35 33 35 35 35 37 37 35 35 35 33 30 30 30 33 34 33 32 32 34 33
42 42 42 43 43 44 44 44 45 46 47 42 38 34 35 34 33 33 33 33 34 34 37 40 38 39 39 36 37 35 34 38 34 33 33 34 34 36 35 36 34 31 32 31 31 32 33 32 31 32 31 31 30 28
41 41 41 41 42 42 43 43 43 43 41 36 37 32 32 33 33 33 33 34 35 37 38 41 41 40 36 34 36 35 33 33 32 33 34 35 36 36 35 34 32 32 34 33 33 33 32 31 30 29 29 29 29 28
41 40 39 42 42 42 42 43 43 42 38 35 33 32 33 33 32 32 33 33 36 37 41 41 37 35 33 35 35 33 34 32 32 33 34 35 35 36 37 35 32 33 35 34 33 32 31 30 30 28 27 28 27 25
40 38 40 42 42 41 42 41 39 37 35 34 32 32 33 32 32 32 33 33 37 37 33 36 33 31 35 33 32 33 31 33 32 33 35 36 36 35 35 35 35 35 34 33 32 30 29 30 30 28 23 20 23 25
36 38 41 42 42 39 38 40 38 34 33 33 32 32 33 33 33 33 35 38 37 35 35 33 36 33 32 31 32 33 32 32 35 35 36 37 37 35 35 35 34 33 31 30 29 29 29 29 24 21 19 18 20 20
35 38 40 41 40 38 35 36 36 32 33 34 34 35 35 36 37 37 37 41 39 40 38 37 33 30 30 31 30 33 33 33 33 34 34 35 35 35 33 32 32 31 30 29 29 25 21 20 19 18 17 17 19 19
38 37 39 39 39 37 32 33 37 33 31 33 35 34 34 34 37 34 36 39 39 36 32 29 28 28 28 29 31 32 33 34 34 33 32 32 33 32 32 31 29 27 24 23 22 24 22 20 16 17 18 18 19 18
35 35 38 38 36 35 34 32 31 32 32 31 34 35 32 36 35 35 36 37 32 29 29 31 30 31 32 30 31 31 32 31 30 35 32 31 30 30 30 32 32 30 28 26 23 20 20 17 16 16 20 21 20 21
33 37 39 39 34 35 32 35 30 32 30 32 30 31 32 32 33 33 36 30 26 28 31 30 29 30 27 26 27 30 30 29 29 29 31 31 29 28 28 29 26 24 22 21 20 20 19 14 15 16 18 18 18 19
36 36 37 37 31 32 28 32 30 27 26 27 30 26 27 28 31 33 28 27 27 30 31 29 27 28 26 27 26 26 28 27 26 25 25 24 24 23 22 21 23 22 17 14 15 16 16 14 14 16 17 17 17 17
35 33 30 30 30 26 33 27 26 25 28 24 24 23 24 27 30 27 23 23 26 27 27 27 30 28 25 24 21 23 26 26 24 25 25 23 20 19 20 18 15 14 15 15 15 16 15 16 13 14 15 14 14 14
29 27 31 25 32 28 25 24 25 24 21 23 25 25 25 30 25 23 22 24 24 24 26 28 26 26 25 24 22 21 23 22 20 19 22 22 20 16 14 13 12 12 14 15 13 13 14 14 14 12 11 12 11 10
23 26 24 24 25 24 23 21 22 22 22 23 23 25 28 26 22 20 20 23 22 22 23 24 27 23 19 19 19 18 18 21 17 15 12 13 15 17 16 14 14 13 12 14 12 10 10 10 10 8 9 9 9 10
21 23 26 28 27 26 25 26 26 25 24 24 25 25 25 21 19 19 22 22 21 23 22 23 22 21 19 17 17 17 16 15 15 12 12 12 12 12 13 11 9 8 9 10 9 8 7 7 8 8 8 10 11 10
24 26 23 26 25 28 23 24 25 24 25 25 26 23 21 19 16 20 21 23 23 22 21 20 19 18 18 19 20 20 19 17 16 15 15 14 14 14 12 12 11 8 9 11 8 9 8 7 6 7 8 7 7 9
25 28 29 24 24 24 25 26 25 26 25 26 24 22 18 16 18 20 20 22 25 25 22 20 19 20 18 17 17 17 15 14 13 9 9 11 13 14 12 11 10 10 10 9 9 10 8 8 7 7 6 6 7 8
24 29 25 23 23 23 26 28 28 28 25 26 23 18 15 16 18 20 20 20 19 19 19 19 19 18 17 18 14 13 12 10 9 8 7 6 7 10 10 10 9 9 9 8 7 6 8 8 6 7 8 7 6 5
26 28 25 24 24 26 26 27 29 28 27 24 24 21 16 14 16 16 15 19 17 17 18 15 13 13 11 10 10 10 11 11 8 7 5 7 8 9 10 9 9 10 8 7 6 5 5 4 4 3 4 3 2 2
24 22 22 19 24 27 26 24 24 26 26 24 20 20 18 19 11 12 14 17 15 13 12 13 12 10 10 11 11 12 3 8 9 8 5 6 6 7 8 7 8 9 8 6 5 4 4 3 2 1 2 1 0 -3
23 23 22 21 20 20 23 22 20 20 20 17 15 17 15 13 7 12 15 15 12 12 11 12 13 13 10 9 8 9 5 8 8 9 10 8 2 3 3 5 5 5 3 2 2 3 2 2 2 1 -2 -3 -3 -4

GFSWCAN_sfc_dewp_015.txt.gz
Dewpoint
43 42 42 43 43 43 43 43 45 45 46 46 46 46 48 48 49 49 47 50 50 50 49 48 42 42 42 46 41 46 45 43 40 36 34 32 32 32 32 36 33 30 30 28 32 29 25 31 28 23 36 35 34 33
43 43 43 43 43 43 43 44 44 44 44 45 46 47 47 47 48 48 46 51 53 49 51 54 51 47 46 47 47 46 43 44 46 41 39 37 33 34 32 28 36 32 36 32 33 32 37 30 30 36 34 32 33 34
43 43 43 43 43 44 44 44 44 45 45 46 46 46 47 47 47 47 46 51 52 50 50 52 49 51 51 53 53 45 47 47 47 50 43 40 35 34 33 33 34 35 36 34 31 30 31 29 30 34 38 39 42 41
43 43 43 44 44 44 44 45 46 46 46 46 46 46 46 47 48 48 46 51 52 50 41 47 51 49 50 52 53 52 51 53 52 51 41 39 37 44 34 36 35 37 34 33 32 32 38 41 41 42 40 41 36 35
44 44 44 44 45 45 45 46 46 46 46 47 47 47 47 47 49 50 50 51 53 50 44 46 49 49 49 50 51 52 52 50 48 40 36 37 39 40 36 37 33 36 34 32 30 39 40 39 39 38 37 36 36 36
43 43 43 44 44 44 45 45 45 46 46 47 47 48 48 49 49 50 47 51 52 53 49 40 49 47 47 49 49 50 50 50 50 45 40 43 44 39 34 31 38 39 41 41 40 41 39 38 38 38 37 37 37 37
43 42 42 43 43 44 44 46 45 47 46 47 47 48 48 49 50 48 48 52 52 51 47 40 39 47 49 50 50 48 48 50 48 46 39 40 41 44 33 32 37 39 39 40 41 39 37 38 37 37 36 36 37 36
44 43 44 44 44 44 43 45 47 47 47 48 48 48 48 49 51 49 52 50 50 51 48 37 39 42 49 42 41 48 44 45 45 42 41 36 40 35 33 37 37 38 38 37 37 38 38 37 37 36 35 35 34 34
46 46 45 44 44 44 45 46 46 47 48 48 48 49 50 49 50 50 49 49 54 48 38 37 37 37 47 43 41 43 45 37 42 35 36 37 32 35 38 37 37 39 39 37 37 37 37 36 35 34 34 33 33 34
46 46 46 46 46 46 46 46 47 47 48 48 49 49 42 48 49 48 49 43 42 44 43 37 43 39 44 37 37 38 37 35 32 34 40 36 30 35 37 38 38 39 37 36 35 35 35 34 34 34 35 35 34 31
45 46 47 47 46 46 46 46 47 48 48 50 47 43 48 48 48 42 35 36 37 34 38 38 39 39 44 37 36 37 35 35 32 34 33 29 30 35 37 37 38 37 37 37 37 36 35 34 35 34 32 31 30 30
45 44 45 47 48 47 47 47 47 50 50 49 48 50 48 45 41 35 34 35 36 34 36 37 39 42 38 43 35 37 34 33 30 36 35 32 34 36 37 36 36 36 35 35 35 35 35 34 33 32 31 31 30 30
43 44 44 44 45 47 48 48 48 50 48 47 41 38 40 36 34 28 30 32 33 34 35 35 35 38 39 41 36 36 35 33 35 33 32 32 35 36 36 35 35 35 35 33 33 33 33 32 32 32 31 32 30 29
41 41 43 44 44 44 45 46 46 46 45 38 35 31 33 32 30 31 31 32 32 33 34 36 35 35 35 35 34 33 33 34 32 30 29 33 35 36 37 36 34 31 30 30 31 31 31 30 30 30 30 29 26 26
41 41 41 42 43 44 44 44 43 42 38 33 32 29 29 31 32 32 32 33 33 35 35 36 35 37 33 33 33 33 31 29 30 30 32 34 36 35 34 31 31 31 31 32 32 30 30 30 29 28 28 27 26 24
41 40 39 42 42 43 43 43 42 39 36 33 32 31 32 32 32 32 32 32 35 34 35 35 34 33 32 33 32 31 30 28 29 31 33 35 35 35 32 32 34 33 32 32 32 31 30 29 26 27 27 24 21 20
40 38 42 42 43 41 43 40 39 35 32 32 31 32 32 32 31 32 32 33 36 34 32 33 31 29 32 31 29 30 28 30 31 32 34 35 35 35 34 34 33 33 32 31 30 30 30 29 26 25 22 24 23 21
37 39 42 42 42 40 40 40 35 33 30 32 30 31 32 32 32 32 33 35 35 34 33 31 33 31 28 27 27 30 31 32 33 33 35 36 36 36 35 34 33 31 30 30 29 29 28 26 22 20 20 21 21 20
37 38 40 41 40 38 32 34 35 30 31 32 32 33 33 33 34 34 35 35 36 35 35 32 27 25 25 26 26 28 32 32 32 33 33 35 34 33 32 32 32 31 31 29 27 21 20 20 20 19 20 20 18 19
38 38 40 39 40 33 30 31 37 32 30 31 33 32 32 32 34 33 32 31 32 31 28 26 25 26 26 27 29 30 30 33 33 30 30 32 32 32 32 32 29 26 26 25 24 22 19 18 19 19 18 18 14 10
37 36 40 40 36 34 32 30 31 32 32 31 32 31 30 32 31 30 29 29 26 27 25 28 27 27 29 29 30 30 28 28 28 32 30 28 30 30 30 31 30 28 26 25 23 20 18 16 16 17 9 6 5 6
34 39 34 35 31 30 29 32 30 32 30 30 29 30 28 26 27 30 28 25 25 27 28 27 27 26 25 25 26 28 29 28 27 26 26 26 23 23 23 23 21 20 20 21 21 17 16 16 15 13 6 4 10 10
37 37 32 30 22 21 20 30 21 25 20 24 27 24 26 26 27 30 24 25 25 29 29 28 27 27 25 24 25 26 26 25 23 22 22 21 20 20 19 18 21 18 17 18 18 17 16 14 13 8 9 6 3 4
36 31 26 24 23 23 23 19 26 24 22 22 21 18 23 24 26 21 21 22 24 25 26 28 28 24 21 20 19 21 24 22 21 22 22 19 17 17 17 16 16 16 17 16 15 14 13 7 7 7 -0 -4 -4 -4
20 20 21 16 23 17 15 21 19 20 22 23 18 21 23 25 18 20 19 21 19 19 21 25 21 23 20 19 19 19 22 20 17 15 19 20 18 16 14 13 13 12 13 9 6 1 1 -1 -3 -5 -4 -8 -4 -4
18 24 21 22 23 22 22 19 21 22 23 23 24 25 27 23 15 14 18 19 16 16 18 19 21 17 17 18 16 15 16 20 15 12 13 14 14 13 11 10 9 7 7 -0 -4 -6 -5 -5 -7 -6 -7 -2 1 2
20 22 27 29 28 27 25 26 26 20 17 19 22 23 16 19 12 17 19 20 19 18 20 20 20 18 17 17 17 16 15 15 14 13 14 13 12 12 8 0 -2 1 1 -0 -6 -8 -9 -8 -9 -8 -9 -2 -1 -4
26 27 23 26 26 26 20 20 17 18 21 25 25 14 12 13 10 18 19 23 21 20 19 19 18 17 16 16 15 15 15 15 13 14 14 13 12 7 3 1 2 8 3 2 -5 -1 -2 -5 -9 -10 -10 -8 -11 -11
26 28 23 18 22 25 24 23 23 24 25 25 15 13 13 15 16 17 20 21 21 20 17 17 16 14 14 13 12 10 8 8 6 1 -1 -1 2 2 -0 -2 -1 -3 -4 -4 4 6 2 -1 1 -3 -9 -2 -2 -3
22 23 17 13 11 19 23 25 25 25 25 25 18 16 13 13 14 15 15 16 16 14 14 14 14 10 9 9 7 7 5 2 2 -2 -9 -10 -8 -2 -1 2 -3 -6 -3 -8 -8 -5 1 -3 -3 -8 -9 -4 -2 -8
25 23 17 18 17 23 24 26 28 25 24 19 16 11 9 9 10 12 12 16 13 13 12 5 8 8 7 6 4 -3 -4 -3 -3 -4 -6 -8 -6 -6 2 3 -0 -7 -4 1 -2 -8 -11 -12 -5 -7 -12 -11 -6 -10
21 19 12 13 18 22 24 24 23 22 21 17 12 7 7 8 0 4 11 10 8 8 9 8 6 2 0 0 -1 -3 -4 -4 1 -6 -6 -9 -9 -10 -10 -9 -9 0 0 -3 -7 -12 -5 -5 -9 -4 -8 -11 -15 -17
17 16 14 12 12 14 16 12 15 12 11 10 10 9 6 3 -0 6 11 10 4 2 6 8 7 7 4 -1 -4 -3 2 -2 -1 6 7 7 -1 -3 -12 -12 -12 -13 -13 -15 -14 -14 -10 -4 -3 -5 -10 -16 -16 -15

GFSWCAN_sfc_dewp_018.txt.gz
Dewpoint
42 43 42 43 43 43 43 43 43 43 43 43 44 44 45 45 45 47 46 49 47 45 47 49 41 38 40 43 40 44 44 43 38 35 33 31 28 32 32 34 31 28 28 25 30 24 20 34 27 23 28 35 34 33
41 41 41 41 42 43 43 43 43 43 44 44 44 44 45 45 46 47 46 49 50 46 47 50 52 51 42 46 47 45 43 44 45 39 36 35 31 31 30 29 37 27 31 29 30 29 34 31 32 37 35 33 34 39
42 42 42 43 43 43 43 43 43 43 44 44 44 45 46 46 47 47 47 50 48 45 46 49 48 49 51 49 48 44 45 47 49 45 40 39 30 32 28 29 32 34 38 34 32 32 35 33 39 39 41 41 39 40
43 43 43 43 43 43 43 43 44 45 45 45 45 46 46 47 48 47 47 49 49 47 40 45 52 49 51 51 52 50 47 51 50 45 39 34 33 38 30 33 33 35 34 33 31 38 40 41 41 39 36 36 36 35
43 43 43 43 44 44 44 44 43 44 45 45 46 46 46 47 48 48 49 49 50 47 41 42 48 50 52 53 53 53 51 48 44 38 34 34 35 38 31 34 31 35 33 31 30 35 37 38 38 38 36 36 36 35
43 44 44 44 45 45 45 45 45 45 46 46 47 47 47 47 48 47 42 47 49 50 44 38 50 49 50 52 52 52 52 50 48 41 35 40 43 36 29 29 36 39 40 38 40 40 38 38 38 37 36 36 36 35
44 45 45 45 45 45 45 45 46 46 46 46 47 47 47 47 48 45 43 50 49 51 44 39 40 48 51 50 49 49 50 49 47 44 38 38 40 39 29 30 38 39 40 38 38 38 37 38 36 36 36 36 36 35
43 43 44 44 44 45 45 45 46 46 47 47 47 47 48 48 49 46 51 50 52 48 48 38 38 42 49 41 42 47 43 43 44 42 40 36 40 32 31 37 38 37 38 38 38 38 38 36 35 35 35 34 33 33
41 42 42 43 43 44 44 46 46 46 47 47 48 48 48 48 46 47 49 49 51 49 40 37 37 37 45 41 40 41 41 37 42 35 36 36 34 32 37 37 37 36 37 37 37 36 35 34 34 34 33 33 33 32
42 43 43 43 43 44 44 46 47 47 47 47 47 46 40 47 50 50 49 45 43 43 40 36 41 38 43 36 37 35 37 34 31 34 39 34 28 36 37 38 39 38 37 37 35 34 34 33 33 34 33 32 30 29
45 43 43 43 44 44 45 46 47 47 47 47 45 41 48 49 48 43 36 35 37 34 38 39 36 38 44 36 35 36 34 33 27 31 31 33 30 34 37 37 37 37 37 37 36 35 34 35 34 32 30 30 29 29
47 46 46 45 45 46 46 46 47 47 48 49 48 49 47 44 37 34 32 34 34 33 35 36 38 40 40 44 37 36 34 32 32 35 29 26 33 36 36 36 36 36 35 35 35 35 35 33 31 30 29 29 29 30
46 47 46 46 46 47 47 47 47 49 49 47 42 36 38 34 31 27 29 31 32 33 35 35 35 36 38 40 35 34 33 32 31 31 30 30 36 36 36 35 35 35 34 34 33 32 32 32 31 31 30 30 29 28
44 44 45 46 47 47 47 47 45 46 43 36 33 30 32 30 30 30 31 32 32 32 33 34 34 35 34 34 33 34 33 34 30 28 28 33 36 36 35 34 33 32 32 31 30 30 30 30 30 30 29 27 26 25
43 43 43 44 44 44 44 43 43 40 35 32 32 28 29 31 32 32 32 33 33 34 34 35 35 36 33 33 33 32 31 29 30 29 31 34 36 34 33 31 31 31 30 30 30 29 29 29 28 27 26 26 25 22
42 41 40 43 43 44 43 42 40 38 34 30 31 31 32 32 31 32 32 32 35 33 34 35 33 32 31 32 31 29 29 27 29 30 32 34 32 32 32 31 31 31 31 30 30 29 28 27 26 25 24 23 22 20
40 37 41 43 42 40 42 39 37 33 33 30 30 32 32 32 31 32 32 33 36 34 32 30 29 29 32 29 27 29 26 29 31 32 33 34 33 33 34 34 32 32 31 31 30 29 27 26 25 23 20 20 21 20
36 37 42 43 40 40 40 38 34 32 30 31 29 31 32 32 32 32 32 34 34 32 33 31 33 26 23 23 24 28 30 31 32 33 35 35 35 35 35 34 33 32 31 30 30 29 25 24 21 21 23 20 20 21
38 39 41 42 40 35 32 34 34 30 30 31 32 32 32 32 32 32 32 34 35 34 32 29 24 22 22 25 24 27 29 31 31 31 32 34 34 33 32 32 31 31 30 28 25 22 21 20 20 20 20 19 18 18
39 39 40 40 38 32 29 30 34 31 30 31 32 32 32 31 32 30 27 28 29 29 25 23 22 23 24 25 27 27 27 31 32 30 29 31 32 31 30 28 27 28 25 25 23 23 22 21 20 19 18 16 13 13
35 36 37 35 32 31 29 29 31 32 32 30 30 30 29 30 24 24 25 27 23 25 22 25 24 25 27 27 27 28 26 27 28 31 29 25 26 25 25 26 26 25 22 20 19 18 18 17 16 16 15 11 8 10
34 37 28 31 27 26 25 28 28 29 28 28 26 27 24 24 25 25 25 22 23 25 26 25 25 23 22 23 23 25 25 25 25 23 23 23 21 21 20 21 20 19 19 19 18 16 16 14 15 14 12 9 10 10
33 31 27 23 18 17 17 26 19 24 18 20 22 22 23 23 28 27 20 23 23 25 28 24 22 22 21 22 22 22 23 22 20 20 19 18 18 18 18 18 19 17 16 17 18 16 14 13 12 10 7 4 -1 -2
32 25 20 18 19 17 15 17 23 21 19 18 18 19 20 20 23 18 17 19 21 21 22 25 22 19 18 18 17 18 20 20 19 18 19 17 14 15 15 14 14 14 14 13 11 10 9 6 4 2 -5 -7 -11 -11
18 17 15 10 15 14 14 20 22 22 19 14 16 19 22 18 16 14 15 16 16 16 18 20 18 19 16 15 15 16 18 17 14 13 14 17 15 14 12 10 9 9 10 6 1 -1 -3 -8 -11 -14 -10 -16 -9 -8
18 21 19 21 23 19 21 16 20 20 19 18 22 24 17 13 4 8 14 11 13 12 14 16 13 14 14 14 13 13 14 18 14 11 12 13 13 9 9 7 5 3 5 -3 -9 -12 -12 -13 -15 -13 -14 -7 -2 -4
18 17 25 27 27 23 21 18 18 13 9 14 18 18 16 3 4 13 18 18 16 15 18 17 17 16 15 15 15 15 15 14 13 12 12 11 10 9 3 -5 -4 1 -2 -6 -13 -13 -11 -12 -15 -15 -17 -18 -14 -14
24 24 19 22 16 16 9 7 7 12 13 20 18 7 7 1 5 15 17 20 18 18 17 16 16 14 11 10 9 9 9 12 13 12 10 9 8 7 5 3 3 9 -2 -9 -11 -5 -6 -6 -5 -8 -11 -15 -11 -16
24 25 16 11 10 12 15 14 14 20 23 17 6 6 6 11 11 11 15 18 18 15 13 12 13 12 10 7 6 5 5 4 -3 -6 -12 -11 -10 -5 1 -1 -2 -6 -10 -11 -1 2 -2 -7 -2 -7 -13 -13 -3 -9
17 12 9 4 11 17 20 19 12 20 21 12 12 11 9 9 11 14 14 12 10 8 9 8 9 6 4 -2 -1 2 0 -2 -2 -9 -14 -16 -10 -6 -9 -8 -8 -7 -7 -13 -7 -4 -2 -12 -10 -12 -13 -15 -17 -15
20 10 9 10 15 21 23 24 19 18 7 6 6 2 1 5 6 10 10 10 10 7 5 2 0 -2 -3 -3 -11 -15 -10 -5 -7 -9 -12 -14 -17 -18 -17 -17 -17 -17 -14 -12 -12 -13 -14 -17 -18 -13 -13 -11 -15 -18
6 3 5 8 14 17 15 18 16 18 10 4 -1 -6 0 -5 -6 2 8 3 4 4 3 2 -1 0 -7 -11 -13 -7 -5 -7 -6 -8 -7 -8 -6 -10 -9 -15 -20 -21 -21 -22 -23 -22 -22 -18 -13 -10 -7 -12 -14 -21
7 1 -1 2 11 6 3 6 13 7 4 2 2 -0 -3 -3 -4 0 6 4 -2 -7 -7 -5 -4 -0 1 -5 -8 -10 -5 -12 -13 -2 -4 -1 -7 -7 -14 -20 -20 -19 -17 -18 -22 -23 -18 -16 -16 -16 -14 -12 -13 -17

GFSWCAN_sfc_dewp_021.txt.gz
Dewpoint
45 44 44 44 44 44 43 42 42 42 42 42 42 42 43 44 44 44 43 48 45 41 42 46 45 40 40 37 35 40 44 42 35 34 33 29 28 31 29 31 29 30 28 26 25 20 20 31 29 21 27 34 35 34
42 42 42 42 42 42 42 42 42 41 41 42 43 43 44 45 45 45 42 48 50 45 42 46 45 45 47 39 40 46 40 43 43 39 36 33 30 28 30 28 35 26 31 30 29 28 32 33 29 32 35 34 33 35
43 42 42 42 42 42 42 42 42 42 42 43 44 44 45 45 45 44 45 47 47 42 40 43 46 47 51 51 45 44 44 48 46 46 40 36 32 32 28 29 31 33 37 32 31 33 34 35 39 37 36 37 40 41
42 42 43 43 43 43 43 42 42 43 43 43 44 44 44 45 45 45 44 49 46 44 38 44 52 50 51 51 48 47 46 50 49 47 38 34 34 36 29 33 31 35 36 33 33 38 39 39 39 37 36 36 34 32
43 43 43 43 43 43 42 43 43 43 44 44 44 44 45 45 45 46 47 48 50 43 40 42 48 51 52 52 48 49 50 47 43 39 35 36 37 37 30 33 29 35 33 31 31 38 35 39 37 37 36 35 34 33
44 44 43 44 43 43 44 44 44 44 43 44 44 45 45 45 47 46 41 45 49 49 42 37 46 49 51 51 48 48 48 48 44 39 36 41 43 37 32 29 35 37 37 35 34 39 39 37 37 37 36 35 35 35
44 44 44 44 44 44 43 44 44 45 44 43 44 45 46 47 46 42 39 45 46 48 42 37 38 48 50 48 47 49 50 48 47 43 35 37 40 34 27 29 35 40 39 39 38 37 36 37 35 36 36 35 36 35
44 44 44 44 44 45 44 44 45 46 46 46 46 46 46 46 46 43 50 49 48 45 45 36 36 41 48 40 43 47 44 44 43 42 38 35 39 31 29 36 38 38 38 37 37 38 37 36 35 34 34 33 33 33
44 44 45 45 45 45 45 45 45 45 46 46 46 46 46 45 42 45 49 50 52 47 39 35 34 36 46 42 41 41 42 37 42 37 37 40 35 33 35 37 37 37 37 36 36 35 35 34 33 33 33 33 31 30
44 44 44 44 44 44 45 46 46 46 46 46 45 44 40 42 48 48 46 43 44 44 41 35 41 37 44 36 37 37 36 34 34 35 39 34 33 35 37 39 38 38 37 36 34 33 33 32 32 32 32 31 30 28
43 43 43 43 43 44 46 46 46 47 47 45 42 40 48 48 46 40 34 35 37 34 37 38 38 38 43 37 35 35 34 32 28 34 33 32 31 34 36 38 39 38 38 38 36 35 34 33 33 31 30 30 29 29
43 43 44 44 44 44 46 46 46 46 44 44 47 48 47 42 39 33 32 34 34 33 35 36 37 41 38 42 36 35 33 31 28 35 29 31 31 34 35 35 36 36 36 35 35 35 34 33 31 30 29 29 29 29
43 43 43 44 44 45 46 47 46 48 49 46 41 37 38 33 31 30 30 31 32 33 35 34 34 35 37 38 34 33 29 26 34 27 28 29 36 35 35 35 35 36 36 35 33 32 31 30 30 29 29 30 29 26
45 45 44 44 44 45 46 47 47 46 43 36 36 29 31 29 29 30 31 32 32 32 33 34 34 34 33 34 33 33 32 33 29 27 26 33 35 35 35 34 34 33 32 32 31 31 30 30 29 29 29 26 24 23
45 45 45 46 46 46 47 46 45 42 37 33 33 27 28 31 32 32 32 33 33 34 34 35 35 36 33 33 32 32 32 29 29 24 31 34 35 34 33 33 31 31 30 30 31 30 29 28 27 26 25 23 22 21
43 42 42 44 44 44 43 42 40 38 33 32 31 30 31 31 31 31 32 32 35 33 34 35 32 31 31 32 30 27 28 26 28 30 32 33 33 32 32 32 32 31 31 30 30 29 28 27 26 25 24 21 20 18
41 38 41 43 42 43 43 38 35 32 31 30 29 32 31 31 31 31 32 32 35 34 32 27 28 28 31 27 25 28 24 27 30 31 33 33 32 32 32 32 31 31 30 29 28 27 26 24 23 22 22 20 19 19
37 38 42 42 42 41 39 37 33 32 30 31 29 30 31 30 30 30 32 33 33 32 32 29 30 22 18 18 20 24 29 32 32 32 32 33 34 33 33 32 32 31 30 29 26 25 24 23 22 21 21 21 20 19
38 38 40 41 39 35 32 33 33 29 30 31 32 32 31 30 30 30 30 32 32 32 30 27 21 20 19 23 22 24 25 29 30 30 31 32 32 32 31 31 31 30 29 27 24 22 22 22 22 21 20 20 19 17
38 38 38 39 38 31 29 30 33 31 29 31 32 26 27 26 27 26 25 26 26 25 22 19 19 21 22 23 24 25 25 28 31 27 26 26 28 28 28 28 25 25 24 23 23 22 21 20 20 18 17 16 16 14
34 35 34 33 30 30 29 29 31 32 31 30 31 30 28 26 21 21 22 24 21 23 20 22 22 22 24 24 24 25 24 24 24 26 24 22 24 23 23 24 23 22 20 19 17 17 17 17 18 17 15 12 12 13
32 33 26 27 24 25 25 27 29 29 28 27 26 25 22 22 20 21 22 19 20 22 23 22 21 21 21 21 21 23 23 22 22 21 20 21 19 18 18 20 19 17 17 17 16 15 15 16 16 14 11 9 11 9
31 29 25 23 18 17 17 25 19 23 18 18 19 19 19 18 22 24 17 19 19 23 24 21 21 21 19 20 19 20 21 19 17 17 17 16 16 16 15 15 16 15 14 15 16 14 12 12 9 6 4 4 1 -2
28 21 15 13 17 10 13 15 22 20 17 14 15 19 20 20 19 14 13 15 18 20 20 21 20 18 16 15 14 15 17 17 15 15 17 14 12 11 11 11 10 10 10 9 8 5 4 1 2 1 -4 -7 -9 -16
18 17 13 9 13 12 9 10 13 15 10 9 17 18 19 15 8 8 9 12 13 13 15 17 16 15 12 13 13 15 17 14 12 11 13 15 12 11 8 7 7 7 8 3 -1 -4 -5 -6 -8 -9 -13 -18 -10 -11
14 20 17 14 15 13 11 7 8 11 7 9 15 21 11 3 0 4 12 8 10 11 11 13 12 11 11 13 11 11 13 14 11 8 8 9 9 7 4 2 3 4 4 -3 -5 -9 -8 -12 -16 -15 -16 -12 -10 -13
12 13 23 24 20 19 16 15 13 10 9 16 12 5 6 -3 -1 11 16 15 13 13 16 15 14 12 10 10 11 12 12 11 10 9 9 8 8 6 -0 -5 -4 2 -4 -9 -12 -11 -9 -10 -14 -13 -14 -22 -21 -20
24 21 12 11 12 13 6 3 5 8 10 19 10 -1 -7 -4 1 12 14 18 16 15 13 11 9 7 5 4 5 7 8 9 7 6 6 4 3 2 2 2 2 6 -5 -11 -14 -18 -17 -11 -13 -12 -14 -13 -12 -17
17 16 13 7 7 9 13 10 11 19 20 12 -2 1 2 7 8 8 13 14 14 11 7 6 7 5 3 3 2 1 1 -3 -9 -13 -17 -18 -16 -9 -8 -12 -12 -11 -13 -12 -3 4 5 -5 -7 -13 -14 -13 -8 -14
14 7 9 14 6 12 13 8 12 12 11 6 8 7 6 6 9 12 10 8 5 4 2 0 -3 -4 -12 -8 -8 -3 -5 -11 -12 -12 -17 -16 -12 -11 -20 -21 -20 -19 -21 -20 -18 -13 -5 -14 -13 -17 -19 -17 -22 -23
7 6 7 7 12 18 18 11 9 4 -2 -4 -4 -5 -5 1 1 8 7 4 4 2 -0 -4 -7 -14 -11 -13 -17 -17 -14 -9 -11 -10 -12 -14 -15 -17 -12 -16 -23 -24 -25 -25 -27 -27 -26 -24 -25 -23 -18 -16 -15 -16
4 -4 3 6 15 12 19 14 15 3 1 -0 -4 -9 -3 -6 -7 -1 4 -3 -3 -7 -4 -9 -10 -7 -10 -13 -15 -16 -10 -14 -16 -17 -16 -17 -17 -18 -19 -18 -21 -23 -23 -25 -28 -26 -26 -25 -24 -25 -24 -23 -18 -18
-2 -5 -6 -0 7 6 3 6 9 4 1 -1 -2 -4 -7 -5 -8 -3 1 -5 -9 -12 -13 -16 -14 -8 -6 -10 -13 -17 -11 -18 -19 -7 -8 -5 -7 -12 -20 -23 -25 -25 -23 -24 -26 -24 -23 -24 -25 -29 -26 -24 -20 -20

GFSWCAN_sfc_dewp_024.txt.gz
Dewpoint
44 45 45 44 44 44 44 46 46 45 45 44 44 44 44 43 43 41 38 44 44 40 40 44 44 38 37 36 33 38 39 40 35 33 33 31 28 31 29 31 32 32 30 25 24 21 25 29 28 24 29 32 33 34
44 45 46 44 44 45 46 45 44 44 44 44 44 44 43 43 44 42 38 42 44 43 43 45 44 42 42 40 37 39 37 42 41 38 34 32 31 27 29 27 33 29 32 30 30 30 33 32 29 29 33 34 34 34
42 43 43 44 44 44 44 44 44 43 43 43 43 43 44 44 44 42 39 42 42 41 40 41 40 44 43 44 46 39 43 45 43 44 38 36 31 32 31 30 31 32 33 30 30 32 32 33 36 35 34 34 36 37
42 42 42 42 43 43 43 43 43 42 42 42 42 43 43 43 44 42 40 45 45 43 36 39 49 48 52 49 49 48 45 48 46 46 36 34 32 36 32 33 32 33 35 33 31 36 38 38 39 36 36 36 34 33
43 43 42 42 42 42 42 42 41 42 42 42 43 43 43 44 44 44 44 46 46 43 37 38 42 47 51 51 50 49 45 46 43 40 33 34 35 36 33 34 29 36 34 33 31 35 33 32 37 37 35 34 34 32
43 43 43 43 43 42 42 42 42 42 42 43 43 44 44 44 45 43 38 44 48 47 40 34 44 44 50 50 50 47 47 45 43 39 37 40 43 39 34 32 34 36 37 36 33 38 37 37 36 36 35 34 34 33
44 43 42 42 43 43 43 43 43 43 43 43 44 44 44 45 43 40 38 42 47 47 40 35 36 42 49 50 47 46 46 45 44 41 35 37 40 38 34 33 33 38 38 38 37 37 35 36 35 35 35 35 35 34
44 44 43 43 43 44 44 43 43 44 44 44 44 44 45 45 45 41 46 48 47 43 41 35 36 39 48 42 42 45 41 41 42 42 38 36 37 32 30 34 38 38 37 37 37 37 37 35 35 34 34 33 33 32
44 44 44 44 43 44 45 45 44 43 44 44 45 45 44 43 39 42 48 46 50 43 35 35 35 32 45 42 41 39 39 35 42 36 36 37 34 33 33 37 37 38 37 35 35 35 35 33 33 33 32 32 31 30
44 44 45 45 44 45 45 45 44 43 44 45 44 41 34 40 47 47 45 42 43 45 42 35 40 36 43 37 37 35 34 35 35 35 39 34 33 36 37 38 38 37 36 35 34 32 33 32 32 32 31 30 30 30
44 44 44 45 45 45 45 44 44 45 46 43 41 38 45 47 44 40 34 34 36 34 37 37 36 37 42 36 35 35 33 32 32 34 36 33 33 34 37 39 38 38 37 38 37 35 35 33 32 31 30 29 29 30
44 44 44 44 45 45 45 45 46 45 43 43 44 45 45 42 37 33 32 33 34 33 35 36 37 40 37 42 37 35 33 32 31 35 34 31 32 34 35 35 36 36 35 35 35 34 33 32 31 30 29 29 29 28
44 44 44 43 44 46 45 46 46 46 46 47 41 35 37 32 30 28 30 31 32 32 34 34 35 35 37 37 34 34 32 31 34 32 30 30 35 35 35 35 35 35 35 33 32 31 30 30 30 30 29 29 27 26
44 44 44 44 45 46 46 46 45 45 44 36 33 28 30 28 29 29 30 32 32 32 33 33 33 34 33 34 33 33 32 33 29 26 26 32 34 35 35 35 34 33 32 32 31 30 29 29 28 28 28 27 26 24
43 44 44 44 45 46 46 46 43 42 37 32 32 27 28 31 32 32 32 33 33 34 33 34 34 35 33 32 32 33 32 28 28 26 30 33 34 34 32 32 31 31 30 30 30 28 28 28 26 25 24 24 24 22
44 43 44 45 46 45 44 43 41 38 34 32 31 29 31 30 30 31 31 32 35 33 34 34 33 32 30 31 28 25 27 23 26 29 32 33 32 32 32 31 31 31 30 30 29 28 28 27 25 23 22 21 21 20
42 40 44 44 44 43 43 39 36 32 32 31 29 30 30 30 28 30 30 30 34 33 31 31 26 24 30 24 23 25 23 26 29 31 32 32 31 31 31 30 30 30 29 29 28 27 26 25 22 20 18 18 18 19
39 41 44 44 42 40 38 36 31 30 29 30 27 28 27 27 25 26 28 31 32 32 29 26 27 19 17 17 17 21 24 26 30 30 31 32 32 32 32 30 30 29 28 28 26 25 24 23 22 21 19 19 20 20
39 40 42 43 42 37 32 33 33 27 28 29 28 29 28 24 24 25 26 29 29 29 27 23 17 16 17 20 19 21 22 24 27 26 26 28 30 30 30 30 29 27 27 26 24 23 23 23 22 22 22 21 18 17
38 37 39 41 41 33 31 30 33 29 28 29 28 22 23 21 23 22 22 23 23 22 19 17 16 18 19 20 22 22 22 26 29 23 21 23 24 24 24 24 23 23 22 22 21 21 20 19 19 18 19 19 17 15
32 33 31 32 30 30 29 30 31 31 31 29 31 27 23 21 18 17 17 20 17 20 16 19 19 20 22 22 22 23 21 21 21 22 21 18 21 21 21 21 21 20 18 17 16 16 16 16 16 16 15 14 14 15
30 31 26 28 25 26 26 27 29 28 28 27 24 24 20 13 12 17 18 14 16 18 20 19 19 19 18 18 19 20 21 20 19 17 17 16 14 15 15 17 16 15 15 14 14 13 13 13 13 12 11 10 12 10
29 28 24 22 18 17 16 25 18 21 17 16 18 18 17 15 18 20 13 15 16 19 21 21 19 19 17 17 17 17 18 16 15 14 14 12 12 12 11 11 12 11 10 10 11 9 7 7 6 4 5 5 3 1
26 19 13 11 14 8 11 14 21 18 15 13 17 16 17 12 14 10 9 12 15 16 16 17 17 14 14 13 12 13 15 14 13 13 13 10 8 7 7 6 6 6 6 6 5 2 1 -1 -1 -1 -3 -6 -6 -10
18 17 12 7 10 9 6 6 8 12 6 13 11 15 17 11 4 3 6 10 11 9 12 14 13 13 10 10 11 12 13 11 9 7 10 12 9 8 6 5 5 5 5 1 -3 -6 -8 -10 -13 -15 -13 -18 -9 -10
15 19 19 8 12 10 6 6 7 8 4 10 13 16 6 0 -3 1 10 6 8 9 9 9 9 10 9 10 8 8 10 10 7 5 6 6 5 -2 -4 -3 -2 2 1 -10 -12 -13 -12 -14 -18 -16 -17 -13 -14 -19
16 13 21 21 18 16 10 6 9 8 7 14 7 1 -3 -8 -4 8 15 13 12 11 11 10 10 8 8 8 9 10 9 8 6 6 6 5 4 4 -2 -8 -7 -0 -1 -7 -14 -15 -14 -14 -17 -18 -20 -24 -24 -23
21 16 8 8 9 10 10 2 3 6 7 16 3 -7 -11 -10 -2 7 12 14 12 10 8 7 6 4 3 4 5 5 5 2 3 1 -1 -2 -3 -6 -9 -11 -11 0 -14 -18 -17 -18 -16 -13 -14 -14 -17 -17 -15 -19
12 7 10 5 5 9 13 10 7 14 12 4 -7 -5 -1 5 5 5 10 11 11 7 4 3 2 -3 -4 -1 -3 -5 -4 -10 -12 -15 -19 -20 -18 -10 -11 -17 -22 -22 -25 -21 -7 -2 1 -6 -6 -12 -17 -19 -14 -15
8 6 12 4 3 9 9 6 -2 -5 5 1 6 5 3 3 7 10 7 5 2 -4 -11 -14 -15 -11 -15 -13 -14 -9 -11 -19 -18 -15 -19 -20 -15 -12 -16 -20 -23 -23 -27 -27 -27 -21 -10 -20 -17 -22 -23 -21 -22 -24
3 4 5 5 9 8 8 -2 -4 -4 -8 -8 -10 -10 -9 -4 -0 4 2 -2 -6 -8 -8 -12 -12 -19 -16 -18 -21 -21 -17 -18 -21 -18 -18 -20 -20 -22 -23 -23 -23 -28 -28 -28 -30 -30 -28 -29 -31 -31 -27 -24 -23 -19
-0 -3 2 3 10 11 6 8 -7 -4 -8 -10 -6 -16 -12 -13 -14 -9 -1 -9 -12 -13 -14 -18 -17 -13 -16 -19 -22 -24 -17 -21 -21 -21 -19 -18 -19 -22 -24 -24 -29 -30 -29 -30 -32 -30 -29 -27 -29 -31 -33 -31 -27 -26
-7 -9 -8 -2 5 5 5 4 3 -1 -6 -6 -8 -10 -13 -13 -13 -7 -3 -15 -15 -16 -16 -18 -19 -17 -14 -18 -19 -22 -14 -21 -23 -11 -5 -5 -14 -15 -23 -28 -29 -30 -28 -30 -31 -32 -28 -28 -29 -31 -31 -32 -30 -29

GFSWCAN_sfc_dewp_027.txt.gz
Dewpoint
45 45 45 45 44 44 45 45 45 44 44 46 46 46 45 45 45 40 39 43 42 39 39 40 42 38 36 35 33 37 37 38 38 33 35 34 33 34 33 34 34 34 33 33 30 32 29 32 27 29 35 33 35 37
45 44 45 44 44 45 45 45 45 45 46 46 46 46 45 45 44 42 39 44 44 38 40 46 44 44 42 37 36 37 36 37 38 37 36 35 35 35 33 31 33 34 35 35 34 35 38 33 36 34 34 35 36 38
44 44 44 44 44 44 44 44 45 46 46 45 45 44 45 45 44 42 40 42 42 37 38 41 40 44 44 43 43 39 42 44 43 45 41 39 35 36 34 33 34 34 34 35 35 35 34 35 35 36 35 36 35 37
42 43 44 45 46 45 46 45 45 45 45 45 45 45 44 44 45 41 40 42 41 40 35 37 47 44 49 44 45 46 45 47 47 46 40 38 37 38 36 37 37 35 34 34 33 33 39 38 38 37 37 39 37 36
42 42 43 44 44 44 44 44 44 45 45 45 45 45 45 45 44 42 43 43 42 40 36 38 41 43 46 49 46 48 46 47 45 42 37 38 38 38 36 37 35 36 35 35 34 34 37 36 39 38 37 36 35 34
43 42 42 42 43 43 44 44 44 44 44 44 44 44 44 45 43 42 35 42 45 44 38 33 43 44 49 52 50 48 48 46 46 42 39 40 43 40 37 35 35 37 40 39 35 38 37 37 37 36 35 35 34 34
43 43 42 42 42 42 42 42 42 42 43 43 42 42 42 42 42 38 36 41 43 44 40 34 36 44 48 50 49 48 49 46 46 44 40 41 42 40 36 34 35 37 39 38 38 38 36 36 36 35 35 34 34 33
42 43 43 43 42 42 42 42 42 42 43 43 43 43 43 43 43 41 46 44 42 42 41 33 34 38 47 41 42 46 44 44 44 42 40 40 39 36 35 35 38 38 38 38 37 37 37 36 35 34 34 34 33 33
43 43 44 43 43 43 43 43 43 43 43 43 44 43 43 42 39 41 47 46 48 42 34 33 34 34 45 42 41 41 41 38 42 38 39 40 37 35 36 35 38 37 39 36 35 35 35 35 34 33 33 33 32 32
44 42 44 44 43 43 43 43 44 44 44 44 42 39 35 40 46 46 45 41 41 41 41 35 40 37 41 37 37 38 37 37 36 38 39 37 38 37 38 38 38 37 36 35 34 33 33 33 33 33 32 33 32 32
44 44 44 44 45 44 43 43 44 44 43 41 39 36 41 46 43 39 34 34 35 33 37 38 37 38 43 37 36 37 33 34 35 37 37 36 35 35 37 38 38 37 37 37 37 35 35 34 33 32 31 32 32 31
45 45 45 45 44 44 43 43 43 43 41 42 42 44 43 40 35 33 31 32 31 33 35 36 38 41 38 43 36 35 33 33 33 36 35 33 34 35 37 37 37 37 37 36 36 35 34 33 31 31 31 31 30 29
44 44 45 45 45 44 44 44 46 46 46 45 38 35 36 33 30 28 27 31 31 33 34 34 34 36 37 38 34 33 32 32 34 33 31 31 34 35 36 35 35 35 34 33 31 31 31 30 31 30 28 28 28 28
43 43 44 45 45 46 46 45 45 44 42 35 32 28 30 28 28 28 30 31 32 32 33 34 34 35 33 34 33 33 32 33 30 27 27 31 33 34 34 34 33 32 31 31 30 30 29 28 28 29 29 29 28 26
43 44 44 45 46 46 45 43 42 42 37 32 32 27 28 31 32 32 32 32 33 34 33 35 35 35 33 33 32 33 31 27 26 25 29 31 33 33 32 31 31 30 29 29 29 28 28 27 27 26 27 27 26 25
44 43 43 44 45 46 45 43 41 38 34 31 28 25 29 28 26 28 28 29 33 33 34 35 33 31 29 28 26 23 24 20 24 28 30 32 31 31 30 30 30 30 30 29 29 28 28 26 25 24 24 24 23 22
43 41 44 43 43 43 42 39 36 33 32 30 26 26 25 26 24 26 27 28 32 33 31 29 20 21 26 21 18 20 19 22 23 28 31 31 30 30 30 30 30 30 29 28 27 26 24 24 24 23 20 19 19 20
40 44 44 43 42 42 39 35 31 30 26 26 24 24 24 24 22 24 26 28 31 30 27 24 25 18 16 15 15 19 21 23 28 25 25 30 30 30 30 28 28 28 27 26 26 26 25 24 22 20 19 19 19 19
42 44 43 43 42 36 31 32 31 24 24 26 24 24 23 21 22 23 24 26 27 27 25 20 15 13 15 17 17 19 20 22 23 23 23 24 25 25 25 25 24 24 24 23 22 21 21 22 22 22 22 21 19 19
43 43 44 43 40 34 31 31 34 28 26 27 25 19 19 18 19 20 20 20 20 19 16 14 13 15 16 18 20 20 20 25 25 20 19 21 22 22 22 22 21 22 20 20 19 20 19 17 18 18 18 19 18 16
34 34 35 34 31 30 30 30 31 31 30 27 30 25 20 19 15 15 15 17 14 16 13 16 17 19 20 20 21 20 19 19 17 19 17 15 18 19 18 19 18 17 16 15 15 14 14 13 14 15 15 15 16 15
30 30 28 29 27 26 25 26 29 28 27 25 23 23 20 15 12 16 16 12 13 16 18 17 17 17 16 16 17 19 19 17 17 15 15 14 12 12 12 15 13 12 12 12 12 10 10 9 10 10 10 10 10 10
28 27 24 22 18 17 17 25 19 21 17 16 18 17 14 12 16 17 11 12 14 17 18 19 18 18 16 16 15 16 16 13 12 12 11 10 9 9 8 8 9 9 7 7 7 6 5 4 4 4 5 5 5 5
25 18 12 11 14 8 12 13 20 17 15 14 16 14 16 12 12 9 8 10 13 14 13 15 15 13 11 11 10 10 12 12 11 11 10 7 5 5 5 5 5 5 4 4 3 3 1 0 -1 1 -1 0 -0 0
17 16 11 6 9 8 5 6 8 12 8 12 11 13 9 10 4 3 6 9 10 9 11 12 11 10 9 9 9 10 10 8 6 4 6 7 6 5 4 4 4 4 4 3 1 1 0 -1 -1 -1 -1 -3 -2 -3
14 17 17 6 9 11 7 7 9 11 7 8 10 10 3 1 -2 2 8 8 8 9 8 8 9 8 7 8 6 7 8 8 5 4 4 4 3 2 1 -0 -0 1 1 -2 1 0 -0 -1 -2 -3 -2 -2 -8 -6
14 11 18 18 16 13 10 6 9 7 6 11 4 -3 -4 -8 -5 6 12 11 9 7 7 6 7 7 7 6 6 6 6 5 5 3 4 3 2 1 0 -2 -2 -1 -1 -3 -3 -4 -3 -4 -4 -4 -5 -4 -4 -6
19 12 5 5 8 9 6 -0 1 4 6 12 1 -8 -11 -9 -1 5 9 10 9 7 5 5 4 4 3 3 3 3 4 3 2 1 0 -0 -1 -2 -4 -5 -6 -2 -6 -7 -4 -5 -2 -4 -3 -4 -5 -6 -7 -6
8 3 8 1 3 5 8 3 3 7 9 0 -7 -6 -2 3 4 4 8 10 9 6 1 -0 -0 -3 -2 -1 -4 -5 -4 -3 -4 -8 -8 -7 -7 -3 -4 -6 -7 -7 -10 -8 -5 0 2 -1 -3 -7 -10 -11 -11 -12
5 5 7 -2 -1 1 -4 -2 -5 -7 2 1 5 3 1 2 5 7 5 4 3 -3 -6 -7 -9 -5 -7 -5 -6 -4 -7 -10 -8 -6 -8 -8 -6 -5 -8 -9 -8 -9 -13 -11 -10 -9 -7 -10 -8 -10 -13 -13 -13 -12
2 2 5 6 6 -1 -3 -9 -13 -8 -8 -8 -10 -9 -7 -2 2 3 2 -2 -5 -8 -3 -5 -6 -12 -7 -8 -8 -9 -7 -8 -16 -12 -11 -10 -9 -10 -9 -10 -11 -13 -14 -14 -14 -14 -14 -12 -14 -15 -14 -15 -17 -17
-2 -3 4 2 4 5 2 -3 -10 -7 -10 -9 -9 -16 -11 -11 -13 -5 -3 -8 -6 -5 -10 -12 -10 -6 -11 -12 -16 -14 -16 -11 -11 -11 -13 -10 -7 -8 -10 -11 -15 -15 -13 -13 -15 -16 -17 -15 -14 -15 -16 -17 -18 -19
-8 -9 -6 -0 3 2 3 1 -1 -4 -7 -8 -8 -12 -16 -11 -11 -6 -4 -13 -7 -7 -10 -10 -10 -13 -15 -16 -12 -12 -12 -12 -15 -12 -7 -6 -13 -8 -10 -13 -14 -15 -14 -13 -14 -16 -15 -16 -15 -16 -17 -19 -20 -20

GFSWCAN_sfc_dewp_030.txt.gz
Dewpoint
45 45 45 44 44 44 46 45 44 45 45 44 44 45 46 46 45 41 41 47 41 37 39 40 39 36 32 32 34 35 37 39 39 36 36 35 37 36 30 29 35 34 35 37 35 36 33 32 29 30 34 37 35 36
45 45 45 45 44 45 45 45 45 45 45 44 45 46 46 46 46 42 40 45 46 40 41 41 41 42 42 34 34 41 33 34 36 35 38 38 40 39 33 34 36 34 36 35 34 33 37 34 34 35 37 34 36 37
44 44 44 45 45 45 45 45 44 45 45 45 46 45 46 46 45 43 43 43 41 38 36 39 38 42 43 44 43 35 37 37 38 39 43 44 42 42 39 35 33 36 36 37 35 32 35 36 34 35 34 35 34 35
44 45 44 44 45 45 45 45 44 44 44 45 46 45 45 45 43 43 41 41 38 37 34 33 45 44 43 45 44 43 39 41 44 43 43 43 42 39 41 38 37 35 36 35 36 35 35 37 36 35 35 36 35 36
44 44 45 45 45 45 45 45 45 45 46 46 46 46 47 44 43 44 42 42 39 36 35 34 37 40 44 44 45 44 44 44 46 44 43 40 43 41 42 40 39 35 35 37 37 35 36 33 36 38 37 37 36 37
43 44 44 44 45 45 46 46 45 45 45 46 46 46 45 44 43 43 37 41 42 43 39 33 41 42 45 46 45 44 43 43 45 42 45 41 42 42 41 37 31 36 36 37 35 36 38 38 38 39 37 37 37 37
43 43 44 44 44 45 45 45 45 45 45 45 45 45 44 43 42 38 35 39 43 42 38 35 36 41 46 47 48 46 46 44 43 43 44 43 44 41 43 38 31 35 37 39 39 39 37 37 36 38 37 37 38 36
43 42 43 43 43 44 44 44 44 44 44 44 45 44 43 42 41 39 46 44 43 40 39 35 35 39 46 44 42 47 46 46 45 43 45 43 43 43 40 37 36 37 38 39 39 38 38 38 37 36 36 35 35 34
43 43 42 42 42 43 43 43 43 43 43 43 43 43 43 40 37 39 45 43 45 41 37 35 35 35 46 43 43 43 44 39 44 43 43 44 43 39 39 37 37 39 39 38 37 37 37 36 35 35 35 35 34 34
43 43 43 43 43 43 43 43 43 43 43 43 41 38 37 40 45 44 41 38 38 40 41 37 41 39 44 41 39 38 38 37 36 43 44 42 40 39 38 39 40 39 38 38 37 36 36 35 35 35 35 35 34 34
44 43 43 43 43 43 43 43 43 42 40 39 38 38 43 46 44 40 35 35 36 34 38 37 40 39 45 40 40 40 36 36 39 41 41 39 39 37 37 39 38 38 38 38 38 37 37 37 35 35 35 35 35 34
45 45 43 43 43 43 44 44 42 42 42 42 43 44 44 40 36 33 32 32 33 32 38 38 39 40 39 44 40 39 37 37 34 38 38 36 34 36 37 37 39 39 38 37 37 36 36 35 35 35 35 33 33 32
45 44 44 43 43 44 43 43 44 45 44 45 40 38 37 35 31 30 29 32 33 35 35 37 37 43 41 39 37 38 35 35 36 34 30 30 34 35 35 35 35 35 35 34 34 34 33 32 32 31 30 30 29 29
45 44 43 43 43 43 43 44 44 44 42 37 36 30 32 30 31 32 32 34 34 33 34 36 36 35 34 34 33 33 33 35 33 29 27 30 32 33 33 34 32 31 31 31 31 30 29 29 29 30 30 30 30 30
44 44 44 44 43 43 43 43 42 42 37 33 32 26 29 32 30 32 32 33 33 34 34 35 35 36 33 33 32 33 32 27 26 24 28 30 33 32 31 31 30 29 29 29 29 28 28 29 28 28 30 29 28 27
43 43 44 45 45 44 43 41 41 39 35 30 25 23 26 27 25 26 27 28 33 32 35 35 33 32 30 30 27 24 23 19 23 25 28 32 31 31 30 30 30 30 29 28 28 28 27 27 26 25 26 26 26 25
43 43 43 43 43 42 41 39 37 33 31 28 25 26 24 24 23 25 26 27 31 34 31 29 24 23 26 22 19 21 20 22 25 25 28 30 29 29 29 29 29 29 28 27 27 26 26 27 26 24 22 22 22 21
42 43 43 42 41 40 39 36 33 29 23 25 23 24 24 24 23 25 26 28 32 28 25 23 22 18 17 17 17 20 23 26 25 24 24 25 25 26 27 26 27 27 26 26 26 26 25 24 22 22 22 22 21 21
43 43 43 43 42 38 34 34 29 22 24 25 23 25 23 23 24 25 26 26 26 25 22 18 16 14 15 17 18 21 23 25 23 22 22 23 24 25 25 25 24 24 23 23 22 21 21 22 23 23 23 22 21 22
43 43 41 39 41 36 33 32 32 26 24 24 23 21 20 19 21 24 24 23 18 16 15 13 14 16 17 19 21 20 22 27 24 20 19 20 22 21 21 21 21 22 20 19 19 20 19 18 18 19 20 20 20 19
39 37 36 35 33 32 31 32 31 28 27 27 29 22 19 21 20 19 19 17 18 14 14 17 18 19 21 21 21 20 19 19 19 20 18 16 18 18 18 18 18 17 16 16 16 15 15 15 15 16 18 18 18 17
33 31 33 31 29 29 27 28 30 31 27 27 25 22 20 19 18 17 15 14 12 16 18 18 18 18 16 17 17 19 19 18 18 16 16 16 14 14 14 16 14 14 13 13 12 12 10 8 11 11 12 13 12 12
30 30 28 28 26 28 23 28 26 23 22 23 25 19 18 17 16 14 13 12 14 18 20 18 17 17 16 18 17 16 16 14 13 13 13 11 11 12 10 9 10 10 9 7 7 8 8 6 7 9 10 10 11 10
26 24 21 22 23 20 24 23 22 21 23 22 19 17 17 17 15 12 9 10 15 16 16 17 17 15 14 14 12 13 13 12 12 13 12 9 8 7 7 7 8 8 8 6 7 8 7 8 6 7 7 7 6 6
23 21 23 20 22 20 20 21 20 21 20 20 18 17 16 17 12 9 8 12 13 14 15 15 14 14 14 13 12 10 10 9 8 7 9 8 10 8 7 5 5 5 7 8 8 7 7 6 6 5 4 4 2 2
18 20 20 21 21 20 20 18 18 18 18 17 16 14 16 12 7 7 8 14 13 13 14 15 15 13 10 10 10 9 8 8 7 6 4 5 5 8 6 5 5 4 5 6 5 5 4 3 3 1 2 1 -1 1
17 19 20 19 20 19 19 19 18 17 14 14 14 10 10 5 5 8 12 13 12 12 12 13 13 12 10 8 8 7 7 7 6 4 5 3 3 4 5 3 1 2 3 3 3 2 2 1 1 0 0 1 1 0
18 18 13 15 16 17 14 14 13 13 13 13 10 4 3 3 5 10 11 12 11 11 11 10 10 10 10 9 9 10 8 7 7 6 5 4 4 4 3 4 2 1 2 2 3 2 2 1 -0 -1 -2 -3 -2 -1
16 18 16 9 12 11 10 11 11 10 10 10 7 4 3 5 8 11 12 12 12 11 9 8 7 8 7 7 6 6 7 7 -3 -6 -4 0 2 3 3 3 3 3 3 2 -0 1 2 1 0 -2 -3 -3 -2 -2
16 18 14 9 7 8 9 9 9 9 8 9 7 4 3 6 8 11 12 12 12 11 10 9 8 10 7 8 6 4 4 3 2 2 1 -0 1 2 2 2 2 1 1 1 -1 -1 -2 -1 -1 -1 -3 -4 -3 -5
15 20 15 12 9 9 9 10 10 9 8 7 7 6 4 6 8 8 8 8 8 7 8 7 6 7 7 5 5 3 2 3 -1 -1 -1 2 3 3 2 1 1 1 0 -2 -2 -3 -4 -3 -3 -4 -5 -7 -8 -8
15 14 12 9 8 10 11 13 13 10 10 9 6 6 5 6 4 7 8 9 9 9 3 6 7 6 4 3 2 2 -7 1 2 0 -2 1 3 2 1 0 -0 -1 -2 -3 -3 -4 -5 -6 -5 -6 -6 -8 -9 -10
12 14 14 11 9 8 11 12 9 8 9 7 7 6 6 6 1 6 5 5 8 8 7 7 7 5 1 -0 1 2 -2 1 -3 -4 -4 -4 -5 -3 -1 1 -1 -2 -4 -4 -4 -5 -7 -7 -7 -8 -8 -10 -10 -10

GFSWCAN_sfc_dewp_033.txt.gz
Dewpoint
45 45 45 46 44 44 44 44 46 45 45 45 46 45 44 45 46 45 44 48 42 38 38 40 38 32 29 32 33 33 35 38 40 36 32 28 34 29 25 24 35 35 35 37 36 34 32 28 29 28 31 33 33 33
45 45 45 46 46 44 45 44 45 45 45 45 45 45 44 46 46 46 41 44 43 44 42 42 43 42 37 31 33 37 36 37 34 32 35 32 41 42 30 29 31 31 37 35 33 33 37 35 33 33 31 34 36 34
45 45 45 45 45 45 45 44 44 44 44 45 45 44 45 45 46 45 42 42 43 41 41 38 36 40 42 43 44 37 39 35 36 36 33 40 38 41 36 34 31 36 34 36 36 35 33 34 34 32 34 36 34 34
45 45 45 45 45 45 45 45 44 45 45 45 45 45 45 45 46 44 41 42 40 38 37 37 42 40 41 42 44 44 42 39 38 37 40 42 40 30 38 35 36 33 36 35 33 32 34 35 36 36 34 36 34 34
45 45 45 45 45 45 45 45 45 45 45 45 45 46 45 45 45 45 45 45 43 35 34 33 37 37 39 41 43 43 43 42 37 41 43 40 35 36 40 41 36 32 33 37 37 34 39 36 35 36 36 36 36 34
45 45 45 45 45 45 45 45 45 45 45 45 46 46 45 45 44 43 38 41 41 44 38 34 40 37 37 38 39 43 42 43 37 38 43 39 33 34 41 35 25 27 36 36 36 38 39 39 39 37 36 36 37 36
44 45 45 45 46 45 46 45 45 45 45 45 44 44 44 43 41 39 36 37 41 38 34 31 35 40 40 41 42 43 42 39 43 42 42 40 38 40 42 38 34 32 28 33 37 39 38 37 35 38 39 37 38 36
44 44 45 45 45 45 45 45 45 45 45 44 43 43 44 42 42 42 43 42 40 35 37 30 33 36 44 41 41 45 43 43 41 40 40 40 40 43 38 33 33 31 33 38 39 40 39 39 37 38 37 37 37 36
43 43 44 44 44 44 44 45 44 44 44 44 43 43 43 42 40 41 44 43 44 37 32 36 33 33 43 42 43 44 45 39 40 42 41 40 42 39 38 37 37 40 40 40 39 38 37 38 36 36 36 36 36 36
43 43 43 43 43 43 43 44 44 44 44 43 42 35 35 40 45 42 41 38 35 37 40 36 39 34 43 39 38 39 41 39 37 42 40 40 38 38 38 39 40 40 40 39 39 39 38 38 37 36 36 36 36 36
43 43 43 43 43 43 43 43 43 43 42 38 38 38 42 43 41 39 35 33 34 33 36 37 38 36 44 38 37 38 35 38 36 39 39 36 35 33 36 37 39 40 40 39 39 39 39 39 38 37 36 37 37 37
44 43 43 43 43 43 43 42 41 40 43 42 42 43 41 36 35 34 33 35 34 30 38 38 38 40 40 44 41 41 35 36 35 39 39 32 30 32 33 35 36 36 38 39 38 38 38 37 37 37 37 35 33 32
44 43 43 43 43 42 43 44 43 43 45 45 41 38 37 36 32 32 28 30 32 37 38 40 38 42 42 41 39 39 37 34 36 32 28 29 29 32 33 33 32 32 33 33 32 32 32 31 32 31 30 31 30 29
44 44 44 44 43 43 44 44 43 43 42 38 36 31 33 32 30 29 30 32 34 34 37 38 39 38 36 34 33 34 33 35 32 29 26 28 29 31 32 31 29 29 29 29 29 30 29 29 29 31 31 31 30 29
43 43 43 43 43 43 43 42 42 41 35 30 29 25 26 30 31 31 32 34 34 34 34 35 36 35 33 33 33 34 32 27 25 24 27 30 31 31 31 31 30 29 29 28 29 28 27 28 27 27 29 29 28 26
43 42 41 43 43 43 43 42 40 39 35 27 24 24 25 27 28 27 28 31 31 31 34 35 33 33 31 31 27 26 24 20 23 26 28 30 30 29 29 29 29 30 29 29 28 27 27 26 25 25 25 25 26 26
42 42 43 43 43 42 42 39 34 31 29 27 24 25 24 23 23 27 29 30 32 32 31 33 26 26 28 24 20 22 20 23 26 27 27 27 27 28 28 28 29 29 28 28 27 27 26 27 26 24 22 23 23 23
42 43 42 42 41 39 35 34 30 27 23 24 23 24 25 26 25 27 29 31 34 31 29 24 24 20 20 19 19 23 26 27 26 24 25 27 26 26 27 27 27 26 25 26 26 26 26 26 24 24 24 24 23 23
43 43 43 42 41 38 34 34 29 22 24 25 25 25 25 26 26 28 29 28 26 25 23 20 18 17 18 20 23 25 28 26 23 23 23 23 24 25 25 24 24 24 23 23 22 21 22 23 24 23 23 22 21 22
41 41 40 40 40 35 33 32 31 24 23 25 27 23 23 22 24 26 27 24 19 17 16 15 16 18 19 21 23 23 26 28 24 20 20 21 22 22 23 23 22 23 20 20 20 19 18 18 18 18 19 19 19 19
40 38 37 37 36 33 34 32 28 27 28 27 27 24 22 24 24 24 23 18 19 16 16 19 20 21 22 23 24 23 22 23 22 22 20 18 21 20 20 20 19 18 18 17 16 14 14 14 14 14 17 17 16 16
37 32 35 34 30 31 29 30 29 29 25 25 23 22 22 22 21 20 17 16 16 18 20 19 20 19 18 19 20 21 22 20 20 18 18 17 16 16 16 16 15 14 13 14 13 13 11 10 13 13 15 16 14 12
32 32 31 31 33 31 26 29 29 24 24 24 23 19 20 20 18 16 15 14 16 21 20 18 19 19 19 20 18 18 18 17 16 16 16 15 14 15 14 13 14 14 12 10 10 11 11 8 10 12 13 12 13 12
30 29 27 28 28 25 30 26 23 22 24 22 19 17 17 19 17 15 12 13 17 18 17 20 19 17 16 16 14 13 14 15 15 16 15 12 10 9 9 9 10 11 11 10 10 11 10 11 8 9 9 8 7 7
24 23 28 23 27 25 23 23 23 21 20 20 18 17 18 20 15 12 11 14 16 18 18 18 17 17 17 16 15 13 13 12 11 9 12 12 13 11 9 8 7 6 8 11 10 10 9 9 8 7 6 6 3 4
19 22 22 23 23 22 22 20 20 20 20 18 18 18 22 17 11 10 11 17 16 16 17 19 18 15 13 12 11 10 9 9 8 8 6 6 7 11 9 8 7 6 7 9 8 7 6 5 4 3 4 4 1 2
19 20 21 21 22 22 22 23 22 20 18 17 19 16 16 9 9 10 14 16 15 16 15 18 17 14 11 10 9 9 8 8 8 5 6 5 5 6 7 6 3 4 6 6 6 6 5 4 3 3 3 3 3 2
20 20 17 20 18 20 17 17 16 16 16 16 16 10 9 9 9 15 14 15 16 15 14 14 13 13 12 11 12 12 11 10 9 8 8 7 6 6 6 7 4 2 5 4 5 5 5 4 3 2 1 1 1 2
19 21 16 11 14 13 13 15 14 13 12 16 14 9 7 8 15 14 15 15 15 15 14 13 12 13 12 11 11 11 10 10 4 -7 -11 5 7 6 6 6 6 5 6 5 1 2 2 3 2 2 -0 2 2 3
19 24 15 11 10 10 13 15 13 13 12 13 10 7 7 10 12 16 16 15 15 15 14 13 13 14 12 12 10 7 8 7 6 6 5 4 4 5 6 5 4 5 5 4 3 2 -3 2 2 2 1 0 1 -1
22 22 15 13 11 14 15 16 16 15 14 14 14 12 9 10 12 12 12 13 13 13 12 11 11 12 11 9 9 7 6 7 2 2 3 5 6 6 5 3 5 4 4 3 2 2 0 -0 1 -0 -1 -3 -4 -4
20 17 14 11 12 15 17 17 17 15 15 14 12 12 11 12 8 10 13 14 13 12 8 11 11 10 8 8 7 6 0 5 5 3 -5 4 5 4 4 4 3 3 2 0 1 1 -1 -2 -1 -2 -2 -3 -4 -5
18 18 16 15 13 13 16 16 13 11 14 12 11 11 11 12 7 11 11 13 14 13 11 11 11 9 6 2 3 6 2 5 -2 -2 -4 -2 -3 -2 0 3 3 2 -0 -0 -0 -0 -2 -3 -3 -4 -5 -5 -5 -6

GFSWCAN_sfc_dewp_036.txt.gz
Dewpoint
44 45 45 45 45 46 46 45 45 45 46 46 46 46 46 46 46 45 42 46 44 40 40 40 39 36 33 31 31 31 34 37 39 33 34 31 33 27 21 21 35 33 36 37 37 32 30 35 28 28 34 40 38 36
44 45 45 45 46 46 44 45 45 44 46 45 45 45 45 46 45 44 42 47 48 44 42 42 43 41 41 35 32 35 34 38 40 36 36 35 40 40 32 30 32 32 36 38 37 37 40 37 34 37 40 40 39 40
45 46 46 45 46 45 45 46 46 45 45 45 45 45 46 46 45 45 44 45 46 42 42 41 38 41 42 43 41 38 37 39 39 43 38 40 37 41 37 33 32 35 34 35 34 37 39 41 39 36 35 38 35 35
46 45 46 45 46 45 45 45 45 45 45 45 46 45 45 45 45 46 45 47 45 40 37 39 43 41 40 42 46 45 45 44 42 43 40 42 40 36 38 33 35 31 39 34 34 34 35 33 35 39 39 39 39 37
45 45 45 46 46 45 45 45 45 45 46 46 45 45 45 45 46 47 47 48 44 37 34 37 37 36 37 39 39 42 46 45 45 41 43 39 38 40 42 37 36 29 29 33 34 36 41 39 37 42 41 39 38 39
45 45 45 45 45 45 45 45 45 45 44 44 45 45 45 45 46 45 39 46 46 46 39 34 37 35 35 37 37 39 44 45 46 43 41 37 36 36 41 34 31 28 30 32 35 40 42 43 40 41 40 40 40 41
46 46 45 45 45 45 45 45 45 46 45 44 45 46 46 45 44 40 39 41 44 47 37 32 33 39 37 36 37 39 41 45 45 43 41 39 39 36 40 35 33 33 34 35 39 38 39 41 40 40 40 39 40 38
45 46 46 46 45 45 45 44 45 45 44 45 45 45 44 45 44 40 41 43 44 38 34 31 32 35 41 38 38 41 41 43 41 41 41 41 40 42 38 36 37 37 37 35 39 41 41 41 40 38 38 39 39 39
44 45 44 45 45 45 45 44 44 45 45 45 44 44 45 44 41 39 42 42 49 40 32 33 31 30 39 40 42 42 44 39 39 41 40 40 40 37 36 37 39 40 40 39 40 40 39 38 38 38 37 37 38 39
44 44 44 44 44 44 44 43 44 44 44 43 41 38 37 41 43 41 37 35 35 36 38 34 37 33 37 37 40 41 42 38 34 39 38 39 36 32 32 34 37 37 39 40 39 39 39 40 40 39 37 38 38 39
44 44 44 44 43 43 43 43 42 42 44 42 39 37 42 43 41 39 32 30 30 31 35 34 35 33 37 34 36 40 35 38 35 37 37 36 31 29 30 32 35 34 37 37 38 39 38 39 40 39 38 37 35 34
44 44 44 44 43 44 43 43 43 44 43 42 40 40 41 38 35 33 31 34 32 30 37 37 37 37 34 43 37 37 35 35 33 41 36 26 29 30 29 30 30 32 33 33 33 33 33 34 34 33 32 31 31 30
43 43 43 42 43 43 43 43 43 43 45 44 40 36 35 35 31 30 26 29 33 33 36 37 34 38 39 41 36 37 32 32 35 32 26 26 28 29 29 28 28 29 30 30 29 30 30 29 30 29 28 28 28 27
43 43 43 43 43 43 43 43 42 42 43 37 35 30 31 28 27 27 28 30 33 33 32 34 37 35 35 33 33 32 32 33 30 26 22 26 28 30 30 30 28 28 28 27 27 27 27 26 26 26 27 27 26 25
43 43 43 43 43 42 42 42 41 38 33 29 28 23 24 29 30 30 32 33 32 33 33 35 35 35 33 32 33 33 31 21 22 21 24 27 29 28 28 28 28 27 27 26 26 25 25 25 25 25 26 26 25 24
42 41 41 43 43 42 42 40 37 36 31 24 22 24 24 26 25 27 28 30 32 30 33 35 33 32 29 29 24 24 19 18 21 24 26 28 27 27 28 28 27 28 27 27 26 26 25 24 23 23 24 24 24 23
41 39 43 42 40 39 38 37 33 28 26 26 24 26 26 24 25 28 30 29 33 32 31 30 25 26 27 21 18 21 19 22 24 25 25 26 26 26 26 26 26 27 26 26 26 26 26 26 25 23 22 23 23 23
41 42 42 41 41 39 33 33 30 27 21 24 22 24 26 27 26 28 29 31 32 30 27 26 27 19 19 18 18 24 23 25 24 22 24 25 25 25 26 25 25 25 24 24 25 25 26 25 24 24 24 24 24 24
42 43 42 42 42 37 32 33 29 22 24 27 26 26 27 27 27 30 30 31 27 27 26 23 18 16 17 22 24 26 25 24 21 21 22 23 25 25 24 24 24 23 23 23 22 21 21 22 22 23 23 21 20 22
40 40 40 39 39 34 32 32 32 27 24 26 28 25 24 24 27 25 26 26 23 20 17 15 15 18 19 21 24 26 26 26 23 20 20 22 23 22 23 23 23 22 20 18 18 19 17 17 18 18 17 17 18 16
40 39 37 37 35 34 35 31 29 28 29 28 27 26 24 23 20 20 20 18 19 17 16 19 19 22 23 24 24 23 24 24 23 22 19 18 21 19 18 19 18 17 17 16 14 13 15 14 14 16 17 16 15 16
36 35 37 35 30 31 31 33 30 31 26 26 24 24 22 22 21 19 18 17 16 19 20 20 21 19 19 21 22 22 22 22 22 21 19 18 17 17 17 17 16 15 15 15 13 13 12 10 14 14 14 16 15 12
32 33 33 34 33 32 27 30 28 24 23 22 22 19 20 20 19 17 15 15 19 22 20 19 21 20 20 20 20 20 20 18 17 17 18 17 16 17 15 14 15 15 13 11 10 11 12 9 10 13 12 11 12 12
32 32 30 30 30 26 31 26 23 21 23 20 18 16 17 19 18 15 12 15 19 19 20 23 21 17 16 15 14 15 16 15 16 18 16 12 10 9 8 8 8 10 12 10 11 11 10 12 9 9 9 7 7 8
25 23 28 24 30 26 22 22 22 20 19 19 16 17 19 20 15 13 12 16 17 20 21 20 20 18 17 16 15 12 14 11 10 9 13 13 15 13 11 8 6 6 9 11 10 9 8 9 8 7 6 6 3 4
19 22 22 23 23 22 21 20 20 19 19 17 18 19 21 17 12 12 14 18 17 18 20 21 18 14 12 11 10 10 10 10 9 8 6 6 7 11 10 7 6 5 8 9 7 7 5 5 5 4 4 4 1 3
19 20 21 23 23 22 23 23 21 20 18 18 18 17 16 11 9 12 16 18 15 18 18 19 17 14 12 10 10 10 9 9 8 6 6 6 6 6 7 5 2 3 7 6 7 6 5 4 4 4 3 3 3 3
20 21 18 20 19 21 17 17 16 15 16 17 16 11 10 11 11 16 15 17 18 16 15 15 15 14 13 13 14 14 13 12 11 10 10 8 7 7 7 8 5 4 6 5 4 4 4 4 3 3 2 1 3 4
20 19 16 13 13 13 14 15 13 12 13 19 14 9 8 12 15 15 17 17 17 16 15 13 13 14 13 12 12 11 10 10 7 3 2 5 7 7 6 6 6 6 6 6 6 6 3 3 3 1 1 1 3 4
20 22 14 12 10 9 13 15 14 17 14 12 10 8 8 11 17 17 17 18 17 16 16 15 15 16 13 14 10 8 9 7 6 6 5 5 5 5 6 6 5 6 6 5 4 3 6 3 4 5 4 3 2 1
22 20 14 12 10 13 15 18 18 17 17 17 16 12 8 10 12 14 15 15 15 14 14 12 12 13 11 10 10 7 8 7 3 3 3 5 5 7 6 4 6 5 4 4 3 3 2 1 1 1 1 0 -1 -1
21 17 13 10 11 16 20 21 18 17 17 14 13 12 14 13 9 11 14 15 14 14 9 13 12 10 10 8 7 5 1 5 5 4 2 4 5 5 4 3 5 5 4 2 1 2 2 0 -0 -1 -1 -1 -2 -3
20 19 17 15 15 15 17 17 14 13 14 12 12 13 13 13 9 11 12 15 16 15 12 13 12 10 6 6 6 5 -0 6 1 1 1 0 -4 -1 -2 1 3 3 0 -0 -0 0 -0 -1 -1 -2 -3 -4 -3 -3

GFSWCAN_sfc_dewp_039.txt.gz
Dewpoint
44 44 44 44 45 45 46 46 46 46 46 46 46 46 46 45 45 45 42 44 41 37 40 39 38 33 31 31 30 31 33 34 33 28 29 29 29 32 29 30 31 31 31 32 34 29 27 37 32 28 31 34 33 33
44 44 45 45 46 46 46 45 45 46 46 45 45 45 46 46 46 45 41 43 43 41 40 42 42 42 35 32 32 34 31 33 35 31 31 32 27 30 25 22 35 32 33 33 36 35 39 36 39 41 41 39 38 34
45 45 46 46 46 46 45 45 46 46 45 45 44 45 45 46 46 45 42 43 42 38 40 39 39 43 44 42 44 40 36 39 40 41 37 35 27 30 25 29 33 34 38 35 32 33 36 35 40 41 46 43 42 36
45 45 45 45 46 45 45 45 45 45 45 45 46 46 46 46 46 45 42 43 43 40 34 37 43 41 44 44 45 45 42 44 42 41 36 35 31 34 29 31 32 36 37 36 35 35 36 36 42 45 46 45 44 42
45 45 45 45 45 45 45 45 45 44 45 45 45 46 46 45 46 44 45 44 47 40 35 38 40 41 42 42 44 44 43 44 41 39 36 34 36 36 36 35 31 33 35 35 34 37 38 37 42 43 40 47 45 43
45 45 45 45 45 45 45 45 45 45 45 45 45 46 46 46 45 44 37 45 47 47 39 33 39 38 37 39 43 43 44 44 44 38 36 38 38 37 30 30 33 31 32 33 34 37 34 34 38 41 41 42 42 41
45 45 45 45 45 45 45 45 45 45 45 45 45 45 45 45 45 41 38 42 45 46 37 29 30 39 41 38 38 40 43 42 43 42 39 38 37 38 29 29 39 40 41 38 41 41 39 40 39 40 40 39 41 39
45 45 45 45 45 45 45 44 44 45 45 45 45 46 46 46 45 40 43 44 45 38 36 27 28 32 40 34 34 40 38 41 42 40 41 38 38 38 32 35 36 37 39 40 40 41 40 40 39 39 38 38 38 38
45 45 44 44 45 45 45 44 45 45 45 45 45 45 45 43 40 38 44 45 45 39 30 28 29 26 38 36 37 37 39 32 40 36 38 40 34 29 32 32 34 35 36 37 39 40 39 39 40 38 38 38 39 39
44 45 44 44 44 44 44 44 45 44 44 44 43 40 36 41 43 42 39 36 35 37 36 29 33 30 37 33 31 31 30 32 29 34 39 34 30 34 33 33 32 33 36 36 36 35 36 36 39 35 34 33 31 30
44 44 44 44 44 44 44 44 44 43 44 42 38 37 40 43 40 37 30 29 31 27 33 32 32 33 38 32 34 32 29 30 26 31 31 30 24 28 27 30 32 31 34 35 35 34 34 34 34 33 31 29 28 27
45 44 44 44 44 44 44 44 44 44 42 42 40 41 40 36 34 28 26 29 27 27 32 32 33 36 35 38 35 35 32 32 28 33 28 22 25 28 28 28 28 29 30 30 31 31 31 30 30 29 27 26 26 25
44 43 43 43 44 44 43 43 43 44 44 43 39 34 36 32 28 21 23 26 29 31 32 34 33 32 34 37 34 32 32 31 34 28 22 22 25 27 27 27 26 27 27 26 26 26 25 25 26 26 25 25 25 24
43 43 43 43 42 42 43 42 42 42 40 34 31 21 26 21 24 24 25 27 31 31 31 32 32 32 32 32 32 31 30 31 25 20 17 22 25 27 27 27 25 24 25 24 24 25 24 24 23 24 23 24 23 22
42 42 42 43 42 43 40 41 40 35 30 25 23 20 21 27 27 28 29 31 31 32 30 32 32 33 32 30 31 31 26 18 19 15 21 24 26 26 25 26 25 24 23 23 23 22 22 22 21 22 23 24 23 23
42 42 42 40 40 40 40 37 35 35 29 21 19 17 19 18 17 25 26 27 31 31 31 33 31 29 26 25 20 20 17 14 17 20 24 24 23 23 24 25 25 25 24 23 23 23 22 22 21 21 22 22 22 22
42 40 42 40 40 37 39 37 32 28 25 22 18 17 17 18 21 26 27 27 31 31 28 29 21 21 27 20 17 20 15 17 20 21 22 23 23 23 23 23 23 23 23 24 24 23 23 23 21 20 20 21 22 22
40 41 42 42 43 41 35 34 29 24 21 24 19 23 24 23 23 26 28 27 29 29 27 23 23 17 15 14 16 18 18 20 20 22 22 22 22 22 23 22 22 22 21 21 20 19 20 20 20 20 22 22 20 19
42 41 40 40 40 37 33 33 30 22 24 25 22 22 25 23 24 25 26 26 24 23 24 19 14 14 15 18 20 20 20 20 18 20 20 22 23 22 22 21 19 19 19 19 19 18 18 18 17 17 18 16 15 18
40 40 39 39 40 35 31 31 32 26 24 24 24 21 21 21 23 21 20 22 19 17 15 13 14 17 18 19 24 23 23 23 20 17 17 19 20 19 19 19 18 17 15 15 15 15 14 15 15 12 12 13 13 12
39 39 39 38 36 36 33 32 30 29 28 26 26 25 22 20 17 16 16 16 15 16 14 17 17 20 22 22 22 21 21 21 20 19 18 17 20 18 17 16 15 14 12 11 10 9 10 12 11 14 11 5 5 9
36 36 36 36 31 31 30 31 31 31 28 26 25 26 22 19 17 16 16 14 15 16 18 18 19 20 20 20 21 21 21 20 19 18 17 16 14 14 15 14 12 11 12 11 9 6 7 8 11 9 6 9 7 5
35 35 33 32 25 23 22 30 22 25 19 21 22 18 17 15 18 19 12 16 18 20 20 20 21 21 20 20 19 20 19 17 15 14 13 13 12 11 10 10 11 9 9 9 10 9 6 6 6 1 0 1 -0 -1
34 30 25 23 23 18 23 20 25 23 20 18 15 12 16 18 18 13 11 15 18 22 22 21 17 15 14 13 13 14 15 14 13 14 14 11 8 8 8 7 7 8 11 11 8 3 3 -4 -1 -0 -6 -8 -7 -12
18 17 22 17 23 17 15 15 16 17 12 15 12 16 15 19 12 11 10 14 17 18 18 19 18 16 12 11 12 12 13 11 8 6 8 10 14 9 7 6 6 7 7 2 4 -5 -8 -7 -6 -5 -6 -14 -9 -7
12 18 19 19 18 16 18 12 11 12 12 13 14 18 16 8 3 7 13 12 12 13 18 14 8 9 9 10 8 8 9 11 8 5 6 7 6 1 0 1 -0 0 4 1 -6 -2 -7 -7 -10 -9 -12 -3 -9 -13
13 17 23 24 25 23 18 18 19 14 10 9 12 10 5 -2 0 10 15 14 11 15 17 17 14 12 10 10 10 10 9 9 7 6 7 7 7 5 -0 -8 -10 -3 2 -6 -9 -9 -6 -8 -10 -9 -12 -15 -13 -14
20 18 13 16 14 17 10 11 9 9 8 15 12 0 -1 1 4 13 12 15 13 13 12 12 12 12 12 11 12 11 9 7 3 7 7 7 4 -0 -0 0 1 6 -1 -4 -8 -12 -12 -14 -14 -14 -15 -16 -13 -13
17 18 14 6 8 10 11 10 8 11 13 15 3 2 4 13 10 12 13 15 14 13 5 4 4 3 3 5 4 2 1 1 -5 -10 -11 -6 -4 -4 -5 -5 -6 -4 -8 -6 3 2 -6 -8 -10 -11 -12 -14 -13 -8
16 17 9 4 2 5 11 13 14 11 11 8 10 9 10 12 14 13 14 17 15 11 7 6 12 9 8 6 -5 -6 -6 -9 -8 -9 -10 -9 -7 -9 -4 -10 -10 -7 -10 -10 -9 -9 1 -9 -7 -10 -9 -9 -10 -16
21 16 9 9 7 8 7 9 13 13 11 9 6 3 2 3 7 12 11 6 4 2 2 -0 2 5 2 -4 -5 -5 -8 -8 -12 -11 -11 -10 -7 -1 -9 -11 -6 -10 -11 -9 -14 -14 -14 -14 -15 -16 -15 -14 -13 -12
17 10 5 3 8 14 15 17 12 9 9 2 -0 1 4 4 -1 2 6 9 10 5 2 8 4 -3 -6 -6 -10 -12 -7 -6 -4 -10 -11 -12 -13 -15 -14 -12 -12 -3 -7 -14 -14 -13 -13 -12 -14 -14 -14 -15 -18 -18
14 12 9 8 7 8 13 13 9 11 11 5 1 5 2 3 -2 2 3 7 11 10 7 4 -1 -6 -6 -6 -6 -10 -7 -11 -9 1 -5 -7 -11 -10 -17 -17 -16 -17 -17 -17 -17 -16 -10 -8 -10 -9 -10 -15 -17 -17

GFSWCAN_sfc_dewp_042.txt.gz
Dewpoint
43 43 44 44 44 44 44 45 45 45 45 46 46 46 46 46 46 45 42 44 40 35 37 40 38 33 32 31 28 30 31 34 34 29 28 26 25 29 27 30 31 29 29 29 31 29 27 39 37 33 38 42 43 42
44 44 44 44 45 45 46 46 46 46 46 46 46 46 46 46 46 45 41 44 44 39 39 43 42 41 37 32 31 33 31 32 35 33 31 29 25 24 27 24 34 29 32 31 32 30 39 41 41 40 43 44 44 42
44 44 45 45 45 45 46 46 45 46 45 45 46 45 46 46 46 46 42 43 42 38 35 36 39 41 44 44 35 34 36 37 40 41 36 33 26 29 23 25 24 30 36 35 36 34 36 38 39 43 41 43 44 43
45 45 45 45 45 45 45 45 45 46 46 46 46 46 46 46 46 46 42 43 40 38 33 33 40 41 44 44 44 41 39 44 41 39 36 34 28 32 26 27 29 34 37 35 35 34 36 36 38 41 38 44 44 42
46 45 45 45 45 45 45 45 45 45 46 45 45 45 46 47 47 45 44 43 42 36 30 35 40 42 43 43 43 45 43 40 40 38 33 31 35 33 34 35 29 37 36 35 32 33 31 32 36 39 38 42 44 43
45 44 44 45 45 45 45 44 45 44 45 45 45 45 45 45 46 43 38 43 42 45 39 32 40 41 43 42 42 42 43 42 41 40 34 37 37 32 29 30 38 38 38 40 38 40 39 39 36 41 40 40 45 44
45 44 45 45 45 45 45 45 45 45 45 45 46 46 46 45 44 39 36 41 45 46 40 34 35 40 41 42 42 43 44 44 40 40 39 36 36 36 28 29 35 36 36 40 38 40 40 39 38 39 39 38 40 40
45 45 45 45 45 45 45 44 45 45 45 45 45 45 45 45 45 42 44 44 44 42 38 30 31 35 39 33 35 42 38 39 41 39 39 37 38 38 30 32 32 34 35 37 36 38 39 40 38 38 39 40 37 35
44 45 45 45 44 45 45 44 44 45 45 45 44 45 44 43 40 41 45 45 46 40 29 27 25 29 37 35 35 36 38 31 39 35 35 38 31 24 28 29 30 31 33 35 36 36 36 35 34 33 33 32 30 28
44 44 45 44 45 44 44 44 44 45 45 45 43 39 35 41 45 44 41 36 35 37 35 28 30 29 36 33 32 31 31 31 30 33 39 31 26 29 29 30 30 31 34 35 35 33 34 34 32 30 29 28 27 26
45 44 44 44 44 44 44 44 44 45 45 40 37 36 40 43 40 36 31 29 31 28 31 31 29 32 36 29 33 29 28 29 26 29 30 26 21 25 27 26 27 29 31 32 34 33 33 31 30 28 27 26 25 24
44 44 44 44 44 44 44 44 44 42 40 40 38 40 38 36 31 27 26 27 27 29 32 28 30 34 35 37 34 34 28 31 26 31 25 18 22 26 25 25 25 26 26 26 26 26 27 26 27 25 24 24 24 23
44 44 44 44 44 43 43 42 43 43 44 42 36 33 31 26 17 18 21 27 28 30 31 33 33 33 35 35 33 32 29 29 33 23 16 19 23 23 24 24 23 24 24 24 24 24 23 22 23 23 22 23 22 22
43 43 43 43 42 42 41 40 41 38 36 29 24 15 17 15 20 21 23 25 30 30 29 30 32 32 32 31 32 29 28 27 20 14 13 20 22 24 24 24 21 22 22 22 22 22 22 22 22 22 22 22 21 20
43 42 39 40 41 38 37 39 36 32 27 22 21 14 16 23 23 24 26 28 30 32 30 31 32 33 30 27 26 26 19 14 15 12 17 21 24 24 23 23 23 22 22 21 22 21 21 21 21 21 22 22 21 21
42 41 40 40 39 41 37 34 32 32 26 20 19 14 17 14 17 19 23 26 30 30 31 32 30 27 22 22 17 17 13 11 14 18 21 22 21 21 22 23 23 23 23 22 22 22 21 20 20 20 20 20 20 19
42 40 42 43 38 36 37 34 29 24 20 16 15 13 13 13 18 23 26 25 29 30 27 26 18 19 24 19 13 15 12 15 17 18 20 21 20 20 21 20 20 20 19 19 20 21 21 21 19 18 17 18 19 18
40 41 42 42 42 38 33 33 27 23 18 19 15 20 19 20 18 21 25 25 27 28 25 21 22 15 14 13 11 15 17 19 20 20 19 19 19 18 19 19 19 19 19 18 18 17 17 17 16 16 18 18 17 16
41 41 42 42 40 36 30 30 27 20 20 19 20 20 19 20 22 22 23 23 22 22 21 17 11 11 12 16 15 17 18 17 16 17 18 20 20 19 18 18 17 17 17 17 16 14 13 14 14 14 14 14 14 15
41 40 40 41 40 33 28 28 29 24 21 21 20 18 18 19 18 18 18 18 16 16 13 11 12 14 17 19 19 19 20 20 17 15 15 17 18 17 17 16 14 13 11 11 12 12 11 11 9 9 10 10 8 9
38 37 38 37 36 35 32 29 28 27 26 22 23 20 18 16 14 13 14 14 13 14 13 16 16 18 20 20 20 20 20 19 18 16 15 14 16 15 13 13 11 10 9 7 7 8 8 8 9 9 4 -3 -0 5
33 36 33 35 30 29 29 30 29 29 26 25 25 24 20 14 12 13 14 12 14 16 17 17 18 18 18 18 19 19 19 18 17 15 14 14 12 11 11 10 9 8 7 5 5 -1 2 5 4 4 1 -1 1 0
34 34 29 27 23 20 21 28 24 27 20 20 21 17 15 12 16 18 12 16 17 19 18 17 18 19 18 19 18 17 16 14 12 10 9 8 8 4 7 8 8 5 6 8 7 4 2 -1 -3 -8 -7 -5 -8 -6
31 27 24 19 19 17 17 16 23 20 18 17 15 14 16 13 16 11 11 14 18 20 17 16 14 12 12 12 12 12 12 11 10 9 9 7 6 6 6 6 6 7 6 6 2 -3 -4 -11 -8 -8 -13 -10 -15 -17
17 17 17 12 17 13 10 9 10 13 8 10 8 8 9 14 5 3 6 10 11 12 12 14 13 11 7 5 7 9 10 9 7 6 8 10 6 5 4 4 4 5 4 -3 -9 -14 -16 -16 -16 -16 -15 -18 -13 -19
11 17 18 15 13 15 13 8 6 7 8 9 10 12 8 2 -2 1 9 5 8 5 4 -2 6 7 8 9 6 7 9 8 6 4 6 6 5 -5 -7 -9 -9 -5 -2 -12 -10 -12 -10 -14 -17 -15 -16 -13 -15 -18
10 16 21 20 20 18 12 12 15 10 9 7 8 6 -2 -10 -7 6 12 10 10 7 11 8 10 9 8 8 8 8 8 7 6 6 6 4 3 1 -7 -12 -11 -3 -7 -12 -16 -16 -17 -17 -16 -17 -19 -22 -21 -18
15 12 5 6 7 11 2 2 2 2 4 13 5 -5 -8 -7 0 8 7 9 8 11 10 10 10 10 8 7 6 2 2 2 4 4 5 3 0 -7 -7 -6 -3 3 -7 -9 -14 -19 -18 -20 -19 -20 -21 -20 -19 -18
9 9 8 -1 1 3 6 1 3 10 11 8 -6 -4 3 9 3 8 9 9 8 8 2 3 -3 -2 -0 -0 -4 -7 -10 -0 -3 -11 -13 -14 -10 -6 -10 -15 -12 -15 -17 -12 -1 -3 -4 -9 -16 -17 -14 -13 -10 -13
9 8 3 -4 -3 1 6 2 -3 -3 7 4 9 9 7 8 13 10 12 12 3 -4 -6 -3 -1 -2 -8 -10 -15 -10 -14 -21 -18 -12 -15 -16 -11 -9 -16 -18 -16 -17 -21 -18 -18 -16 -4 -13 -12 -18 -19 -18 -19 -18
12 5 3 2 2 3 -1 -3 6 4 -1 -3 -7 -3 -3 1 4 10 8 2 0 -3 -0 -3 -5 -14 -6 -12 -16 -19 -16 -14 -21 -18 -13 -12 -15 -19 -20 -21 -22 -19 -14 -16 -22 -22 -21 -18 -18 -21 -22 -21 -22 -23
4 -4 -4 -0 3 6 5 2 -5 -7 -10 -9 -10 -14 -7 -8 -9 -4 5 -1 1 -2 -6 -9 -7 -10 -16 -19 -21 -21 -12 -14 -18 -18 -18 -21 -23 -24 -24 -22 -21 -21 -22 -23 -25 -24 -23 -20 -19 -17 -18 -18 -19 -21
4 4 -3 -1 1 -1 2 4 0 2 -3 -9 -3 -3 -4 -6 -8 -1 4 -0 -2 -1 -5 -11 -15 -17 -13 -13 -15 -17 -14 -18 -17 -4 -10 -10 -15 -14 -24 -26 -27 -27 -24 -25 -26 -26 -22 -23 -25 -27 -28 -28 -28 -29

GFSWCAN_sfc_dewp_048.txt.gz
Dewpoint
40 41 41 41 42 43 43 44 43 44 44 44 44 45 45 45 45 45 43 45 41 34 37 39 37 36 37 35 31 32 32 34 34 30 28 27 24 27 25 29 30 28 26 27 29 27 21 31 38 30 32 38 38 37
41 41 42 43 43 43 44 44 44 44 44 44 45 44 44 44 44 44 40 45 45 38 38 40 40 39 37 35 32 32 30 33 32 30 29 28 23 22 26 23 32 27 28 27 28 27 32 38 39 41 40 38 39 40
41 41 42 42 43 43 43 43 44 45 45 45 45 45 45 45 45 44 41 43 42 37 37 38 36 37 42 43 41 34 34 35 36 36 32 30 24 26 22 24 28 31 32 30 30 29 32 32 34 36 40 41 42 39
43 43 43 43 43 43 43 45 45 45 46 46 46 45 45 45 45 45 42 44 40 38 32 32 37 36 40 41 41 41 36 41 40 40 34 29 26 30 25 27 27 28 31 30 29 29 35 32 37 41 40 41 41 41
43 43 43 45 45 45 45 45 45 45 45 46 46 46 46 46 46 46 45 44 40 34 30 29 37 37 36 41 40 41 40 39 39 36 34 29 31 31 31 30 27 34 33 30 28 37 37 38 40 37 39 39 40 42
44 43 43 44 44 44 45 45 44 45 45 46 46 46 46 46 46 44 35 43 42 41 35 27 34 37 37 36 37 40 41 41 39 38 35 34 36 34 27 25 35 36 35 36 36 36 37 37 39 35 34 34 34 34
44 45 45 45 45 45 45 44 44 44 45 45 45 46 46 45 45 39 36 41 43 43 36 29 27 36 39 39 39 40 41 40 40 37 36 35 35 37 27 26 32 32 33 34 36 36 37 37 35 32 31 31 31 27
45 45 45 45 45 45 45 45 45 45 45 46 45 45 45 45 45 42 43 44 43 40 38 26 32 35 39 34 36 40 38 40 40 36 38 36 37 34 30 26 27 27 28 32 33 34 36 34 31 29 29 27 26 24
45 44 44 45 45 45 44 45 44 45 46 46 45 45 43 42 39 41 44 43 44 39 31 31 29 29 38 37 37 38 38 32 38 34 34 35 27 18 22 24 24 26 26 29 30 33 32 32 28 27 26 25 24 23
44 44 44 44 44 44 45 45 44 44 44 43 41 38 32 41 44 43 40 36 36 36 36 27 34 31 36 33 32 33 33 32 30 32 33 25 21 25 25 25 26 26 27 28 27 28 27 28 26 24 24 24 23 22
44 44 44 44 44 44 44 44 44 44 43 40 36 36 42 45 40 36 31 31 32 30 33 33 32 33 36 31 31 30 29 28 28 31 26 21 18 21 24 21 23 24 24 25 27 27 26 25 24 22 22 21 21 20
44 44 43 43 42 43 43 43 43 41 40 40 39 41 38 33 30 29 28 30 30 28 32 31 33 34 35 38 32 33 28 29 24 28 20 12 19 21 22 21 21 24 24 23 24 23 24 23 23 21 21 20 20 20
42 42 41 40 40 40 40 41 39 43 41 34 31 26 25 20 12 11 23 24 25 29 29 32 31 32 34 36 33 30 28 25 26 18 13 16 19 19 20 21 21 22 22 21 21 21 21 20 20 20 18 19 19 18
40 41 41 39 39 39 37 34 35 33 30 25 21 10 9 7 14 19 18 20 26 28 29 30 31 31 32 30 30 23 21 20 10 4 8 16 19 20 21 21 19 19 20 19 19 19 19 18 17 18 19 19 18 16
42 39 37 39 39 36 34 34 32 30 26 21 17 8 12 19 20 21 23 24 26 28 29 31 29 27 23 22 20 19 11 4 9 6 12 18 20 20 20 20 19 19 19 18 19 18 18 17 16 16 17 17 17 16
41 39 38 37 36 35 32 30 29 28 24 19 16 13 14 15 15 17 18 19 26 25 30 30 25 17 17 19 10 8 7 2 5 9 16 18 17 18 18 18 18 19 19 19 19 18 18 17 16 15 16 16 15 14
41 39 43 42 40 35 33 27 25 21 18 15 12 16 12 11 13 17 20 21 26 26 22 22 15 14 17 10 8 12 1 6 13 16 18 18 17 17 18 18 18 18 17 17 17 18 18 18 17 14 13 14 14 14
40 41 41 41 37 34 30 27 22 18 13 15 11 15 16 18 18 19 21 23 25 24 23 18 18 11 8 7 7 12 14 16 17 16 16 16 16 16 17 16 16 16 15 15 15 15 14 14 13 13 12 11 10 10
40 40 41 40 35 30 25 24 21 14 15 15 17 20 20 19 21 22 23 23 22 22 20 16 10 10 9 12 12 14 16 15 14 14 15 16 16 15 15 15 14 14 13 12 11 10 10 11 10 10 9 8 6 6
41 40 39 39 36 28 25 24 24 17 14 18 21 18 17 17 18 18 18 18 15 14 12 11 11 14 15 17 18 17 17 18 15 12 11 12 14 12 12 12 11 11 9 8 8 8 7 6 6 5 5 4 2 -2
37 36 37 34 31 29 26 24 21 20 20 17 20 19 16 16 13 12 13 14 12 13 11 14 14 16 17 18 18 17 17 15 13 12 10 9 12 11 9 8 7 6 4 3 3 3 4 3 4 1 -3 -12 -13 -9
32 36 28 29 27 25 24 26 23 24 22 21 21 19 14 7 6 12 14 10 11 12 16 15 15 15 14 14 15 16 15 14 12 11 11 10 7 5 3 3 3 0 0 -3 -2 -9 -3 2 -2 -4 -9 -17 -7 -8
31 31 26 24 19 19 25 29 22 24 15 18 19 11 9 3 10 16 9 13 14 17 16 15 15 14 13 14 13 13 12 10 7 6 5 5 4 -1 3 3 -1 -4 -2 2 2 -3 -9 -6 -6 -14 -16 -15 -20 -21
27 22 15 12 16 11 15 12 20 16 16 14 12 9 7 6 11 7 7 10 14 15 13 14 13 11 10 9 8 9 9 8 6 3 4 4 3 3 3 3 2 -0 -2 1 -4 -11 -12 -23 -16 -13 -24 -25 -27 -25
17 14 12 9 14 11 7 4 6 11 6 8 8 6 5 10 2 -2 1 6 7 4 6 9 8 7 1 -0 5 7 9 8 5 4 -1 4 2 1 1 1 -0 2 -2 -13 -19 -21 -21 -26 -27 -24 -22 -27 -19 -20
10 13 11 9 9 11 9 4 3 4 4 4 4 4 0 -4 -6 -6 4 -3 5 -2 -7 -6 1 4 5 6 5 4 6 7 5 -0 4 6 1 -10 -14 -13 -11 -7 -6 -15 -18 -21 -20 -22 -23 -20 -22 -20 -21 -25
2 6 13 12 14 12 5 4 9 5 1 2 2 -6 -7 -11 -10 2 8 5 5 -1 4 1 5 5 5 5 5 4 4 3 2 1 1 0 -1 -2 -10 -15 -13 -7 -12 -17 -22 -21 -21 -22 -23 -24 -25 -29 -26 -25
5 6 -1 -3 1 4 -4 -3 -4 -3 0 8 1 -9 -12 -10 -2 5 4 5 6 6 4 3 4 4 2 1 -2 -0 -3 -4 -2 -3 -3 -3 -5 -10 -15 -17 -11 -2 -14 -21 -24 -26 -23 -24 -24 -25 -27 -25 -23 -26
-1 -3 1 -8 -5 -3 -0 -7 -4 4 6 -4 -11 -8 -1 5 1 1 5 8 7 5 -0 -4 -7 -13 -9 -8 -12 -13 -13 -13 -12 -16 -20 -20 -22 -13 -16 -20 -22 -24 -27 -18 -5 -12 -13 -19 -21 -24 -25 -26 -24 -27
-1 -2 -5 -12 -9 -6 -7 -4 -6 -5 3 2 7 7 4 4 8 6 4 4 2 -3 -11 -14 -19 -19 -19 -18 -18 -15 -20 -24 -16 -9 -14 -21 -16 -19 -25 -22 -23 -26 -28 -27 -25 -19 -9 -19 -16 -23 -25 -27 -29 -30
1 -6 -4 -2 -2 -2 -4 -10 -2 -4 -9 -6 -10 -7 -6 -3 4 6 1 -10 -12 -10 -9 -15 -16 -22 -16 -22 -22 -21 -17 -21 -27 -24 -24 -26 -26 -26 -26 -28 -30 -31 -25 -25 -28 -29 -28 -29 -32 -31 -29 -28 -30 -32
-8 -13 -7 -6 -4 -4 -5 -16 -16 -14 -19 -12 -14 -19 -15 -12 -13 -3 -2 -5 -7 -9 -13 -18 -15 -12 -19 -24 -28 -28 -20 -20 -23 -24 -23 -25 -26 -29 -31 -29 -34 -33 -32 -31 -32 -32 -30 -30 -31 -32 -33 -32 -34 -34
-7 -7 -10 -9 -8 -9 -8 -6 -7 -10 -14 -14 -12 -16 -20 -16 -11 -6 -3 -8 -5 -4 -8 -13 -18 -23 -23 -22 -21 -23 -21 -24 -24 -8 -16 -14 -21 -21 -31 -33 -33 -31 -29 -31 -33 -33 -31 -30 -31 -33 -34 -35 -35 -36

GFSWCAN_sfc_dewp_051.txt.gz
Dewpoint
43 43 42 41 41 41 41 41 42 42 42 43 44 45 44 43 43 43 41 44 39 34 37 36 34 34 36 36 33 33 34 35 34 30 29 28 27 27 24 29 28 26 27 28 29 28 23 30 37 31 31 38 37 37
43 43 42 42 42 41 42 42 42 43 43 43 43 45 44 44 44 44 40 44 43 38 38 41 40 40 37 38 35 35 32 34 35 31 31 30 28 29 27 23 32 28 30 29 30 29 32 35 37 40 39 39 40 40
44 43 41 41 41 41 42 43 43 44 44 43 43 44 44 44 44 45 41 44 41 34 37 39 37 40 42 42 42 35 34 36 36 38 35 33 28 29 27 27 30 31 32 30 30 30 31 32 34 40 38 41 41 41
42 42 42 43 43 43 43 44 44 43 44 44 44 44 44 44 44 44 41 43 40 37 33 34 40 38 41 41 43 42 39 42 41 41 36 34 30 30 29 29 30 29 32 31 30 31 34 34 39 38 37 37 37 37
43 45 45 44 43 43 43 43 43 43 44 45 46 44 45 44 44 43 43 43 41 37 31 32 37 37 39 39 39 41 39 39 40 37 35 34 33 34 33 32 29 32 31 32 29 36 36 36 38 37 35 34 34 33
44 44 44 44 44 44 44 44 45 45 45 45 45 46 46 46 45 43 36 43 41 43 35 30 36 36 37 40 39 38 40 40 39 38 36 36 36 36 31 29 34 35 34 35 34 36 36 38 38 33 32 31 31 29
45 45 45 45 44 45 45 44 44 45 45 45 45 45 46 45 45 37 36 41 41 43 36 30 28 36 37 37 38 40 40 40 40 38 36 36 37 37 34 30 29 29 29 31 36 35 36 36 34 31 30 28 27 25
45 45 45 45 45 45 45 44 45 45 45 45 45 45 45 45 44 41 44 44 42 39 38 29 29 35 39 35 34 39 37 38 37 35 37 36 37 36 33 25 24 25 26 30 30 32 34 36 30 27 27 26 25 24
45 45 44 44 44 44 44 44 44 45 45 45 45 45 45 41 38 41 44 44 44 39 31 30 26 27 39 35 37 38 38 34 39 34 36 35 29 29 23 22 23 23 24 26 27 29 31 30 26 25 25 24 24 23
45 44 44 44 44 44 44 45 45 45 45 44 41 37 33 41 45 43 40 36 37 37 36 30 32 30 35 35 34 34 35 33 30 33 31 25 21 23 23 22 23 23 24 25 25 26 24 25 24 23 23 23 22 21
45 44 43 43 44 44 44 44 44 44 43 41 37 36 41 44 40 36 32 30 33 29 31 32 31 32 37 32 32 33 32 32 29 29 27 21 18 21 21 20 22 23 23 25 26 25 25 25 23 22 21 21 20 20
42 41 41 42 44 44 43 43 42 41 40 40 39 39 36 31 32 30 27 30 30 28 33 31 33 34 34 34 32 32 30 30 25 27 20 14 18 19 19 19 20 22 22 22 23 22 23 22 23 21 20 19 19 18
41 40 40 39 41 41 38 42 42 40 36 33 29 23 23 20 13 15 20 23 24 27 29 32 32 32 34 36 33 32 27 22 24 16 13 15 17 17 18 18 19 21 21 20 20 20 20 19 20 19 17 18 18 16
39 40 41 39 38 36 35 38 35 32 29 24 21 12 14 10 15 18 18 20 25 28 27 31 32 29 30 27 27 22 21 19 11 8 9 15 17 18 19 19 18 18 19 19 19 19 18 17 16 18 18 17 16 14
38 38 37 38 37 34 34 33 31 29 25 19 17 12 14 18 20 21 22 23 25 27 28 31 25 26 23 20 19 18 12 9 10 9 13 17 19 18 19 19 19 18 18 18 18 17 16 16 15 15 16 17 16 16
39 39 41 42 35 34 31 30 29 28 24 17 15 13 15 15 15 16 18 20 24 24 29 28 21 18 17 18 11 8 9 6 9 13 17 18 17 17 17 18 18 19 19 18 18 18 17 15 15 15 15 15 14 14
40 39 42 41 36 31 30 27 24 20 18 15 13 16 15 14 14 17 20 20 25 25 22 21 14 15 14 9 7 11 7 10 15 16 18 18 17 16 17 17 17 17 17 17 18 17 16 17 16 13 11 13 13 12
39 40 41 39 35 31 28 25 21 17 13 15 12 16 18 19 18 19 22 23 25 23 21 16 16 10 8 6 7 12 14 16 17 16 16 16 16 17 17 16 16 16 16 15 15 14 14 13 12 11 11 10 9 8
40 38 40 39 33 29 24 23 21 14 15 17 19 20 20 20 21 22 23 24 22 22 19 16 11 9 10 14 13 14 16 15 13 13 14 16 16 15 15 15 14 13 13 12 11 10 10 10 10 9 8 7 7 7
40 39 39 37 33 27 23 22 24 16 15 18 21 18 18 18 19 20 19 19 14 13 11 9 10 13 14 17 18 17 17 17 14 11 11 12 13 12 12 12 11 10 9 9 8 8 7 6 5 5 5 5 5 3
33 35 34 32 29 27 25 22 20 18 19 19 20 18 17 15 13 13 14 14 13 12 10 14 14 15 18 18 19 18 17 16 14 13 10 9 11 9 8 7 7 6 5 5 5 4 4 4 3 2 3 1 1 3
31 33 27 29 25 24 23 25 22 23 21 20 20 15 11 10 10 13 13 10 10 11 14 14 14 14 13 13 14 14 14 13 12 11 10 9 6 5 4 5 3 3 3 3 3 2 3 2 1 1 1 0 0 1
30 29 25 24 19 18 21 29 22 22 17 19 16 9 8 7 12 14 10 11 13 16 15 14 14 13 12 12 12 11 11 9 7 6 6 5 5 5 5 4 3 3 2 1 2 2 0 -1 -3 -2 -3 -3 -2 -2
25 20 14 12 16 14 13 11 19 16 16 14 11 7 7 7 10 8 6 9 12 14 13 14 13 11 9 9 8 8 7 7 6 6 6 5 3 3 3 3 2 2 2 -0 -2 -2 -4 -5 -7 -2 -4 -4 -5 -3
13 10 11 5 11 8 6 4 7 11 6 7 7 4 6 9 3 2 3 8 8 6 7 10 8 7 5 6 7 8 9 7 5 4 5 4 3 3 2 1 1 2 1 1 -1 -2 -5 -7 -6 -5 -5 -4 -3 -5
7 10 7 6 6 9 7 4 3 5 6 5 4 3 2 0 -2 -2 5 4 8 6 2 2 5 7 6 7 6 6 6 6 5 3 4 4 1 -0 -1 -2 -1 -0 -2 -3 -2 -2 -3 -7 -6 -6 -5 -7 -14 -7
-1 1 10 9 12 10 5 5 8 5 0 1 -1 -6 -6 -11 -10 3 8 8 8 4 6 5 8 7 5 4 4 3 3 3 3 2 1 1 -0 -1 -2 -2 -3 0 -3 -4 -4 -3 -2 -4 -4 -6 -6 -7 -8 -7
3 4 -2 -4 -0 2 -6 -4 -4 -4 2 6 -0 -8 -12 -10 -1 5 6 7 5 5 3 2 3 4 3 1 1 1 -0 -0 0 1 1 0 -2 -3 -5 -4 -4 -2 -5 -6 -5 -7 -4 -4 -4 -6 -8 -7 -7 -9
-0 -2 -1 -10 -6 -5 -2 -6 -4 3 5 -3 -8 -5 0 3 2 5 7 7 6 4 0 -1 -4 -6 -5 -4 -7 -6 -3 -2 -1 -7 -9 -6 -6 -2 -7 -7 -6 -8 -9 -4 -6 -6 -3 -5 -6 -6 -7 -7 -9 -13
-1 -2 -6 -12 -9 -6 -7 -2 -4 -2 1 3 7 5 3 4 7 8 7 6 3 -2 -7 -6 -10 -6 -6 -4 -5 -5 -10 -12 -7 -2 -4 -4 -5 -7 -10 -8 -7 -10 -12 -8 -6 -5 -5 -8 -7 -10 -11 -11 -11 -11
-0 -5 -4 -3 -3 1 -1 -7 -1 -2 -6 -4 -7 -6 -4 -2 4 4 -1 -7 -8 -9 -6 -5 -8 -13 -9 -10 -7 -8 -6 -9 -19 -15 -13 -12 -11 -10 -10 -13 -15 -15 -13 -11 -11 -11 -11 -12 -13 -12 -12 -13 -16 -18
-9 -15 -8 -6 -5 -2 -4 -12 -13 -9 -12 -6 -7 -13 -10 -7 -9 -0 -0 -1 -1 -2 -7 -9 -5 -2 -9 -12 -16 -15 -18 -9 -11 -12 -13 -12 -10 -13 -14 -15 -18 -16 -13 -13 -14 -14 -15 -15 -15 -16 -16 -16 -18 -20
-6 -7 -9 -6 -6 -8 -8 -8 -7 -9 -11 -11 -11 -17 -19 -11 -9 -2 -1 -5 -0 1 -4 -6 -9 -13 -14 -14 -10 -11 -16 -12 -16 -6 -14 -13 -18 -14 -15 -16 -16 -16 -14 -14 -15 -16 -16 -17 -16 -17 -18 -20 -20 -21

GFSWCAN_sfc_dewp_054.txt.gz
Dewpoint
41 42 43 43 43 43 42 41 41 40 40 41 41 41 42 42 42 42 39 44 39 33 35 35 31 30 31 33 31 35 35 35 35 33 29 26 26 23 22 26 27 26 26 28 26 25 24 27 29 27 38 37 35 35
42 43 44 44 44 44 43 43 41 41 41 41 42 42 43 43 43 43 40 43 44 36 36 37 36 37 32 32 35 38 34 36 34 31 29 29 29 32 23 21 29 28 26 26 25 25 32 34 36 36 39 39 39 40
43 44 43 43 42 43 41 42 42 42 42 42 43 43 43 44 44 44 41 43 41 35 36 38 36 37 38 38 40 37 37 37 37 36 36 33 30 29 27 24 24 26 29 30 29 28 28 29 34 39 39 39 38 38
44 43 43 44 44 43 43 42 42 42 43 43 43 43 44 44 45 45 40 42 40 37 33 36 38 38 39 40 40 41 39 39 39 40 36 35 31 30 28 26 27 25 28 29 27 26 26 29 37 39 37 38 37 36
43 44 44 45 44 45 43 43 43 43 43 44 44 44 44 44 45 44 43 43 43 37 34 34 39 38 38 40 40 41 41 40 39 38 36 35 33 33 34 33 26 25 26 29 26 34 35 35 36 37 37 36 35 34
44 44 44 44 44 45 44 44 44 44 44 44 45 44 43 44 45 41 34 43 44 44 37 31 36 36 38 39 38 38 42 41 40 38 37 36 37 36 33 28 27 35 35 35 34 36 37 37 36 34 34 33 32 30
45 45 45 45 44 44 44 44 45 45 45 44 45 45 44 44 43 38 37 42 44 44 36 31 30 36 36 38 39 40 39 39 39 39 37 37 37 36 36 30 31 29 30 31 33 34 35 36 34 32 30 29 28 27
44 44 44 44 44 44 44 44 44 44 45 45 45 45 45 44 42 39 45 43 43 40 38 32 31 35 36 34 34 39 37 38 37 37 38 36 36 38 33 27 25 25 26 28 29 29 30 32 31 28 28 27 27 25
44 44 44 43 44 44 45 44 45 45 45 44 45 46 45 41 38 41 44 43 46 40 34 32 30 28 38 34 34 37 39 33 38 34 36 37 35 33 25 24 24 24 24 25 25 27 30 29 27 26 27 26 25 23
44 43 44 44 44 44 44 44 44 44 44 45 42 37 34 41 45 44 40 35 36 38 37 33 35 32 37 35 34 34 35 32 31 34 35 34 27 24 22 23 23 23 23 24 25 26 25 25 24 23 23 23 21 21
43 44 44 44 43 44 44 44 45 44 43 40 36 35 42 43 41 37 33 34 33 31 33 34 34 33 38 34 33 35 32 34 28 31 32 28 25 22 20 20 21 22 23 23 24 25 25 25 24 22 21 21 21 20
42 43 44 43 43 44 44 43 43 43 42 41 39 38 36 35 35 32 30 31 29 27 33 33 33 35 36 38 36 35 33 33 28 31 30 24 20 19 19 19 20 21 22 22 23 24 24 23 24 22 21 19 19 19
40 40 39 39 39 42 41 40 39 39 38 34 30 27 26 25 24 26 25 28 29 31 32 33 32 35 35 36 34 35 32 28 28 28 22 19 17 17 18 18 19 21 20 20 21 21 20 20 21 19 18 19 19 17
39 39 39 37 37 36 35 34 34 32 29 25 25 18 21 19 21 22 23 26 27 29 32 33 34 33 33 31 30 27 26 27 23 20 15 18 18 19 20 21 18 19 20 19 19 19 18 17 18 18 18 18 16 15
42 40 36 36 36 34 33 32 29 28 23 21 21 17 18 21 23 23 25 27 27 29 31 33 31 33 29 26 25 25 22 18 18 17 17 19 20 20 20 20 19 19 19 19 19 17 17 17 16 16 17 17 16 16
39 41 37 34 34 32 30 28 26 25 22 19 18 16 21 23 22 23 24 26 28 27 32 32 27 25 21 22 17 15 18 16 15 18 20 20 19 19 19 20 20 20 20 19 19 18 17 16 16 16 16 15 15 15
39 38 41 32 29 29 29 24 22 19 18 17 18 22 21 21 20 22 24 24 28 29 28 25 20 18 18 16 12 15 15 17 19 20 21 21 20 19 20 19 20 20 19 19 19 18 18 19 18 16 14 14 13 13
39 40 40 38 34 28 24 22 19 17 16 18 16 20 21 22 21 23 25 26 28 26 23 18 18 15 14 9 13 15 18 19 20 19 19 20 20 20 20 19 19 19 18 17 17 18 17 15 13 12 12 11 9 9
39 39 39 35 33 27 20 20 18 15 18 20 20 20 21 21 22 24 26 25 22 21 20 18 14 13 14 17 17 18 19 17 16 16 17 18 18 17 17 17 17 17 16 16 13 12 12 12 12 10 10 9 10 10
38 38 36 34 32 24 18 19 20 16 17 19 21 18 17 19 21 23 22 18 15 15 12 11 12 16 17 19 20 18 18 18 16 15 14 15 17 17 17 16 15 15 13 12 12 11 10 9 8 8 9 8 10 9
37 37 34 32 30 26 23 19 18 19 22 19 21 18 18 19 17 17 16 14 13 14 12 15 16 18 20 21 22 21 21 21 20 18 15 14 15 14 11 11 11 10 10 10 10 8 8 8 6 7 10 10 10 9
33 32 33 31 25 24 23 23 20 23 17 17 16 14 16 16 16 16 12 12 12 14 16 17 18 17 16 16 17 18 18 16 16 14 13 12 11 10 10 10 9 10 9 10 9 10 9 6 7 8 8 8 6 7
31 31 28 28 26 25 25 29 23 21 19 18 15 11 12 14 14 12 12 11 14 18 17 15 16 16 14 15 14 14 13 12 11 11 11 10 10 11 9 8 9 9 7 5 5 7 8 3 5 8 7 8 8 7
25 23 22 23 25 22 23 21 19 18 19 16 13 10 11 14 13 11 8 10 14 16 16 17 15 13 13 12 11 10 10 10 10 12 10 8 7 6 6 6 7 7 6 4 5 7 7 7 4 7 7 7 6 6
20 16 20 18 20 19 17 17 16 17 16 16 13 13 13 15 11 9 8 11 14 15 15 15 13 12 13 12 12 11 10 9 8 7 9 7 8 6 5 5 5 5 8 10 8 7 6 6 6 5 4 5 2 -1
12 14 15 17 18 17 17 15 15 16 15 12 11 11 14 12 8 8 9 14 14 15 16 16 15 13 11 10 10 9 8 8 8 9 7 6 6 10 9 7 6 5 6 8 9 7 5 5 4 -1 3 -4 -4 -0
11 11 12 10 14 15 16 16 15 15 13 11 11 8 9 5 5 7 12 14 14 14 13 14 14 12 10 8 7 7 7 7 7 5 5 4 4 5 7 7 1 4 6 5 6 5 4 3 3 2 2 4 3 2
9 8 6 5 6 8 7 7 7 7 9 9 8 3 2 3 5 11 12 13 13 12 11 10 10 9 8 7 7 7 7 6 7 6 6 5 5 6 5 6 5 3 6 6 7 5 5 4 3 2 1 1 1 2
7 8 5 -2 2 3 3 4 5 6 7 8 6 4 4 6 8 12 12 12 12 12 10 8 7 9 8 7 7 9 9 10 3 -2 -6 5 6 6 5 6 6 6 6 6 -2 0 3 3 2 2 0 1 1 0
6 9 3 0 -1 1 5 6 7 8 7 9 7 5 5 8 10 13 12 12 12 12 11 10 8 11 8 9 7 5 7 5 5 6 5 4 5 5 5 5 4 3 3 4 3 0 -3 1 -2 1 -1 -0 0 -1
8 9 4 3 2 6 7 10 10 9 9 9 10 7 5 9 10 9 7 8 8 7 8 7 6 8 8 8 9 7 6 3 -2 -1 2 3 3 4 2 -0 1 1 2 0 -0 -0 -1 -1 -1 -4 -4 -6 -8 -8
7 4 3 2 4 8 9 10 10 8 10 9 8 9 8 9 5 8 7 9 10 10 5 9 11 10 6 5 2 3 -2 2 2 -1 -4 0 2 -2 -0 -1 -2 0 -0 -1 -1 -2 -5 -6 -5 -6 -6 -9 -10 -11
8 8 8 7 6 7 8 8 7 8 8 8 5 4 4 6 3 7 6 5 8 10 10 8 6 4 2 2 3 2 0 1 -3 -2 -5 -5 -8 -4 1 1 0 -2 -4 -3 -2 -4 -6 -8 -8 -9 -10 -11 -11 -11

GFSWCAN_sfc_dewp_057.txt.gz
Dewpoint
40 40 41 41 42 42 43 43 44 43 41 40 40 41 41 41 41 42 39 41 40 34 30 29 28 28 31 33 33 34 35 36 35 33 29 27 28 25 23 27 26 24 26 27 26 25 21 25 24 25 37 35 35 35
41 41 42 42 43 43 44 44 44 44 42 41 41 41 41 41 41 42 38 35 43 37 31 35 34 31 34 32 33 37 34 36 34 33 30 32 30 32 25 22 32 26 26 26 24 24 30 29 36 38 37 37 37 37
42 42 43 43 43 44 44 43 44 43 43 41 41 41 41 42 42 43 37 37 41 36 36 35 32 32 35 36 37 36 36 37 38 37 38 35 30 31 28 24 27 28 34 29 32 27 31 28 35 37 37 37 36 36
43 43 44 43 44 44 44 44 43 43 43 42 41 42 42 42 43 43 42 41 41 36 30 29 34 34 34 37 37 39 38 39 41 41 39 36 33 30 30 28 27 25 27 25 27 27 27 27 36 38 36 36 36 35
43 44 44 45 45 45 45 44 43 43 43 42 42 43 43 43 44 43 44 44 43 33 30 30 33 36 36 35 36 40 40 39 39 38 37 36 33 33 32 32 29 25 25 28 28 35 35 33 35 36 35 35 35 34
43 45 45 45 45 45 45 44 43 43 43 43 43 43 44 44 44 42 35 42 44 42 33 31 36 35 37 37 37 39 40 40 40 38 37 35 36 36 34 29 27 33 34 34 34 36 37 36 36 35 35 33 32 31
45 45 45 45 45 45 45 44 44 44 43 44 44 44 44 44 44 38 37 40 44 44 36 33 34 35 36 37 39 39 40 41 38 37 36 38 37 36 34 30 34 31 31 32 33 33 34 35 34 33 32 31 31 29
44 44 44 44 43 44 44 44 45 44 44 44 44 44 44 44 42 40 45 43 43 39 39 35 33 34 36 35 36 40 39 40 39 38 37 34 34 36 34 31 28 27 27 30 29 29 30 33 32 29 29 28 29 26
44 44 44 44 45 44 44 44 44 45 45 45 45 45 42 40 37 41 44 44 45 40 35 33 31 31 36 34 34 37 38 35 38 35 34 36 35 32 28 27 26 25 25 25 26 27 28 29 27 26 26 25 25 23
44 44 44 44 44 44 44 45 44 44 46 45 40 37 34 40 44 44 39 35 35 39 38 33 33 34 35 35 34 34 36 32 31 34 37 35 26 26 23 24 24 24 24 25 26 27 25 26 25 23 23 22 22 21
44 42 43 44 44 44 44 44 45 45 43 41 35 36 42 43 41 37 34 35 35 33 33 34 34 34 39 35 32 35 32 32 25 31 33 33 25 23 21 21 22 23 23 24 25 25 25 26 26 23 22 22 21 20
40 40 44 43 44 44 44 44 43 44 43 41 39 40 40 38 36 34 32 32 29 27 32 33 34 36 36 40 37 34 31 33 26 34 32 28 22 20 21 20 21 22 23 23 24 23 23 24 24 22 21 21 20 20
39 40 41 40 43 45 44 43 42 42 41 39 34 31 32 30 30 30 25 28 30 34 34 35 34 36 37 37 36 35 31 30 32 31 27 22 19 18 19 20 21 22 22 21 21 21 21 20 21 20 19 20 20 19
39 39 39 38 39 40 38 37 37 34 33 28 29 23 28 25 25 26 28 30 30 32 34 35 34 34 34 33 34 30 30 31 26 25 21 21 20 21 22 21 19 19 20 19 19 19 19 18 19 19 19 19 17 16
37 36 36 35 35 34 33 33 33 29 26 24 25 21 21 24 25 26 29 29 29 31 34 34 35 35 32 29 30 29 26 24 23 21 21 21 22 21 21 21 20 19 19 19 19 18 18 18 17 17 18 18 17 17
39 38 32 35 33 31 31 29 28 26 24 23 23 23 27 27 26 28 29 29 31 32 35 35 31 28 25 27 23 22 24 21 20 22 22 21 21 21 21 21 21 21 20 19 19 19 19 17 17 17 17 17 16 16
40 38 31 31 30 29 31 26 25 21 22 22 21 25 25 24 24 26 27 27 31 32 30 31 25 22 24 22 17 18 19 20 23 24 24 23 21 21 21 21 22 22 21 21 21 21 20 21 21 17 15 15 14 13
38 39 37 31 32 29 24 23 21 19 19 23 20 24 24 25 26 27 28 29 31 28 26 22 22 21 19 15 17 20 21 24 23 22 22 22 23 23 23 22 21 21 21 21 21 21 19 16 14 13 12 11 10 9
38 37 37 37 32 26 21 21 21 18 21 23 24 24 24 25 26 27 28 26 24 23 23 21 19 17 17 21 19 21 21 20 19 19 19 21 21 20 20 21 21 20 20 18 15 13 13 14 12 11 11 10 11 11
37 37 36 34 32 24 19 20 21 18 19 21 23 21 21 22 25 26 24 20 17 17 15 15 16 20 20 22 23 22 21 21 19 17 18 20 21 21 21 20 18 17 15 14 14 12 11 10 9 9 10 10 12 12
35 33 34 31 27 25 22 20 21 22 22 19 21 20 21 22 21 21 19 16 15 15 14 18 19 21 24 24 24 24 24 24 23 21 18 17 18 16 15 15 14 13 13 14 13 11 11 10 8 9 13 13 13 12
32 33 34 29 25 23 22 23 23 24 19 19 18 17 19 19 18 18 15 14 15 17 20 21 21 21 19 19 19 19 20 19 18 17 16 16 15 14 14 14 12 13 13 14 12 13 12 8 10 10 12 12 9 10
32 33 31 28 28 26 23 30 24 23 20 18 17 16 18 18 16 15 15 13 17 20 20 17 18 17 17 17 16 16 16 15 15 15 15 14 13 15 12 11 12 13 11 7 7 10 10 5 8 11 10 11 11 9
28 27 28 28 26 23 26 23 20 18 19 18 15 14 15 17 15 14 11 13 17 20 18 19 16 16 16 15 13 12 13 13 13 15 13 10 9 8 8 8 9 9 8 6 8 10 10 10 7 9 9 10 9 8
22 19 25 21 24 22 20 21 20 19 18 17 15 16 17 19 15 13 11 14 17 18 18 17 17 17 18 16 14 13 12 11 11 10 12 10 11 8 7 6 7 6 10 14 12 11 10 10 9 9 7 8 4 1
16 17 19 21 22 20 20 19 19 19 17 15 15 16 21 18 13 12 13 17 18 19 21 20 19 16 13 12 12 11 10 10 10 11 8 8 8 12 11 10 9 9 8 11 12 10 8 7 7 1 5 0 1 2
15 16 15 14 18 19 21 21 20 19 16 14 16 15 16 10 10 11 15 19 17 18 17 18 17 15 13 11 10 9 9 9 9 6 6 5 6 7 10 10 4 7 9 7 8 8 7 6 5 4 4 6 5 4
12 12 10 13 13 14 12 13 13 13 14 12 13 8 8 8 10 16 16 18 17 17 16 15 14 13 12 11 12 12 11 11 11 10 9 8 8 8 7 8 6 3 7 6 7 7 6 5 5 5 4 4 4 4
12 14 8 3 8 9 8 10 10 10 9 15 13 9 7 8 15 15 16 16 17 16 15 14 14 14 13 13 13 14 14 13 6 -2 -8 8 10 9 8 8 8 7 8 7 2 3 4 4 4 4 3 4 4 4
11 15 7 5 4 5 8 12 11 13 11 12 10 8 9 11 16 18 17 17 16 16 16 15 15 15 13 12 10 10 11 10 8 9 8 7 8 8 8 7 6 6 6 6 5 2 2 4 4 4 3 3 4 3
14 15 9 7 6 11 13 14 15 15 16 16 15 12 10 11 13 13 14 15 15 14 14 12 12 13 12 11 12 10 9 7 4 4 6 7 7 7 5 4 5 5 5 4 3 3 1 1 3 1 0 -2 -3 -4
13 9 7 5 7 11 15 15 14 14 14 13 12 13 14 13 9 12 13 16 14 14 11 13 13 12 10 9 8 7 5 6 4 3 3 5 6 3 4 4 4 4 3 1 2 1 -0 -2 -1 -1 -2 -3 -4 -5
13 13 12 11 10 11 12 15 11 12 13 12 11 11 12 12 7 10 12 13 14 15 13 12 11 9 7 6 7 6 4 4 1 1 -0 -1 -2 -0 2 5 4 3 0 1 1 0 -2 -3 -3 -4 -5 -5 -6 -6

GFSWCAN_sfc_dewp_060.txt.gz
Dewpoint
38 39 40 41 41 41 42 42 43 43 43 43 42 41 41 41 41 42 39 43 40 35 30 28 26 27 28 33 34 34 35 34 35 30 28 25 27 27 26 28 28 25 27 27 26 23 21 20 23 22 38 39 37 37
39 41 41 41 42 42 42 43 43 43 45 43 43 41 41 41 41 41 38 41 43 38 29 33 32 30 28 31 36 38 32 35 35 32 30 31 32 34 27 24 35 31 26 26 24 23 32 31 37 38 38 38 37 36
41 41 41 41 42 43 43 43 44 44 44 44 44 42 41 41 42 41 34 38 41 37 34 32 29 31 31 33 37 35 34 35 36 38 38 37 32 32 27 24 30 36 35 27 30 28 24 37 38 36 36 36 35 34
41 41 42 43 43 44 44 44 44 44 44 44 43 42 41 41 41 40 39 38 41 36 29 28 29 31 32 32 33 36 35 36 40 39 37 37 33 35 34 30 32 35 37 31 31 34 38 40 40 35 34 34 34 34
41 42 43 43 44 45 45 45 45 44 43 43 43 42 41 41 41 42 44 41 43 32 29 31 34 33 28 35 32 34 38 37 38 37 36 34 35 35 35 32 28 30 35 34 34 37 39 38 35 34 34 33 32 32
42 43 43 45 45 45 45 45 45 44 43 43 42 42 42 42 42 42 35 42 43 42 35 28 35 37 36 36 36 34 36 40 39 37 36 35 34 35 32 31 37 37 32 34 34 33 35 35 34 34 33 32 31 30
43 43 45 45 45 45 45 45 44 44 43 43 42 42 42 42 43 37 36 41 42 44 35 29 25 32 36 37 38 39 40 40 38 37 37 35 36 36 36 29 36 32 29 32 30 31 34 33 32 31 31 31 31 27
44 44 44 44 44 44 44 45 44 44 43 43 43 43 43 43 42 39 43 43 42 39 37 30 31 35 37 36 37 40 38 39 38 37 37 37 35 36 32 32 28 26 28 28 28 29 31 31 29 27 27 28 26 24
44 44 44 44 44 45 44 45 44 44 44 43 44 44 43 40 38 40 44 43 44 38 32 34 31 30 36 35 37 39 39 34 39 37 35 34 37 31 27 26 25 25 25 25 26 29 27 28 26 25 24 24 24 22
44 43 44 44 45 44 44 45 45 45 44 44 40 36 33 39 44 42 40 35 37 37 37 33 34 33 34 37 35 34 36 32 29 32 37 34 27 26 25 24 25 24 24 25 25 25 25 26 25 23 22 22 21 20
42 43 44 45 44 44 44 45 45 45 43 40 37 36 42 44 40 37 33 33 34 33 33 33 35 34 38 35 32 37 33 34 26 32 32 31 24 24 22 21 22 23 23 25 25 25 25 25 25 22 21 20 20 19
42 44 45 45 44 45 45 44 43 43 42 41 40 41 41 37 35 32 32 33 31 27 33 34 35 36 37 39 35 35 30 32 24 34 31 24 23 22 21 21 22 22 23 23 23 22 23 23 22 20 19 19 19 19
42 44 45 44 44 44 43 43 44 43 41 39 37 35 35 34 30 29 25 27 30 34 34 37 34 37 36 37 35 34 30 28 33 30 24 22 21 22 23 20 21 21 21 20 19 19 19 19 19 18 18 19 19 18
41 41 42 43 43 44 43 44 44 41 37 30 30 24 29 25 25 26 28 29 32 34 35 37 34 34 34 33 34 30 31 32 27 25 21 22 22 22 23 21 19 20 20 19 19 19 18 18 17 18 18 18 17 15
38 39 37 36 37 37 36 37 36 34 28 25 26 22 22 26 27 28 31 31 31 34 35 34 34 35 33 30 30 29 26 26 21 19 21 22 22 21 21 21 20 20 20 19 19 18 18 17 17 17 18 18 17 16
39 38 34 35 34 33 34 32 30 28 25 23 25 24 28 27 27 29 31 29 32 33 34 35 32 29 27 28 26 23 25 20 20 22 22 21 21 21 21 21 21 21 20 20 20 19 18 17 17 17 17 17 16 16
41 32 33 33 34 33 34 28 26 22 23 22 23 28 28 26 26 28 29 29 33 33 31 32 26 23 28 24 18 20 20 21 23 23 23 22 21 21 22 22 22 22 22 21 21 21 20 20 20 17 15 14 13 13
37 31 34 34 32 31 25 25 23 21 20 25 22 25 26 28 28 28 30 32 33 30 28 25 26 21 20 19 17 21 22 24 24 23 22 23 23 23 23 22 23 22 21 21 20 20 19 18 14 12 12 11 10 10
38 36 38 35 33 27 23 23 23 19 23 25 25 26 26 27 27 28 29 28 25 26 25 22 18 17 19 22 21 21 21 21 19 19 20 21 21 21 21 22 22 21 21 19 15 14 13 14 13 12 11 11 12 13
37 37 35 34 33 25 21 21 23 20 22 22 24 23 23 25 27 27 25 22 19 18 16 16 18 21 21 23 23 23 22 21 19 18 18 21 23 23 23 20 18 18 15 14 14 14 11 10 9 10 11 12 14 13
34 31 34 31 27 26 23 22 21 20 21 21 24 22 23 23 22 22 20 17 17 17 16 19 21 23 24 25 25 24 24 23 23 21 19 18 19 17 17 16 15 15 14 14 13 12 12 10 9 11 14 14 14 12
30 34 32 30 28 25 25 26 22 23 20 22 20 20 21 20 19 18 16 15 16 19 22 21 22 21 20 20 20 20 21 20 21 19 19 19 17 16 16 15 14 15 14 14 13 14 12 10 11 12 13 12 11 10
33 33 32 31 28 25 24 30 26 27 19 18 21 19 20 18 18 16 16 16 18 22 20 18 19 18 18 19 19 19 18 17 16 16 17 15 15 17 14 12 14 14 11 8 8 11 11 5 7 11 10 11 11 10
30 29 30 28 25 23 27 23 20 20 22 19 16 16 18 18 15 14 12 14 20 20 19 20 18 18 17 16 14 14 14 15 14 16 14 11 10 8 9 9 10 9 9 7 9 10 10 10 5 10 9 9 8 8
23 20 25 23 27 23 21 21 20 19 18 17 17 18 18 22 16 13 12 15 19 20 20 22 23 20 18 16 15 13 16 12 12 10 12 11 11 9 8 7 8 6 10 15 12 11 9 9 9 8 7 7 5 6
17 18 20 21 23 22 21 20 20 19 18 17 17 18 22 19 15 13 14 19 19 21 23 23 21 17 14 13 12 11 10 11 11 10 7 8 9 13 11 9 10 10 9 12 12 10 9 6 6 4 6 5 -1 2
16 17 17 17 22 22 23 23 21 20 17 16 18 18 17 12 11 13 21 19 19 21 20 22 20 17 13 11 10 10 9 10 10 7 7 7 8 9 11 11 9 8 9 8 9 8 7 7 6 5 6 7 7 7
14 16 14 17 16 17 15 16 16 15 15 14 15 11 11 11 12 18 18 20 20 18 17 17 16 15 14 12 13 12 12 12 12 11 10 9 9 9 9 8 6 6 7 7 6 7 6 6 5 5 5 5 6 6
15 14 10 8 10 10 10 12 12 10 11 17 14 9 8 12 16 17 17 17 18 17 15 14 14 15 15 15 15 15 14 13 10 5 4 8 12 8 9 8 8 8 8 8 6 5 4 4 4 4 3 4 5 5
13 16 9 7 7 6 11 16 14 14 13 13 12 12 12 16 19 20 20 20 19 18 18 17 18 16 14 13 11 10 11 10 9 10 9 8 8 8 8 8 7 7 7 7 6 5 7 5 6 6 4 5 5 5
16 16 10 9 8 12 15 19 20 19 18 16 16 11 9 11 13 16 16 17 16 16 15 14 14 14 13 12 12 11 9 7 4 4 6 7 7 7 5 4 5 5 6 5 4 4 2 1 3 3 2 1 -0 -2
16 11 9 5 9 16 18 18 16 15 16 14 13 15 16 14 10 12 14 18 18 14 13 16 13 10 10 9 8 8 6 7 5 5 4 6 7 5 5 4 5 5 3 2 3 3 2 -0 -0 -1 -0 -1 -1 -3
15 14 13 11 10 11 14 17 12 14 14 12 12 13 13 13 8 11 13 15 17 16 14 12 11 9 8 8 7 7 5 4 1 4 2 1 -2 -1 1 6 4 4 2 1 1 2 0 -1 -1 -2 -3 -3 -3 -3

GFSWCAN_sfc_dewp_063.txt.gz
Dewpoint
36 39 39 39 40 41 41 42 42 42 42 42 42 42 42 42 41 40 37 41 37 33 31 31 31 30 30 32 31 34 32 34 32 25 24 23 23 26 25 27 31 28 25 26 25 23 21 28 32 30 38 39 37 36
37 39 39 40 41 42 42 42 42 43 43 43 43 43 43 42 42 41 36 40 40 35 32 35 34 34 33 29 33 35 33 34 34 31 28 29 25 29 29 26 36 30 32 28 26 25 35 39 39 41 40 37 37 36
38 39 40 41 41 42 42 42 43 43 44 44 44 44 43 42 42 40 36 37 37 34 33 31 30 30 31 32 34 33 35 37 38 38 34 34 30 33 27 27 32 35 37 34 32 36 37 41 40 37 35 35 35 35
40 40 41 41 41 42 43 43 44 44 44 45 45 44 44 42 41 40 36 37 37 36 23 26 31 31 33 32 34 35 35 37 38 38 34 33 32 36 31 33 31 36 36 35 34 38 39 39 39 37 34 34 33 33
40 40 41 41 42 43 44 44 45 45 45 45 44 43 44 42 40 39 39 37 39 34 28 31 34 33 35 34 32 33 34 35 36 35 34 33 36 36 35 33 34 37 33 34 34 38 38 38 38 37 34 32 31 30
40 41 41 42 43 44 44 45 45 45 45 44 43 44 42 41 41 37 33 38 40 39 31 23 33 34 36 34 35 34 34 35 37 35 35 37 38 34 28 29 36 33 33 32 32 39 36 34 33 32 31 28 27 26
41 41 42 43 44 45 45 45 45 44 44 44 44 42 42 41 39 33 31 38 40 41 34 29 29 36 33 35 38 36 37 38 38 37 34 35 34 38 29 27 27 28 30 27 30 34 31 30 28 29 29 27 26 23
42 42 42 44 44 44 45 45 44 44 44 43 42 42 41 41 39 35 38 44 41 36 37 29 28 32 39 37 36 40 37 37 37 36 36 35 36 35 30 27 25 25 26 26 28 30 29 27 25 25 26 25 23 22
43 44 44 44 44 44 45 45 44 44 43 42 42 41 40 38 36 35 43 43 43 36 29 30 25 28 37 36 37 37 39 31 38 33 34 33 28 25 27 25 24 25 24 24 26 26 27 25 23 22 22 23 22 21
44 43 44 44 44 44 45 44 44 43 43 42 40 35 31 36 43 42 39 35 35 36 35 29 32 28 36 34 33 33 34 32 28 30 35 32 25 26 25 25 24 24 25 25 24 23 24 23 21 21 22 21 21 20
42 43 44 44 44 45 45 44 44 43 42 39 34 33 41 42 39 36 31 30 30 28 32 32 31 30 37 31 31 32 29 29 25 29 28 28 23 25 22 22 23 24 25 26 26 25 24 23 21 20 19 18 18 17
43 44 45 44 44 45 44 44 43 41 41 40 40 41 40 36 33 31 28 30 28 26 30 29 31 35 36 38 33 34 30 30 26 32 29 18 22 23 22 22 23 23 23 22 22 21 21 21 20 19 18 17 18 17
45 45 45 45 45 45 44 43 43 43 41 40 37 35 34 32 28 27 21 23 24 31 33 34 33 34 34 35 31 32 28 26 32 28 20 20 23 23 21 21 21 22 21 19 19 19 18 18 18 17 15 14 14 13
43 44 44 44 43 43 43 44 43 43 38 33 29 21 27 25 25 25 26 28 31 33 33 33 32 32 32 30 30 26 28 26 25 20 13 19 20 20 20 20 18 18 18 16 16 16 15 14 14 13 12 9 10 11
41 41 41 41 43 42 42 42 39 34 30 26 25 21 21 25 25 28 30 30 31 33 33 30 28 28 26 26 28 26 21 21 18 11 16 19 19 18 17 17 17 17 16 15 15 14 12 10 12 13 11 10 11 11
38 37 37 38 37 35 37 34 33 31 27 24 25 24 27 23 25 27 29 28 31 32 33 32 27 26 25 27 22 18 19 12 13 14 19 19 18 18 18 18 18 18 17 17 16 15 13 11 11 12 11 12 10 10
38 34 35 37 35 35 35 31 27 24 25 20 19 23 23 19 19 26 28 29 33 30 29 28 20 21 25 19 16 18 11 15 18 19 20 19 18 18 18 19 19 20 20 19 18 17 17 16 16 15 13 13 12 12
30 34 35 35 36 32 30 29 25 22 21 25 19 17 19 25 23 24 28 28 30 29 27 22 26 17 11 13 10 17 18 20 20 20 20 21 21 22 22 21 21 21 21 20 21 21 20 17 14 13 14 13 12 12
31 33 35 36 34 30 26 26 25 20 22 22 24 24 24 24 26 26 27 27 25 23 25 21 13 12 12 17 16 17 18 18 16 17 19 21 21 21 21 22 22 21 21 20 16 15 14 14 13 13 15 16 13 14
39 38 34 33 34 27 23 24 26 23 21 22 24 21 22 25 25 21 21 21 19 19 17 14 14 17 17 21 20 20 19 19 18 16 17 19 21 22 22 21 19 18 16 16 15 15 14 12 12 11 12 12 11 7
34 33 35 33 31 30 27 24 23 23 24 23 24 22 21 21 18 16 16 19 18 17 14 18 17 21 24 24 25 24 23 22 21 20 18 17 18 18 18 19 19 18 17 14 11 9 9 9 9 12 5 -3 -4 -3
33 35 34 32 28 27 25 26 23 24 23 23 23 24 19 14 13 16 18 15 15 17 19 19 20 20 20 21 21 21 21 20 19 19 19 19 18 16 14 15 13 7 8 7 12 7 5 7 9 10 4 -2 2 -1
36 35 33 30 26 25 24 28 25 24 18 20 23 19 17 15 17 20 13 16 17 21 20 19 20 20 19 20 20 20 20 18 17 16 14 14 13 10 12 12 11 8 7 7 11 8 0 2 2 -3 1 3 6 -1
32 29 26 24 23 20 28 25 24 23 21 20 16 15 17 16 19 15 12 16 16 20 18 18 19 19 18 17 15 16 17 16 15 13 14 12 10 10 11 10 9 8 7 10 8 3 1 -6 -5 7 -6 -6 -2 -10
20 17 21 17 24 19 18 20 21 20 14 16 16 14 14 22 12 9 9 13 17 19 18 20 22 18 14 9 11 12 16 15 12 9 9 14 10 9 9 8 7 8 9 12 3 1 -6 -8 -5 -9 -7 -11 -9 -11
13 15 17 19 21 19 19 14 14 15 13 12 11 16 21 16 7 7 13 15 16 14 18 16 16 17 15 14 11 10 11 13 11 6 8 9 10 5 3 6 6 3 5 -2 -5 -1 4 -4 -9 -9 -10 -3 -6 -11
9 12 19 22 23 24 18 20 20 15 11 11 17 13 8 1 2 13 20 17 18 19 19 21 18 13 11 10 10 11 10 10 9 8 9 9 9 8 3 -2 -2 1 1 0 -3 -9 -8 -8 -7 -4 -8 -8 -2 -3
14 17 9 16 12 15 8 8 7 8 8 15 13 3 2 2 8 16 18 19 16 15 14 14 14 14 12 11 8 6 4 3 5 7 8 6 4 -0 -2 -4 -4 6 -4 -9 -10 -9 -9 -10 -10 -10 -5 -6 -9 -8
13 13 10 2 6 7 8 8 7 10 14 14 3 1 4 14 16 16 15 15 15 14 10 9 7 9 11 10 10 8 5 4 -1 -8 -8 1 -2 -2 -3 -5 -1 -6 -8 -3 3 -1 -6 -7 -10 -11 -12 -13 -13 -12
13 15 6 2 -0 2 9 14 8 10 11 10 13 12 11 14 17 16 16 17 16 14 10 8 8 6 3 3 -2 -4 -2 -3 -4 -5 -4 -5 -3 -4 -7 -8 -9 -7 -7 -9 -10 -8 3 -5 -5 -5 -6 -8 -9 -14
18 12 7 7 6 12 14 16 16 12 10 9 8 6 5 8 10 15 15 11 7 7 9 7 8 5 4 2 -0 -0 -8 -8 -11 -9 -7 -8 -8 -9 -11 -10 -10 -11 -6 -10 -12 -12 -14 -15 -16 -16 -15 -15 -17 -18
13 6 3 2 8 15 18 9 11 11 11 9 6 4 6 7 2 6 10 12 15 10 12 8 1 -3 -4 -5 -6 -3 -4 -6 -8 -10 -10 -5 -7 -11 -8 -5 -9 -9 -12 -13 -13 -11 -12 -15 -17 -18 -19 -18 -19 -18
9 8 7 5 3 5 11 12 11 12 11 7 7 8 7 4 -1 5 11 14 14 8 6 2 -2 -3 -2 -3 -4 -4 -6 -12 -8 -0 -5 -7 -12 -11 -15 -12 -15 -15 -14 -15 -15 -14 -14 -14 -16 -17 -18 -19 -18 -19

GFSWCAN_sfc_dewp_066.txt.gz
Dewpoint
38 38 38 39 39 38 38 39 40 40 41 42 42 42 42 42 40 39 36 39 36 33 31 31 32 30 32 33 28 32 31 33 31 22 23 23 22 24 24 25 25 25 25 24 25 23 19 33 33 29 37 40 38 37
36 37 39 38 38 38 38 41 42 42 42 43 43 43 43 42 42 41 35 40 40 35 29 35 33 33 31 30 31 34 31 32 35 29 29 29 23 23 26 24 36 30 32 29 26 25 37 36 36 38 39 39 38 38
37 37 37 37 39 39 41 42 42 42 42 43 44 44 44 43 43 42 35 38 39 34 31 30 28 29 32 32 34 30 35 36 35 37 33 33 28 32 26 28 31 36 37 35 34 36 36 37 36 34 33 33 33 34
37 38 38 39 39 41 41 42 42 42 44 44 45 45 45 44 44 43 35 37 36 35 25 25 31 31 32 31 33 34 32 38 38 37 34 32 29 35 31 34 32 36 35 35 36 37 37 37 37 37 32 32 30 29
38 39 40 39 41 41 42 42 43 44 45 46 46 45 45 44 43 41 36 36 37 32 28 29 32 31 32 33 32 33 34 34 34 35 32 31 36 35 37 35 33 35 32 31 31 37 35 37 37 36 33 29 28 27
37 38 39 40 41 42 42 43 44 45 45 45 45 44 44 44 42 37 30 35 39 37 32 22 30 31 33 35 33 32 32 33 34 35 34 37 39 36 31 31 34 36 35 36 33 35 33 35 33 32 28 26 24 24
38 39 40 41 41 42 43 44 45 45 45 44 44 44 44 43 37 29 27 32 39 39 34 27 25 33 34 34 34 34 35 37 36 33 34 33 33 35 32 28 31 32 32 33 37 37 30 29 29 27 24 23 23 21
40 40 40 41 42 43 44 45 45 45 44 44 44 43 42 40 36 34 40 43 38 34 33 26 26 30 36 31 32 35 35 37 36 35 35 34 35 35 25 28 28 31 31 28 28 27 25 24 25 25 23 22 21 19
39 41 41 42 43 44 44 44 44 44 44 43 42 41 38 34 30 31 41 41 40 32 28 29 25 22 33 35 35 37 38 30 37 33 32 34 26 21 26 24 24 25 25 26 28 25 24 22 22 23 22 22 20 19
41 42 44 44 44 45 45 44 44 43 42 41 37 35 31 34 40 40 36 35 35 35 35 31 31 27 33 34 33 33 33 32 29 32 34 28 23 26 25 25 25 26 25 24 25 25 23 21 21 21 21 20 19 19
44 43 43 44 44 45 44 44 43 42 39 35 33 33 37 41 36 34 30 28 30 28 31 31 30 29 37 32 32 31 28 31 26 27 30 25 22 22 23 23 23 24 24 24 24 23 24 21 19 18 18 18 18 17
42 43 44 44 44 45 43 43 41 39 36 37 38 41 39 36 33 30 27 28 27 24 29 28 29 30 34 39 31 33 28 28 25 33 28 16 19 22 21 21 21 21 20 20 21 21 21 19 18 17 16 16 16 15
45 45 44 44 45 44 43 42 42 43 42 42 37 34 34 32 26 21 20 24 25 30 33 33 32 34 33 34 30 32 29 24 32 23 15 17 20 20 20 19 19 19 18 17 17 17 17 16 16 15 13 13 13 11
44 44 45 45 43 43 42 42 43 42 39 33 30 21 24 23 21 22 23 28 31 32 33 31 30 27 31 29 29 23 25 27 24 13 10 15 19 19 19 18 16 14 14 14 13 13 12 12 11 11 9 8 9 7
44 44 45 44 42 42 43 43 41 33 29 25 24 14 16 19 21 26 29 30 31 33 32 31 29 26 24 25 25 24 20 15 15 7 8 14 15 15 14 14 13 13 12 12 11 11 10 10 11 10 9 8 8 7
40 39 40 43 44 43 39 36 33 31 27 24 22 20 23 21 21 26 27 28 31 31 33 28 21 24 24 24 21 17 17 7 5 6 14 17 14 12 13 15 16 15 15 14 14 14 13 12 12 11 11 9 7 7
37 35 38 39 39 39 35 30 28 26 24 20 16 14 16 12 19 24 27 28 32 31 25 24 15 21 24 15 12 14 4 6 13 14 13 9 12 15 15 17 17 17 17 16 17 16 15 15 14 12 10 12 11 10
31 34 37 37 34 32 31 29 25 23 20 21 16 17 15 15 14 19 25 27 29 25 22 22 23 11 4 8 6 9 12 15 13 14 17 15 15 17 19 18 19 20 20 20 20 19 18 18 15 15 15 14 12 12
34 36 36 36 35 29 25 25 24 19 19 16 18 19 14 16 20 19 20 23 23 22 22 19 11 10 10 10 10 11 8 10 15 16 18 19 21 21 21 21 21 21 20 19 15 13 13 13 13 14 15 14 13 13
37 36 36 35 33 26 23 23 26 21 15 19 20 18 18 18 17 17 19 20 19 19 15 12 8 9 9 10 10 13 15 17 17 16 16 19 20 21 20 19 18 18 16 15 14 13 12 11 12 12 13 12 8 7
33 33 35 33 30 29 26 23 22 23 23 18 20 19 16 20 16 15 16 19 17 16 10 13 13 18 21 21 20 20 20 19 17 17 16 16 17 19 19 20 19 17 14 10 8 7 7 5 7 7 -2 -9 -11 -7
31 35 32 31 28 26 24 24 21 23 23 23 24 23 16 10 10 13 18 13 13 14 15 15 17 20 20 19 20 20 20 20 19 18 17 17 15 14 12 10 10 7 8 7 8 2 -0 5 5 2 -6 -9 -5 -5
36 35 31 28 22 18 19 27 20 22 16 19 22 17 13 11 14 19 11 14 13 19 19 19 20 20 19 19 19 19 19 17 15 15 13 12 10 5 8 8 5 3 5 6 8 1 -2 0 -3 -8 -10 -4 -5 -4
30 28 24 21 21 16 24 19 24 21 22 19 15 13 13 12 17 10 8 12 13 17 18 17 18 16 15 15 13 15 15 14 12 8 10 10 8 8 8 8 7 6 5 8 5 -1 -4 -11 -7 -5 -14 -13 -13 -15
18 15 20 18 23 17 15 16 17 16 10 11 10 9 12 17 5 4 3 10 14 14 14 17 17 13 9 3 9 11 14 12 9 8 6 11 5 7 6 7 5 6 5 3 -5 -8 -11 -15 -15 -14 -14 -18 -13 -15
10 12 15 17 19 16 16 9 6 8 6 6 5 14 17 5 -0 2 10 7 12 12 17 17 13 12 12 12 9 8 9 12 8 5 8 10 8 2 -1 -2 -3 -3 0 -10 -11 -9 -4 -11 -13 -14 -15 -11 -12 -15
6 7 18 21 20 21 15 12 15 10 4 7 12 5 1 -6 -5 10 15 10 10 11 17 16 14 11 9 9 9 9 9 9 8 7 7 7 6 4 -0 -3 -6 -0 -5 -10 -14 -14 -13 -15 -15 -14 -14 -10 -8 -9
13 12 5 7 7 9 -1 -1 -2 1 3 12 8 -3 -5 -4 3 12 12 13 12 14 13 13 12 11 9 7 4 3 2 1 5 5 6 4 -0 -6 -8 -10 -9 3 -11 -16 -16 -18 -17 -18 -17 -18 -17 -16 -15 -16
6 8 6 -3 -1 1 4 -0 2 9 12 8 -5 -5 1 10 9 11 13 12 10 12 10 8 4 6 5 3 0 -2 -5 -3 -4 -7 -11 -11 -12 -5 -9 -12 -12 -15 -17 -9 -1 -5 -6 -10 -12 -15 -15 -15 -17 -23
8 8 2 -5 -3 0 2 3 -1 2 8 6 11 11 9 12 15 14 12 7 6 3 -2 6 0 2 -6 -6 -14 -9 -11 -18 -16 -8 -11 -13 -9 -7 -15 -16 -17 -17 -18 -18 -18 -14 -4 -14 -10 -15 -15 -15 -16 -21
11 4 2 2 4 4 7 9 8 6 1 1 -1 1 -0 7 10 11 11 7 7 10 7 4 2 -5 -4 -12 -15 -16 -14 -13 -18 -14 -10 -12 -18 -19 -19 -19 -19 -19 -19 -20 -20 -20 -20 -21 -24 -24 -23 -22 -23 -25
1 -5 -2 0 4 8 3 -2 -0 -1 -5 -3 -2 -7 -1 -2 -4 3 10 7 7 4 -6 -3 -2 -8 -14 -15 -16 -16 -11 -14 -18 -17 -15 -19 -22 -22 -17 -13 -17 -20 -21 -21 -22 -22 -21 -21 -23 -24 -24 -23 -24 -22
-1 -3 -1 -2 -1 3 7 5 7 9 5 4 4 3 -1 -6 -7 1 5 8 1 2 -3 -9 -8 -9 -8 -9 -10 -14 -14 -18 -16 -3 -10 -11 -17 -15 -23 -24 -26 -25 -23 -24 -24 -24 -22 -21 -22 -23 -24 -25 -24 -24

GFSWCAN_sfc_dewp_069.txt.gz
Dewpoint
34 36 39 40 39 38 37 38 38 39 40 40 40 41 41 41 41 39 35 38 34 31 30 31 30 27 30 30 24 28 28 30 30 24 26 25 22 24 23 23 24 24 24 23 25 22 18 34 36 30 37 39 38 36
34 38 39 39 39 38 39 38 38 40 41 41 41 42 41 42 41 41 35 39 38 33 30 35 33 32 31 30 30 31 31 31 32 31 29 29 24 23 25 21 34 21 31 28 26 25 35 35 34 38 40 40 40 39
35 38 38 39 38 38 37 37 40 41 42 42 42 42 42 42 42 42 38 39 38 34 31 30 28 30 33 33 33 30 33 34 34 36 33 31 26 32 22 25 30 35 38 33 34 35 35 35 33 33 31 33 34 37
37 38 38 38 37 37 38 40 41 42 42 42 43 43 44 44 43 42 38 39 36 35 24 24 31 30 33 31 32 32 31 37 36 37 34 31 27 34 30 32 32 36 35 32 35 36 37 37 35 35 34 32 30 29
37 37 38 38 38 39 39 41 41 42 43 43 44 45 45 45 45 44 39 40 37 30 26 28 31 29 31 32 31 33 33 33 34 33 31 28 32 34 33 35 31 34 31 29 30 36 35 35 36 35 32 30 28 26
37 38 38 37 38 39 40 41 42 42 43 44 45 46 45 46 44 36 32 37 38 35 29 23 28 30 33 32 32 32 33 32 33 33 33 35 37 35 31 28 32 34 35 36 32 34 34 33 32 27 26 28 28 26
37 37 36 37 39 40 41 42 42 43 44 45 46 44 44 42 38 31 26 31 39 37 32 27 25 29 33 33 32 32 32 32 32 32 31 33 33 35 31 26 30 33 35 35 35 35 29 29 26 24 22 22 22 20
35 36 37 38 40 41 42 42 43 45 45 45 45 44 42 39 38 34 40 40 38 33 32 23 23 25 36 30 28 33 31 33 34 33 34 33 34 35 24 27 27 28 31 27 25 26 25 25 24 23 22 21 19 19
38 38 39 40 40 41 42 43 44 45 44 44 43 41 38 34 30 37 41 40 37 30 24 26 19 14 34 35 33 33 34 29 35 31 32 34 28 21 24 24 24 26 24 26 25 24 23 23 22 22 21 20 19 17
38 39 39 40 41 42 43 44 45 44 44 41 37 33 27 31 40 41 38 33 32 32 33 29 31 27 32 32 32 33 33 29 28 30 35 26 18 24 24 24 25 25 24 26 26 24 22 21 21 20 19 19 19 18
39 40 41 41 43 43 44 44 43 43 39 34 31 31 32 40 35 32 27 27 29 28 30 30 30 29 35 30 31 33 29 31 26 27 30 24 19 20 22 21 22 23 22 22 22 22 22 21 19 17 17 17 17 15
41 43 44 44 44 44 44 43 41 37 35 34 37 37 35 33 31 26 25 28 28 23 28 28 29 30 32 38 32 33 28 28 25 33 26 15 18 21 20 19 20 20 20 20 21 19 19 18 17 16 16 15 14 13
42 43 44 44 44 43 42 40 38 41 41 39 35 32 30 28 25 23 20 24 25 27 33 33 32 30 33 36 31 30 28 21 33 20 15 16 20 21 19 18 18 18 17 17 16 16 15 14 14 13 12 11 10 8
43 42 44 44 43 42 40 40 43 42 39 33 27 25 24 19 18 15 15 22 30 32 32 32 30 28 31 29 29 24 24 26 18 9 11 14 19 19 18 18 15 13 14 13 13 13 12 10 9 10 10 9 8 6
44 44 44 43 42 40 42 42 39 35 30 24 22 12 12 16 20 21 28 30 31 33 32 31 28 25 26 24 22 24 19 10 11 7 6 14 16 14 12 12 10 10 10 10 11 10 10 10 10 10 11 10 10 8
44 44 42 42 42 42 38 35 34 30 27 24 21 19 22 21 20 25 27 27 31 31 32 29 20 17 21 19 19 10 13 6 2 2 10 14 9 7 9 13 12 12 12 13 13 13 13 12 12 11 12 9 7 7
39 40 42 41 38 36 35 30 31 27 22 20 17 17 16 16 16 24 26 26 30 31 22 25 12 21 21 11 10 10 1 -0 2 7 12 8 10 10 12 15 15 15 15 15 15 15 15 15 14 11 10 10 11 10
38 40 39 36 33 33 30 29 27 23 19 17 15 15 12 16 12 12 23 26 27 27 21 20 19 9 1 6 4 2 8 7 7 11 12 13 13 15 17 16 17 17 17 17 17 17 16 15 14 13 12 12 11 10
38 37 37 37 34 30 28 25 24 19 17 15 17 18 17 11 14 17 22 24 23 23 21 17 9 6 3 3 -0 -3 1 6 13 12 16 17 18 18 19 20 20 20 19 19 18 16 15 14 14 14 14 13 11 11
38 37 38 37 33 28 22 24 26 20 13 17 17 16 15 15 17 15 19 20 20 19 13 8 4 8 7 12 6 9 11 17 17 15 15 18 19 18 17 19 18 18 15 14 13 11 12 11 11 12 13 12 10 8
36 35 35 32 28 27 24 23 22 22 22 15 17 17 13 18 15 14 15 18 15 14 9 9 11 17 14 15 17 18 14 15 12 14 14 15 15 17 17 17 17 15 11 7 7 5 6 6 7 6 -0 -7 -10 -8
36 36 32 32 28 25 24 24 21 22 22 22 22 20 14 8 8 12 17 13 12 10 12 14 16 19 18 17 15 18 17 18 16 16 15 15 15 14 12 9 12 7 6 3 6 2 3 7 5 1 -8 -13 -8 -7
36 34 30 27 21 15 17 26 17 21 14 18 19 14 10 11 13 19 11 13 10 14 15 19 19 19 18 20 19 19 18 17 14 12 11 10 8 2 6 5 3 4 4 6 6 2 -2 -2 -6 -11 -12 -10 -12 -12
29 27 22 19 18 17 20 17 23 21 20 18 13 11 11 12 16 8 5 9 10 17 19 18 17 16 16 15 13 13 14 13 10 8 10 9 7 6 7 7 6 5 5 7 3 -5 -8 -14 -11 -10 -17 -18 -18 -14
21 17 20 15 20 11 9 11 14 15 11 10 8 6 10 14 3 -1 3 6 10 11 14 15 13 13 7 2 6 9 12 12 10 8 4 9 6 6 5 5 3 4 3 -4 -7 -13 -14 -20 -19 -17 -16 -21 -16 -18
11 13 15 17 17 13 14 6 4 5 4 4 3 11 12 1 -3 -2 7 3 8 6 9 9 9 9 10 11 8 8 8 11 9 4 7 8 6 0 -3 -5 -6 -3 -3 -13 -13 -13 -11 -15 -17 -15 -17 -15 -16 -21
7 8 18 17 18 19 11 8 12 8 2 3 6 4 -1 -8 -7 6 13 8 11 5 12 13 13 10 8 7 8 8 8 7 6 6 5 3 3 2 -2 -5 -4 -3 -8 -13 -17 -16 -15 -15 -15 -16 -17 -14 -15 -18
11 10 7 4 5 7 -4 -4 -5 -3 2 12 8 -5 -7 -5 1 7 8 9 12 12 11 10 10 9 6 4 2 4 1 3 3 2 2 2 -2 -7 -11 -11 -10 1 -15 -20 -19 -22 -21 -21 -21 -21 -22 -20 -20 -23
5 6 6 -4 -3 -0 3 -3 -2 7 11 5 -6 -7 -0 8 6 4 10 10 12 10 6 4 -1 -0 -1 -3 -6 -8 -11 -3 -6 -12 -15 -16 -17 -7 -10 -18 -18 -19 -21 -14 -3 -10 -10 -15 -16 -19 -20 -21 -17 -22
5 4 -0 -8 -7 -3 -3 -1 -3 0 8 4 8 9 6 7 11 13 10 8 6 2 -4 3 -5 -1 -7 -6 -13 -8 -14 -20 -15 -7 -13 -17 -11 -12 -17 -17 -19 -22 -25 -22 -20 -16 -5 -17 -14 -20 -22 -23 -27 -27
7 -0 -1 0 -1 -1 1 -0 2 3 -4 -3 -1 0 -1 5 10 11 8 0 4 4 2 -6 -12 -16 -10 -16 -19 -17 -14 -14 -22 -19 -15 -15 -22 -22 -23 -23 -23 -26 -26 -25 -25 -25 -23 -25 -29 -27 -26 -24 -24 -28
-5 -9 -4 -4 -0 0 -4 -5 -2 -2 -3 -2 -1 -7 -5 -4 -6 1 7 4 0 -4 -11 -8 -3 -8 -17 -21 -22 -21 -13 -14 -19 -18 -18 -22 -23 -25 -24 -23 -27 -26 -26 -26 -28 -27 -26 -25 -26 -26 -27 -26 -27 -25
-7 -10 -8 -2 -0 -1 3 1 1 -0 -1 0 -0 -2 -10 -8 -6 -3 4 4 1 -1 -5 -13 -14 -13 -16 -12 -11 -19 -19 -22 -21 -6 -13 -14 -19 -18 -27 -30 -30 -29 -26 -27 -29 -28 -26 -24 -25 -27 -28 -29 -28 -28

GFSWCAN_sfc_dewp_072.txt.gz
Dewpoint
37 35 34 35 38 38 39 40 38 38 38 38 39 39 39 40 40 39 36 36 32 29 26 30 30 27 28 27 18 23 25 28 27 26 26 25 22 24 23 23 24 23 23 23 25 23 18 34 34 28 35 37 35 34
38 36 36 38 38 39 40 38 38 39 39 39 39 40 40 41 41 41 36 39 36 33 27 34 34 32 30 29 27 28 26 30 31 28 28 29 26 25 26 21 32 21 27 26 26 25 34 34 33 33 39 39 36 35
38 35 36 36 38 39 38 38 39 38 38 39 39 41 41 42 41 41 39 38 38 33 30 29 27 30 34 33 31 27 30 34 33 36 32 31 26 31 25 24 30 32 36 32 33 34 33 33 33 32 31 31 35 35
37 36 36 37 39 38 39 38 37 37 38 40 40 41 41 41 42 42 39 39 37 33 23 24 30 30 32 32 33 32 31 35 35 36 33 31 26 34 27 31 30 34 35 31 34 36 36 36 36 35 32 31 31 30
35 37 37 37 39 38 38 37 38 39 40 40 41 41 42 42 43 43 42 39 38 32 25 27 30 29 31 31 31 32 32 32 32 30 30 29 32 32 33 33 30 33 31 28 29 34 34 32 33 33 30 29 28 25
36 38 38 38 38 38 38 39 39 39 40 41 42 43 44 45 45 35 31 36 40 38 30 23 28 29 31 31 31 31 32 33 32 34 31 33 36 35 30 25 31 33 35 36 32 34 31 30 29 29 27 27 27 27
38 38 37 37 38 38 37 38 39 40 41 42 43 44 45 45 39 34 30 34 40 39 27 21 25 29 33 32 32 32 33 33 32 29 29 28 31 36 31 26 30 32 31 31 32 35 29 28 25 26 22 21 21 20
37 37 37 38 37 37 38 40 41 41 42 43 45 43 42 41 40 37 39 40 38 32 31 23 23 25 34 28 28 32 30 34 33 29 31 32 33 35 25 26 27 28 31 27 25 26 25 24 23 21 21 20 18 17
36 36 37 38 37 37 39 41 41 41 43 45 43 41 38 34 33 38 40 39 35 29 24 24 20 15 33 33 33 34 34 28 30 30 29 31 28 23 23 23 24 25 24 26 25 24 23 22 22 21 20 18 16 16
35 36 37 38 39 39 40 40 41 44 43 41 37 32 27 35 40 39 35 29 27 28 31 27 25 21 31 31 30 29 27 22 25 28 33 27 15 23 23 24 23 22 22 24 26 23 23 21 20 19 18 19 17 16
36 36 38 38 39 39 39 41 43 41 39 35 31 29 32 41 33 29 27 23 20 25 27 28 27 28 33 28 30 32 29 28 23 28 29 21 17 20 22 21 21 21 21 21 21 21 21 20 19 17 17 17 16 14
36 36 38 38 39 40 41 43 42 38 35 34 34 37 38 32 24 23 24 26 27 22 25 28 30 31 31 36 31 31 29 29 25 32 26 13 14 20 20 19 19 19 19 19 19 19 18 17 17 16 15 13 12 11
37 38 40 41 41 43 44 42 39 39 38 37 31 28 27 28 22 19 14 21 24 25 29 33 31 31 32 35 31 30 26 23 32 22 14 13 19 19 18 17 17 17 16 15 15 15 13 13 13 12 10 9 9 6
40 40 42 44 45 44 42 40 41 40 37 30 28 24 25 22 21 20 15 17 28 32 32 32 30 30 29 28 28 22 26 27 17 12 11 15 18 19 18 17 13 12 12 12 11 11 9 9 7 7 4 2 5 5
42 43 44 44 43 42 40 41 37 33 27 24 21 15 19 18 16 16 25 30 31 33 32 30 26 26 27 24 23 24 19 11 13 8 5 14 16 14 12 12 10 7 5 7 7 10 10 10 9 9 10 9 8 5
42 43 42 43 41 41 40 35 33 31 26 21 17 16 19 18 16 20 25 27 31 31 32 25 19 16 19 17 15 7 11 7 3 0 7 12 6 4 6 10 8 9 9 9 10 11 11 10 9 9 9 8 7 6
43 41 42 42 40 38 36 34 33 27 21 16 12 14 13 11 14 23 25 25 29 30 18 18 11 12 20 10 9 8 1 -1 -2 6 9 5 7 7 11 12 13 14 13 13 14 14 14 14 13 11 10 11 11 9
39 41 42 37 32 31 30 29 28 23 19 18 18 16 10 11 14 13 20 24 27 27 22 20 18 8 2 7 5 2 6 2 6 7 5 4 7 10 14 13 15 16 16 16 16 15 14 14 12 12 12 11 10 10
38 36 37 36 33 31 28 24 25 19 20 20 20 19 18 11 16 19 21 24 23 22 20 16 8 5 1 2 -2 -6 -1 4 11 10 11 13 14 16 17 17 17 18 18 17 17 16 15 15 14 13 13 11 9 10
38 38 37 35 33 26 23 23 25 20 15 18 16 13 12 10 12 11 18 20 20 18 13 7 2 5 5 7 3 7 7 15 15 14 13 14 16 18 16 16 15 16 15 14 12 11 11 10 10 11 12 12 10 8
35 35 35 31 28 26 24 23 21 21 21 14 16 15 11 16 14 12 14 18 15 13 9 5 14 15 7 7 12 15 12 15 10 11 13 14 15 16 17 17 16 13 10 6 5 6 7 7 7 6 -1 -8 -10 -7
36 36 31 31 26 25 23 23 21 22 20 21 19 19 10 5 6 10 16 11 9 8 9 10 13 16 16 15 13 16 16 17 15 14 14 14 12 11 8 7 9 1 2 2 7 2 1 6 3 -0 -9 -13 -10 -9
37 35 32 30 21 17 16 26 17 20 12 18 17 12 8 7 11 18 7 10 8 12 14 18 18 19 19 18 18 18 18 16 13 11 9 7 6 0 5 4 3 2 1 4 6 1 -4 -5 -7 -14 -15 -14 -16 -16
30 27 24 21 18 14 19 15 22 20 19 16 11 8 8 7 13 5 3 6 9 15 18 18 18 16 17 15 12 12 13 12 10 7 9 9 6 5 6 5 4 2 2 5 1 -7 -10 -17 -14 -12 -19 -20 -23 -20
23 18 19 10 15 11 9 7 14 12 7 6 6 4 8 11 0 -2 2 4 8 10 13 13 13 12 6 3 6 8 12 12 10 7 3 7 5 4 3 3 1 2 0 -8 -11 -13 -16 -23 -22 -20 -18 -22 -16 -17
13 14 10 12 15 11 12 5 3 3 3 2 2 11 8 -0 -3 -3 5 3 8 5 4 6 6 8 9 10 7 7 8 11 9 4 6 7 5 -1 -6 -7 -6 -5 -5 -14 -15 -17 -13 -14 -15 -14 -16 -15 -18 -22
7 7 16 16 16 16 6 5 11 5 0 2 6 2 -3 -6 -6 4 8 5 6 2 9 10 12 11 9 8 8 7 6 6 5 4 3 2 2 1 -3 -7 -6 -4 -9 -14 -18 -17 -15 -16 -17 -18 -18 -20 -20 -20
10 10 5 4 6 7 -4 -7 -7 -5 0 11 6 -7 -5 -4 -1 5 7 8 8 11 9 8 8 8 6 3 2 2 -1 0 0 0 0 0 -3 -9 -13 -13 -4 -2 -18 -22 -22 -24 -22 -21 -21 -23 -25 -22 -21 -25
4 5 6 -2 1 2 1 -5 -4 6 10 4 -6 -6 -1 6 4 3 10 10 9 9 5 2 -5 -5 -4 -5 -8 -9 -8 -6 -7 -11 -15 -17 -19 -10 -16 -21 -21 -22 -25 -18 -6 -9 -14 -14 -19 -22 -23 -24 -21 -25
3 3 -1 -9 -9 -6 -4 -2 -3 -1 7 3 6 7 5 4 8 11 10 8 4 -0 -4 -1 -8 -5 -6 -5 -11 -9 -18 -24 -16 -9 -13 -15 -12 -16 -20 -20 -21 -24 -28 -24 -22 -18 -8 -19 -16 -25 -26 -26 -30 -30
5 -2 -3 -3 -6 -4 -2 -4 -2 0 -3 -6 -5 -4 -2 4 9 10 7 4 4 2 0 -7 -12 -17 -7 -11 -16 -14 -13 -16 -25 -22 -20 -20 -23 -24 -24 -25 -27 -31 -29 -27 -27 -27 -26 -28 -31 -29 -28 -26 -26 -30
-8 -11 -6 -8 -4 -2 -6 -9 -5 -3 -2 -3 -4 -9 -7 -4 -4 2 4 2 2 1 -7 -5 -5 -9 -17 -22 -24 -24 -15 -14 -22 -22 -18 -23 -25 -27 -27 -25 -30 -30 -29 -30 -31 -30 -28 -27 -28 -29 -29 -28 -28 -29
-12 -13 -13 -6 -3 -5 -6 -4 -5 -4 -4 -2 -3 -11 -14 -7 -3 -1 2 1 1 -1 -4 -9 -17 -16 -17 -17 -15 -19 -20 -23 -18 -6 -14 -15 -21 -21 -31 -33 -33 -31 -28 -29 -31 -31 -28 -27 -28 -29 -30 -31 -31 -29

GFSWCAN_sfc_dewp_075.txt.gz
Dewpoint
38 38 38 36 36 36 37 38 39 39 40 39 38 38 39 40 40 38 36 37 33 29 26 30 30 27 29 27 23 25 25 27 28 24 26 27 25 25 24 23 26 23 24 25 23 21 17 33 34 27 34 36 34 33
40 38 38 37 35 37 37 39 40 40 39 39 39 39 40 40 40 39 35 38 37 33 27 33 33 32 30 29 28 29 27 27 30 28 26 27 27 28 26 20 31 25 28 27 25 24 34 33 33 33 38 37 35 34
39 39 38 36 36 37 39 39 40 39 39 39 39 39 40 40 41 41 39 38 37 34 31 30 27 30 34 34 33 28 29 32 34 36 32 32 27 30 25 26 29 30 36 33 32 34 34 34 32 32 33 34 34 33
38 38 40 36 36 38 38 38 39 39 39 38 38 39 40 41 41 41 39 39 37 34 25 24 30 29 32 33 33 32 29 35 34 35 30 31 27 32 27 30 29 33 35 30 33 34 34 33 34 33 31 31 30 31
38 38 38 37 37 38 37 39 40 38 37 37 39 40 40 41 41 42 42 40 38 32 26 26 30 30 32 33 32 33 33 32 32 29 29 28 31 33 32 33 28 32 30 29 28 32 30 29 30 31 29 29 29 26
39 38 37 36 38 38 38 39 38 37 37 39 39 40 41 41 42 41 31 37 40 39 32 25 31 29 31 32 31 32 32 32 33 31 32 33 34 34 29 27 30 31 31 33 31 31 29 29 29 29 26 26 26 25
36 36 36 36 38 39 39 38 38 38 38 39 40 41 42 43 43 33 32 35 41 38 31 25 25 29 33 32 33 32 34 34 33 32 30 30 29 32 33 27 27 30 30 30 32 32 27 28 24 25 22 20 21 20
36 36 38 39 38 38 38 38 38 38 39 40 41 42 43 42 40 37 39 41 39 34 32 23 23 25 34 31 31 33 32 33 33 31 32 32 32 34 27 26 27 28 30 28 28 28 26 24 22 20 20 18 17 16
36 38 38 38 38 38 38 37 37 39 40 41 42 40 39 36 36 37 41 40 38 31 25 23 20 19 34 32 33 34 34 29 32 30 30 31 28 26 23 25 24 24 24 26 25 24 23 22 21 19 17 16 16 15
36 38 38 38 38 38 37 37 38 39 40 42 38 32 30 37 41 41 36 30 28 29 31 25 26 24 31 30 30 30 30 26 23 28 33 31 21 23 23 23 22 21 21 23 25 23 22 20 19 18 17 16 16 15
37 37 37 36 36 36 37 38 39 40 41 37 32 30 38 40 33 30 26 21 22 23 26 26 27 27 33 28 29 31 27 27 21 27 27 23 20 20 21 20 20 21 20 21 20 21 22 20 19 17 16 16 15 14
36 35 35 36 37 37 38 39 42 40 37 34 36 38 38 32 25 22 24 26 24 22 27 27 29 32 32 35 31 31 28 29 25 31 27 20 18 20 19 18 18 18 18 18 18 18 18 17 17 16 15 14 13 12
35 36 36 37 38 38 39 40 42 39 38 37 32 30 26 24 15 18 15 20 23 26 27 31 31 33 34 34 32 32 27 26 32 25 20 16 19 19 18 17 16 16 16 15 15 14 13 13 13 13 11 11 11 10
36 36 37 38 38 39 41 41 41 39 36 29 25 21 21 16 21 18 20 20 26 32 32 32 32 32 32 30 29 25 27 29 21 18 15 16 18 18 17 15 13 13 13 13 12 12 11 11 10 10 10 10 9 7
38 38 38 40 41 41 42 41 40 33 28 24 23 17 20 20 22 19 22 30 31 33 33 31 29 29 28 25 25 25 22 19 18 17 14 17 18 15 13 12 11 10 9 10 12 11 11 11 11 10 11 11 9 7
39 40 40 42 43 41 41 36 33 29 26 21 18 19 22 23 23 25 27 29 30 31 32 29 24 21 22 21 19 16 17 16 14 12 12 15 11 10 10 10 9 9 10 11 12 12 12 11 11 11 10 8 7 6
40 41 43 41 41 40 37 33 29 24 21 17 12 17 17 13 17 22 23 23 27 30 25 21 17 18 21 16 15 13 14 13 10 11 13 12 11 10 9 11 12 12 12 13 14 14 14 13 13 11 11 11 11 10
41 41 41 41 35 30 29 30 26 22 17 18 17 18 16 16 18 19 21 23 26 26 23 21 20 17 15 15 13 11 11 10 11 13 12 11 11 12 14 14 14 15 15 16 15 15 14 14 12 11 11 11 10 10
40 40 40 37 34 30 25 26 27 18 18 20 20 20 16 16 20 19 21 24 22 22 20 16 13 13 12 10 10 7 9 12 13 13 13 12 14 14 15 16 17 17 17 16 16 14 15 15 15 14 12 10 10 10
38 37 36 36 31 25 22 23 25 20 18 20 19 18 16 16 16 15 19 21 19 17 14 11 11 11 11 12 11 14 13 17 16 14 14 16 18 17 18 18 17 18 17 16 15 14 12 11 12 12 13 13 13 12
33 35 33 30 27 26 24 23 21 21 20 17 16 17 14 15 13 14 15 17 16 13 11 11 14 15 11 11 14 16 16 17 15 15 15 15 18 18 18 18 18 16 12 11 11 10 10 10 9 7 8 7 6 8
34 35 30 28 25 24 23 24 21 22 20 20 19 18 12 8 8 13 16 12 11 12 12 13 15 16 16 16 16 17 17 17 16 16 16 16 16 16 16 14 13 11 10 11 11 11 10 9 8 6 7 6 3 6
36 34 30 28 18 14 16 25 18 19 13 17 16 13 11 9 12 16 10 11 11 14 16 18 19 18 18 18 18 17 17 16 15 14 13 12 11 11 12 11 11 10 10 9 9 8 9 -1 2 5 3 4 4 6
30 27 25 21 19 13 19 17 22 20 18 14 11 9 10 10 12 8 7 9 12 17 18 18 18 17 16 15 14 14 14 12 11 10 11 10 9 8 8 8 8 8 8 7 7 5 3 3 -4 3 1 3 1 2
25 20 22 16 17 11 14 10 12 12 7 10 8 7 9 12 6 3 6 8 12 14 15 17 16 14 11 9 11 12 13 13 12 9 9 9 8 7 6 5 5 5 5 7 6 5 3 -2 -2 0 0 -0 1 0
16 16 13 13 15 11 11 7 3 5 5 3 4 11 8 5 1 2 7 8 10 11 12 14 12 12 11 11 11 11 10 11 9 8 8 8 7 7 5 5 5 5 2 3 3 4 2 -1 -0 -1 1 -1 -9 -5
8 7 15 16 16 14 7 6 10 7 1 4 8 5 2 -1 -1 5 9 9 12 10 13 13 15 14 11 9 8 7 7 7 8 6 5 4 3 4 5 4 3 5 1 -0 0 2 2 -0 -1 -2 -2 -3 -4 -4
10 11 7 5 6 5 -4 -5 -5 -3 2 10 7 -1 2 0 2 7 9 10 9 11 9 7 8 10 9 6 4 3 2 2 2 3 3 2 -0 -2 -3 -0 1 -1 -4 -5 -2 -5 -2 -2 -2 -3 -4 -2 -3 -6
5 5 7 0 2 1 0 -5 -2 6 9 5 -1 -2 1 6 6 5 9 11 11 9 6 4 0 1 -1 -2 -4 -1 3 3 2 -2 -2 -1 -1 1 -4 -4 -3 -5 -5 -0 -4 -4 -4 -3 -3 -3 -6 -5 -7 -11
2 3 0 -4 -5 -3 -3 -0 -1 2 6 5 7 6 4 5 8 11 11 11 9 7 4 4 0 3 1 1 -1 -1 -7 -8 -2 2 2 1 1 -2 -4 -3 -2 -6 -8 -3 -2 -2 -4 -6 -6 -8 -8 -8 -8 -8
3 -2 -3 -2 -5 -4 -0 -1 -1 2 -1 -2 -6 -2 0 4 8 8 6 6 5 4 2 -2 -5 -4 -1 -2 -1 0 -0 -5 -14 -11 -9 -7 -7 -6 -6 -9 -10 -11 -9 -7 -6 -6 -7 -8 -8 -8 -8 -8 -11 -15
-8 -10 -7 -8 -4 -1 -2 -8 -5 -2 1 1 -2 -10 -6 -2 -0 4 4 6 6 4 2 2 1 0 -7 -9 -10 -9 -10 -7 -9 -10 -8 -8 -8 -11 -11 -12 -15 -12 -10 -10 -11 -11 -12 -11 -10 -12 -13 -13 -14 -15
-15 -15 -13 -8 -4 -6 -7 -6 -4 -2 -3 -2 -2 -10 -12 -4 -0 2 3 3 6 6 1 -3 -7 -7 -8 -8 -7 -10 -12 -11 -13 -5 -11 -12 -16 -14 -14 -15 -15 -14 -12 -11 -13 -14 -14 -15 -13 -14 -14 -16 -16 -17

GFSWCAN_sfc_dewp_078.txt.gz
Dewpoint
41 40 40 40 40 39 37 38 39 40 40 41 40 41 40 41 41 39 36 39 32 30 25 27 27 25 26 27 25 26 26 28 27 25 24 25 27 25 22 20 21 21 22 24 22 20 16 33 32 28 35 37 35 33
41 40 40 40 39 38 38 39 40 40 41 41 39 39 39 40 41 40 35 38 37 33 27 33 31 30 28 27 28 27 28 30 30 28 26 27 28 28 25 20 27 27 30 28 26 28 34 34 34 34 36 36 36 33
40 41 41 40 39 37 37 39 40 41 40 40 39 39 40 40 41 40 37 37 38 35 30 28 28 30 32 32 31 28 28 28 34 37 32 31 28 30 26 26 27 30 33 32 34 32 33 34 32 32 33 32 31 31
40 41 40 39 38 38 39 39 39 40 40 40 39 39 39 40 40 41 39 38 36 35 29 25 29 29 30 32 32 32 29 29 32 32 30 30 28 30 28 30 30 31 32 30 32 32 32 32 32 31 31 31 30 32
39 40 40 39 38 39 39 39 39 39 40 39 38 38 38 39 40 43 42 40 36 29 28 28 30 30 31 32 32 33 32 31 30 28 30 28 29 31 35 32 28 31 30 29 29 32 30 29 31 31 30 30 32 29
38 38 40 39 38 38 39 40 39 39 39 38 37 38 39 41 41 41 33 41 40 39 34 27 30 28 30 33 32 32 33 32 31 30 30 32 30 32 28 30 30 31 31 33 30 32 31 30 30 29 28 27 28 27
38 39 39 39 38 38 39 40 39 39 38 37 38 39 39 40 42 35 36 38 41 39 33 28 26 28 32 32 34 34 34 33 32 31 30 28 27 30 32 30 30 30 31 32 34 33 29 29 26 26 23 22 22 20
39 38 38 38 38 38 39 40 39 38 38 38 39 39 41 41 41 37 39 40 40 34 35 28 25 28 34 31 31 35 32 33 34 32 33 29 29 32 29 28 29 30 31 29 30 31 28 26 23 21 20 19 19 18
38 38 38 39 38 38 39 39 38 38 37 39 40 41 39 38 36 38 41 40 40 35 29 26 25 26 35 32 34 34 33 29 32 30 29 29 28 28 26 26 26 26 26 28 28 25 23 22 20 19 18 18 17 17
37 37 38 39 39 39 39 39 37 37 39 40 39 36 33 37 41 40 37 35 34 32 32 27 27 28 32 32 30 31 34 29 25 27 32 30 28 25 23 23 24 23 25 28 25 23 22 21 20 19 18 18 17 17
35 36 37 38 39 39 39 37 37 38 41 37 35 34 39 41 37 32 29 27 28 25 26 27 28 28 34 31 30 32 28 29 21 27 27 27 25 22 21 20 21 21 21 22 23 23 23 22 20 18 18 17 17 16
36 37 38 37 37 37 37 37 38 39 37 37 38 39 39 33 30 25 23 24 23 18 28 28 28 30 33 35 33 31 27 28 23 32 28 25 21 21 20 19 19 19 20 20 20 20 20 19 19 18 17 17 16 16
36 37 37 37 36 36 37 38 41 40 40 38 34 33 29 28 23 21 18 21 23 27 32 32 30 33 34 35 33 32 28 29 34 30 27 22 20 19 18 17 17 17 18 18 18 18 18 18 18 17 16 16 15 14
37 37 36 37 37 38 38 39 40 40 37 30 27 23 25 23 25 26 27 30 33 34 34 34 34 34 34 32 33 29 31 32 28 24 21 21 20 19 19 17 16 17 17 17 17 16 15 14 14 14 14 14 13 12
37 37 37 37 39 39 39 41 41 38 32 27 26 22 24 30 30 31 32 32 32 34 34 34 34 35 32 30 31 29 27 25 25 25 24 22 21 19 17 17 16 15 15 16 16 15 15 14 14 14 15 15 13 11
37 37 36 38 39 38 40 41 38 32 27 26 25 25 26 26 27 30 31 30 32 33 36 35 31 30 27 27 25 21 22 21 24 23 22 20 18 17 16 16 15 16 17 16 16 16 16 15 15 14 13 12 11 10
37 37 39 39 40 41 40 35 30 24 25 22 25 27 28 29 29 28 30 30 32 33 32 30 26 22 26 23 21 23 26 24 22 21 21 21 18 16 15 15 15 16 17 17 17 17 16 16 15 13 12 13 11 12
37 40 41 41 39 36 35 31 26 23 22 25 25 25 26 27 28 28 30 29 30 31 29 27 27 26 25 21 25 23 21 20 22 21 20 19 18 17 18 18 17 18 18 18 17 16 16 15 13 13 13 12 11 10
41 40 40 39 36 30 29 27 24 21 23 25 24 25 26 26 25 26 28 27 24 24 24 23 24 25 26 24 23 21 21 21 19 19 19 19 19 18 18 19 19 19 18 18 16 16 16 17 16 15 14 12 13 13
41 39 38 35 33 25 22 24 25 21 23 24 25 24 24 25 25 27 28 24 21 23 23 23 24 23 23 23 23 23 22 22 19 18 18 19 19 19 20 20 19 20 18 18 17 16 14 13 13 13 14 13 15 15
37 34 34 30 26 25 23 22 22 22 23 21 22 23 23 23 24 26 26 21 25 21 22 21 23 22 20 20 22 22 22 21 21 20 19 18 19 19 19 20 19 18 17 17 17 14 15 14 12 12 17 16 16 16
35 34 31 28 24 23 23 23 21 22 20 21 21 20 22 24 24 24 18 22 20 21 22 22 21 20 18 20 21 21 21 20 20 20 20 19 19 18 19 19 18 19 18 19 17 18 17 13 14 14 16 16 11 14
36 34 31 26 22 21 20 27 21 19 19 20 20 18 20 21 19 17 19 18 20 21 20 20 21 20 20 21 20 19 19 18 18 19 20 20 19 21 19 18 19 19 17 14 14 15 15 6 10 14 14 14 15 14
31 28 27 24 22 20 25 23 21 19 20 19 17 15 16 19 16 16 16 17 19 20 19 20 19 19 19 19 18 18 19 19 19 20 19 18 17 16 16 15 15 15 15 12 12 14 13 15 7 12 12 12 12 10
28 23 25 20 22 21 19 20 19 18 16 17 16 16 17 17 16 14 14 17 18 20 20 20 20 19 21 20 19 18 18 17 17 16 18 16 15 13 12 11 12 11 13 16 15 14 14 13 12 12 10 10 7 6
20 18 20 21 21 19 18 17 18 17 17 16 16 17 19 18 13 13 13 18 18 20 21 21 21 19 17 17 16 16 15 15 16 17 12 12 13 16 15 12 12 13 12 15 15 13 11 10 9 5 7 4 1 3
17 16 18 17 20 19 19 19 18 19 16 16 17 16 16 13 13 13 16 17 19 22 22 22 21 20 17 15 13 13 13 13 14 12 12 10 10 10 15 15 9 12 11 10 11 10 9 8 7 6 6 7 6 5
16 16 15 14 14 14 13 14 14 15 15 15 16 14 14 12 12 14 15 17 19 20 17 16 18 17 16 14 12 12 11 11 10 10 10 9 9 9 9 10 8 6 9 8 9 8 8 8 7 6 4 4 4 5
12 14 13 7 8 9 9 10 12 12 11 15 15 11 9 10 12 14 15 16 18 18 16 14 11 12 10 9 11 13 13 12 9 5 5 9 9 9 8 9 9 9 10 9 0 3 2 5 5 4 1 3 3 2
10 12 9 5 4 6 9 11 12 12 10 12 12 8 8 11 13 15 16 17 17 18 17 14 13 13 11 11 8 7 9 10 11 12 10 10 11 10 8 8 8 7 8 8 7 4 -2 4 1 3 2 2 3 2
10 12 7 6 6 10 10 10 11 12 12 12 11 12 10 12 13 13 13 15 14 12 12 11 10 12 12 11 12 9 9 8 1 2 6 8 8 8 7 5 6 7 6 5 4 4 3 3 3 0 -1 -3 -4 -5
11 6 6 4 6 9 11 12 12 12 12 12 10 10 9 12 9 12 10 13 13 13 11 12 11 10 10 9 8 7 5 5 4 4 5 6 6 4 4 3 2 4 3 1 1 1 -3 -4 -3 -4 -4 -5 -6 -7
6 7 7 7 7 7 9 9 7 7 10 9 10 9 9 11 8 9 9 10 14 14 12 11 9 6 4 5 5 4 2 3 2 2 0 -0 -1 1 1 2 2 1 -3 1 1 -2 -7 -8 -5 -6 -6 -7 -7 -7

GFSWCAN_sfc_dewp_081.txt.gz
Dewpoint
42 43 42 41 41 41 40 40 40 40 41 41 41 41 41 40 41 38 36 36 32 31 26 25 24 23 24 24 23 27 26 29 28 26 25 26 24 25 22 17 21 21 20 22 23 20 15 33 30 30 35 36 35 33
41 42 41 41 41 41 40 40 40 41 41 41 41 40 40 40 41 41 36 35 35 33 29 32 31 31 28 25 25 25 26 27 30 28 26 28 28 29 26 22 26 27 32 32 31 32 34 33 32 34 35 35 34 32
40 42 41 41 41 41 40 40 40 40 41 42 41 39 39 39 41 40 37 36 37 36 31 28 26 30 31 32 31 26 25 26 33 36 34 29 29 30 26 29 30 30 30 32 33 31 31 32 32 32 32 31 30 29
39 41 41 41 41 40 39 39 40 40 41 41 40 39 39 40 41 41 37 39 34 33 29 27 28 28 29 31 31 31 31 31 30 28 30 30 28 30 29 29 30 30 30 29 31 31 31 30 34 34 32 31 31 32
39 39 41 41 40 39 39 39 40 40 40 39 39 39 39 39 40 42 43 40 35 31 31 30 30 27 28 31 30 31 31 30 28 29 29 29 28 34 32 30 29 29 29 29 29 31 31 30 33 34 32 31 33 29
38 39 41 40 40 40 40 40 40 40 40 40 40 38 38 39 40 41 33 42 42 41 35 27 31 29 29 30 30 29 31 30 30 30 30 30 32 30 28 30 30 30 30 33 31 34 32 32 33 33 30 29 30 29
38 38 39 41 40 40 40 41 40 41 40 39 38 37 38 39 42 38 37 38 42 41 33 31 24 29 29 30 32 32 32 31 30 30 28 28 27 29 31 29 31 30 32 34 35 35 31 32 29 28 25 24 23 22
38 39 40 40 40 39 40 41 40 39 39 38 37 38 39 40 40 39 42 41 41 35 36 30 26 28 31 30 30 32 31 32 32 30 31 28 29 30 29 30 30 32 33 32 32 33 30 29 25 22 22 21 20 20
38 39 40 40 39 39 39 40 40 39 38 38 38 39 41 39 36 38 40 41 40 37 32 28 26 28 34 32 34 33 32 30 29 30 29 27 30 27 28 28 27 28 28 30 31 27 24 23 21 21 20 20 19 19
38 39 39 39 39 39 39 40 40 39 38 38 40 35 33 37 41 40 38 35 35 36 33 28 26 29 31 32 31 31 33 28 27 29 31 29 29 26 25 25 25 25 29 31 27 23 23 22 21 21 20 19 19 19
37 39 39 39 39 39 40 40 39 38 38 38 35 35 39 40 38 37 31 30 29 27 27 27 28 28 32 31 30 30 29 30 21 26 27 28 27 24 22 22 22 23 23 24 25 25 24 23 21 20 19 19 19 19
37 37 37 39 39 39 39 39 39 39 38 38 39 40 39 37 31 27 25 24 23 18 26 28 28 28 32 32 32 31 25 27 22 32 28 26 23 23 21 20 20 21 21 21 21 21 21 21 20 20 19 18 18 17
37 37 37 39 39 38 39 38 39 39 41 39 36 32 30 29 25 23 19 22 25 28 32 34 31 32 32 32 34 32 29 27 34 31 28 25 22 20 20 20 19 19 19 19 19 20 19 19 20 19 17 18 17 16
37 38 38 39 39 38 38 38 39 38 39 34 30 26 27 25 26 27 28 32 35 36 34 35 33 33 36 32 33 30 34 34 28 26 26 24 21 21 21 19 18 19 19 19 19 18 17 17 17 17 17 16 16 14
38 39 39 38 39 38 39 39 40 40 37 32 26 25 28 33 33 33 34 34 34 36 35 35 35 35 33 32 32 31 29 27 27 26 25 24 23 21 20 20 19 18 18 18 18 17 17 17 17 17 17 17 14 12
38 38 35 38 38 39 39 40 38 35 30 29 27 28 29 29 28 31 34 33 35 36 36 36 33 31 30 30 27 26 24 24 26 25 24 23 21 20 20 19 19 20 19 19 19 18 18 17 17 16 15 14 13 12
37 31 37 39 39 39 40 37 35 26 28 26 28 30 31 32 32 32 33 32 34 34 33 35 30 29 29 25 22 27 27 26 25 24 25 23 21 19 19 18 19 19 19 19 19 19 18 17 16 14 13 13 12 13
32 38 39 39 40 38 37 35 29 25 24 27 27 27 28 29 32 32 33 35 34 33 32 30 29 28 28 24 27 26 24 25 25 23 23 22 21 20 21 20 20 20 20 20 18 17 16 16 14 14 14 12 12 11
35 39 40 40 38 37 34 30 27 24 26 26 26 26 27 28 29 30 31 32 30 29 29 28 29 28 30 29 28 26 25 24 22 21 21 21 21 21 21 21 21 21 19 18 17 18 17 18 17 15 14 12 13 15
38 39 40 39 36 29 25 26 28 24 26 26 27 26 26 28 28 29 31 28 26 27 28 27 29 29 29 27 28 27 26 24 21 19 19 20 20 21 21 20 20 21 19 19 18 16 15 14 13 13 14 13 15 17
39 38 37 35 28 27 25 24 23 25 24 25 26 26 26 27 27 28 28 26 29 28 28 28 27 25 26 27 27 26 25 23 23 22 20 19 20 20 21 24 21 20 19 20 20 16 16 16 14 13 19 19 18 17
36 36 31 30 26 25 24 24 24 24 24 24 24 24 25 26 26 26 25 27 27 26 27 26 25 23 23 23 24 23 25 24 25 23 22 21 21 21 21 21 20 21 21 21 18 20 18 14 15 15 17 18 12 14
36 35 32 27 26 26 23 27 24 22 23 23 23 22 24 25 25 20 25 24 25 24 24 23 23 22 22 23 21 20 21 20 21 21 22 22 23 25 21 20 22 21 19 16 15 16 17 10 12 15 16 14 15 14
33 31 31 29 27 23 26 24 22 21 22 22 21 19 19 23 21 21 22 22 23 22 21 22 21 20 21 20 19 20 21 21 21 23 22 20 19 18 18 17 17 18 16 14 15 16 15 17 11 12 14 12 12 11
32 26 30 24 25 24 23 23 23 21 21 21 19 20 21 21 21 21 21 22 21 22 22 22 21 21 23 22 21 21 21 20 20 19 21 19 19 16 15 13 14 13 16 18 17 17 16 16 14 12 11 11 9 8
24 23 24 25 24 23 22 21 21 21 21 21 21 21 23 23 19 19 17 23 22 24 24 24 24 23 20 19 19 18 18 18 18 19 16 16 16 20 17 15 14 16 15 18 17 15 13 12 10 8 9 8 6 6
22 22 22 20 23 22 24 24 23 23 20 19 21 21 20 17 19 19 19 23 22 25 24 25 23 21 20 19 19 18 18 18 19 16 16 13 13 15 19 18 12 16 15 14 15 12 10 10 9 7 7 8 8 7
21 21 20 21 21 22 20 21 21 20 21 20 21 19 17 19 19 19 19 21 27 25 25 26 25 22 21 19 19 18 16 16 16 16 15 14 14 15 15 14 12 10 12 11 12 11 11 10 8 8 6 6 6 6
19 21 19 13 16 18 18 20 21 18 16 20 21 19 16 14 16 19 19 20 22 21 21 19 19 20 20 19 19 19 19 18 15 10 9 13 13 12 13 13 13 12 13 11 6 7 6 7 7 6 5 6 6 6
16 21 16 12 13 16 17 18 18 17 15 17 16 12 12 15 16 18 19 21 23 24 23 21 20 19 17 17 15 15 17 17 17 15 14 13 15 14 13 12 11 10 12 12 10 8 1 6 6 7 6 5 6 5
16 19 15 15 13 16 16 16 17 16 17 17 18 19 15 15 16 17 19 21 21 21 20 19 19 19 18 16 16 14 13 14 10 12 14 14 13 13 11 9 10 11 9 8 7 7 5 5 5 4 3 1 -0 -1
18 14 13 10 12 13 15 16 16 16 16 16 15 16 15 16 14 16 17 21 20 20 18 19 18 18 19 18 15 15 13 11 10 10 10 11 11 9 8 7 7 8 6 5 5 4 1 -0 1 1 1 1 -0 -2
13 15 14 12 11 11 14 14 12 12 14 14 14 15 17 17 12 14 15 17 21 20 19 18 16 14 12 12 11 11 8 9 6 6 5 5 5 5 7 7 7 6 1 5 5 3 -0 -1 -0 -1 -1 -2 -2 -3

GFSWCAN_sfc_dewp_084.txt.gz
Dewpoint
42 43 43 43 42 41 41 41 42 41 41 42 41 41 40 40 40 38 38 38 34 32 27 24 23 22 24 23 24 26 24 28 26 25 26 23 24 25 28 23 19 20 23 24 25 26 23 31 30 29 34 35 33 30
43 43 43 42 42 42 41 41 41 41 42 41 42 41 41 40 41 40 38 37 35 30 31 33 31 30 28 27 25 25 25 27 31 28 26 27 24 31 29 24 29 28 30 30 28 28 33 31 32 32 32 32 32 30
42 43 42 42 42 42 42 41 41 41 42 41 41 40 40 40 41 40 42 37 34 35 32 30 27 31 31 31 31 26 28 31 30 34 33 29 26 30 26 28 30 30 30 32 32 30 29 31 31 31 31 30 30 30
41 42 42 42 42 42 41 41 41 41 41 41 41 40 39 39 40 40 39 40 34 32 30 29 29 27 28 30 30 31 30 31 30 27 31 28 26 31 29 30 31 29 28 29 30 32 31 28 34 31 32 31 32 32
39 41 41 41 42 41 41 40 41 41 41 41 40 40 39 40 40 39 38 40 39 33 32 30 32 27 28 30 29 29 29 28 26 28 28 26 25 33 33 32 27 29 28 26 27 31 30 30 33 31 30 33 34 29
39 40 41 41 41 40 39 39 39 40 41 41 39 39 39 39 39 40 34 39 39 40 34 28 31 29 29 29 29 29 29 30 30 29 29 26 28 33 28 28 32 29 30 31 30 33 32 33 34 33 31 30 31 30
39 40 39 40 41 40 40 40 40 40 40 40 39 39 38 38 36 37 36 38 43 42 34 29 25 27 27 28 31 32 31 30 28 29 27 27 26 30 31 28 29 28 29 33 35 35 32 32 30 32 29 26 24 22
38 39 39 41 40 41 41 41 40 41 40 40 39 37 37 39 39 37 41 42 42 36 35 29 26 28 31 28 30 35 31 31 32 29 30 29 28 30 28 28 27 29 32 32 33 34 31 31 26 25 24 22 21 20
38 39 39 40 39 40 41 41 41 40 40 39 38 37 39 38 36 37 40 42 41 37 32 28 25 26 33 31 32 33 32 29 30 32 29 27 30 27 29 27 26 28 30 31 32 33 28 25 22 21 21 21 20 20
38 39 40 40 40 40 40 40 40 40 39 38 38 35 33 37 42 40 38 34 34 35 35 30 27 28 30 32 31 30 32 28 26 29 30 30 29 27 26 26 26 26 29 32 33 29 26 23 21 21 20 21 21 20
37 39 40 41 40 40 40 40 40 40 39 37 35 33 40 42 38 36 32 30 29 29 28 27 28 29 30 30 29 29 28 29 23 28 27 27 26 25 23 23 24 24 23 24 25 25 25 24 23 21 20 20 18 17
37 38 39 40 40 40 40 40 40 36 36 36 38 39 39 36 34 29 26 26 26 20 26 29 28 28 32 32 32 32 26 27 20 32 27 23 24 23 22 22 22 23 22 22 22 22 22 21 21 20 18 17 17 18
37 38 39 39 40 38 39 40 39 39 40 40 37 34 34 31 26 22 19 21 24 27 32 34 32 33 32 31 34 30 27 25 34 30 27 25 23 22 21 21 20 20 20 20 21 21 20 20 19 18 17 19 17 16
39 39 39 40 39 39 39 40 39 40 38 35 31 26 28 24 25 26 28 33 35 36 34 36 33 34 36 34 33 26 33 32 28 24 25 23 23 23 22 21 19 20 21 19 19 18 18 17 17 17 17 18 15 13
39 39 40 39 39 39 39 39 40 38 35 34 30 25 26 32 33 34 35 35 34 35 36 34 34 33 31 30 32 30 28 25 27 25 25 26 24 22 21 21 20 19 19 19 19 18 18 18 18 17 17 16 14 12
38 38 36 39 39 39 39 39 38 37 36 31 29 27 31 31 31 31 32 33 35 35 36 35 33 31 30 29 29 25 24 24 25 25 25 23 23 22 21 20 20 21 21 19 19 19 19 19 17 15 15 15 13 13
37 34 38 39 39 39 39 37 36 35 33 29 28 31 32 33 33 33 34 34 36 34 32 33 31 30 32 27 24 27 27 26 25 25 25 24 21 21 21 20 21 21 21 20 20 20 18 17 17 15 14 14 13 14
32 38 39 39 39 38 36 37 35 30 25 27 28 29 30 32 33 33 33 35 34 33 33 33 31 27 26 23 28 27 26 27 26 24 23 23 21 20 21 20 22 21 21 21 19 18 17 17 15 15 14 13 12 12
37 37 39 39 37 37 35 33 30 25 27 28 28 28 29 30 30 31 32 33 33 32 30 29 29 27 30 29 28 27 26 25 23 22 22 22 23 22 22 22 22 21 20 18 17 18 18 17 17 15 14 13 14 16
39 39 40 39 39 35 27 28 29 26 25 27 28 26 28 29 29 31 32 31 29 28 28 27 29 28 28 28 31 28 28 26 21 20 20 21 21 22 21 20 20 20 19 19 18 19 15 14 13 12 15 13 15 19
39 39 39 39 36 29 26 26 24 26 26 26 28 26 27 28 28 29 29 28 28 30 30 28 27 26 29 31 30 28 28 24 23 22 19 19 21 20 20 23 20 19 20 19 20 17 15 16 15 13 18 19 19 17
38 39 37 37 31 26 25 26 26 26 24 25 25 26 26 26 27 28 28 27 30 29 28 28 25 24 24 24 25 25 27 26 26 23 23 22 21 21 23 21 21 22 23 22 19 21 18 15 15 15 17 19 13 16
39 37 33 30 29 27 24 28 25 24 23 24 24 23 24 24 26 23 24 26 26 27 26 24 24 24 25 25 24 22 23 22 22 23 23 23 23 26 23 23 24 23 20 16 14 16 18 9 12 15 16 15 16 16
36 35 32 30 28 25 26 24 23 22 24 23 22 20 21 24 23 22 22 25 25 25 24 25 23 22 21 21 20 21 23 24 24 26 24 22 21 21 21 19 19 19 18 16 15 16 15 17 11 13 16 13 14 15
31 28 31 25 27 25 23 23 23 22 22 22 21 21 23 23 21 21 21 24 23 24 24 24 24 23 23 24 24 25 25 22 21 21 24 22 22 19 17 15 15 14 15 18 17 17 17 17 15 14 12 13 12 11
25 25 26 26 25 24 24 22 22 22 22 21 22 23 23 22 20 20 22 25 23 25 26 27 26 24 24 22 19 19 20 22 21 21 18 18 19 21 19 16 15 15 16 18 17 15 14 14 12 10 10 9 5 7
24 23 24 23 25 23 25 26 24 23 21 21 23 21 21 18 19 21 22 25 26 27 26 28 28 25 23 21 21 21 21 21 22 18 17 16 17 19 20 18 17 16 16 14 14 12 11 11 10 9 9 9 10 10
24 24 21 23 23 24 22 23 22 22 22 23 22 19 19 21 20 21 21 24 29 28 29 29 30 28 23 22 21 20 19 18 19 18 17 16 16 16 15 14 12 13 11 11 12 11 11 10 9 8 8 7 8 9
21 23 22 20 21 22 22 22 23 21 19 22 24 22 19 17 19 20 19 23 26 24 23 22 23 24 23 22 22 21 20 19 16 13 12 13 12 13 14 14 13 13 14 10 7 10 7 8 7 6 5 6 7 8
19 23 20 17 17 19 21 21 22 20 18 20 19 14 15 17 18 19 20 21 22 23 23 21 21 21 20 19 19 19 21 20 20 17 15 15 15 14 14 13 12 11 12 11 10 8 5 7 9 8 7 7 7 5
19 21 19 18 17 19 19 19 19 19 19 20 20 23 18 15 17 19 23 25 26 25 22 21 21 21 20 18 16 15 13 14 14 16 16 16 15 15 13 12 12 11 10 8 7 7 4 5 6 5 4 3 3 2
20 19 17 15 15 15 17 18 17 18 17 17 17 18 16 17 14 15 19 22 22 21 23 22 21 21 21 18 17 17 14 14 13 14 13 14 12 10 9 8 9 9 7 6 6 5 3 2 3 3 3 1 0 -1
16 17 18 15 13 13 16 17 15 15 17 17 17 16 17 19 14 15 17 19 23 22 22 21 19 18 16 15 14 14 11 10 9 9 8 8 8 9 9 9 8 7 5 5 5 4 3 1 0 -1 -0 -1 -3 -4

GFSWCAN_sfc_dewp_087.txt.gz
Dewpoint
43 43 43 43 43 42 42 41 41 42 42 42 42 41 40 40 41 39 38 37 35 30 30 30 28 23 25 26 22 25 24 26 25 20 25 18 16 24 25 31 27 23 24 24 25 22 21 30 30 26 34 32 29 28
43 43 43 43 42 42 42 42 42 42 42 42 43 42 41 40 41 40 36 36 35 31 30 32 32 32 30 29 27 27 24 27 28 22 23 25 24 28 28 24 32 28 31 27 27 26 33 31 31 33 32 32 30 28
42 43 43 43 42 42 42 42 42 41 42 42 42 41 40 39 40 41 39 38 34 30 31 31 30 32 32 30 30 26 31 32 30 32 25 26 23 28 25 28 29 29 29 30 30 29 29 32 33 33 34 31 29 29
42 43 43 42 41 42 42 42 41 41 42 42 42 42 41 39 40 39 37 40 37 32 24 30 31 29 32 32 32 31 30 32 31 29 26 24 23 30 29 31 28 28 28 28 30 31 29 30 33 34 33 31 30 30
42 43 42 41 42 42 42 41 41 41 41 41 41 40 39 39 40 38 39 39 39 34 28 28 31 31 29 30 30 31 30 28 27 26 24 24 26 31 31 32 26 29 27 24 24 30 29 30 33 32 30 32 30 27
41 42 41 42 41 42 41 41 40 41 41 41 40 40 40 40 39 37 29 38 40 38 28 22 31 30 30 30 30 31 30 29 28 26 25 28 28 32 23 23 29 28 31 31 28 32 30 32 33 32 29 30 29 28
40 41 41 41 41 41 40 41 40 41 41 41 41 40 39 40 38 35 34 38 42 40 31 25 26 28 30 30 30 32 32 31 28 27 26 27 26 34 26 24 28 28 30 32 34 33 29 31 29 29 26 24 24 23
40 40 40 40 41 40 40 40 40 40 40 41 41 39 39 39 37 35 39 41 41 35 34 26 24 27 31 27 27 35 31 29 29 28 29 28 30 29 25 28 29 29 31 31 33 32 31 30 28 27 26 22 21 21
39 40 39 41 41 41 40 40 40 40 41 40 39 39 37 35 32 36 42 41 40 34 28 25 20 16 35 30 30 31 32 22 30 25 28 29 23 23 28 27 26 27 29 30 32 29 26 23 21 21 22 21 20 20
39 40 39 41 40 41 41 40 40 41 40 40 36 32 29 34 41 39 37 33 32 34 34 27 28 23 32 26 24 26 26 24 23 27 30 22 24 28 27 27 27 29 32 29 31 27 27 22 21 22 21 21 21 21
38 39 39 40 40 40 41 40 40 40 39 34 30 30 38 41 37 35 30 28 25 28 28 28 28 25 32 22 25 30 27 27 24 28 25 21 23 25 25 25 25 24 25 27 26 25 24 23 21 19 19 18 17 16
37 38 39 39 40 40 40 40 40 35 34 34 37 39 38 35 32 29 26 25 27 22 26 25 26 29 30 33 28 30 26 26 22 30 24 17 24 25 23 23 22 23 23 23 23 22 23 21 20 18 17 17 16 15
37 39 39 40 40 40 40 40 39 40 40 38 36 32 32 29 25 17 14 19 17 25 26 26 23 28 29 32 29 30 26 22 32 27 22 22 23 23 22 21 21 21 22 21 20 19 18 18 17 17 16 12 13 10
39 39 39 40 40 40 40 40 40 39 36 32 30 21 24 18 18 19 22 23 26 27 27 26 25 24 26 25 25 25 23 30 26 20 21 23 24 23 22 21 20 18 17 17 16 15 13 11 10 10 10 6 6 2
39 39 39 39 39 40 40 40 39 37 34 31 31 20 18 27 30 31 32 32 33 33 27 26 26 27 29 26 28 25 22 20 24 21 22 22 21 19 17 17 14 13 12 13 11 12 12 12 13 10 4 3 2 -1
39 39 36 39 39 40 40 39 37 36 33 31 28 26 27 28 28 28 29 30 34 32 33 32 30 27 24 25 25 24 25 22 22 23 23 22 19 18 16 15 15 17 15 13 12 13 12 11 8 6 4 3 1 1
36 34 39 39 40 39 39 35 34 30 30 28 26 26 30 31 30 31 30 31 34 32 28 28 26 23 31 24 22 23 23 23 24 24 24 20 19 17 16 18 16 16 16 16 16 15 11 10 11 13 12 12 12 12
34 38 39 39 39 37 36 36 33 31 28 28 25 28 29 30 31 31 32 31 32 32 31 31 31 23 16 20 25 25 25 25 24 22 20 19 17 16 17 16 19 20 20 18 15 14 14 14 16 17 16 16 15 15
37 38 39 39 36 35 32 33 35 27 28 28 27 28 28 28 30 31 32 32 32 33 29 28 24 23 26 28 26 25 24 22 19 19 19 15 16 19 20 21 21 21 16 16 17 17 18 19 17 18 18 17 15 18
39 39 39 38 38 35 32 32 33 28 24 26 29 27 28 28 29 30 30 31 31 30 26 25 26 26 27 28 28 25 26 23 19 18 19 21 20 21 21 21 22 19 19 20 19 15 17 17 17 16 13 12 10 8
38 38 38 37 35 35 29 28 28 28 27 26 29 27 27 28 28 28 29 30 28 27 27 27 26 26 28 29 29 27 23 21 19 17 17 18 21 21 20 22 20 20 18 15 14 12 10 16 15 15 7 4 3 4
37 38 37 37 33 30 26 27 28 28 26 26 26 28 26 24 26 27 30 27 27 26 27 24 22 25 26 26 26 26 24 25 23 20 19 20 20 18 22 19 18 20 21 18 19 15 14 14 12 10 5 5 5 6
36 36 34 33 29 26 25 30 25 26 24 25 27 25 25 26 27 25 22 26 24 21 23 24 23 25 26 26 25 25 24 22 21 21 20 20 19 23 19 19 23 20 16 15 17 14 7 7 3 2 2 2 2 2
39 33 30 28 29 24 25 25 26 24 26 24 24 22 23 25 24 19 22 23 20 21 24 23 24 23 22 23 20 21 24 23 22 20 24 23 22 21 21 20 18 16 16 17 15 11 8 2 2 4 3 5 -2 -3
29 26 29 25 27 23 21 21 23 22 17 20 20 21 22 22 20 20 20 19 22 25 21 24 23 21 16 15 18 23 24 24 23 21 17 21 19 18 17 15 13 13 14 7 5 4 4 7 2 -1 -1 -5 -4 -6
26 25 25 25 24 22 21 20 21 21 22 19 22 23 20 22 18 17 20 20 20 24 23 25 24 22 23 23 21 22 21 23 23 21 21 20 19 15 11 10 6 7 11 6 3 1 2 3 -2 -5 -6 -4 -3 -7
22 23 24 25 27 26 24 27 26 24 21 19 23 19 21 16 15 16 18 20 23 18 24 27 25 26 22 20 20 19 20 21 18 16 16 17 16 14 12 9 12 9 7 5 3 -2 -2 -4 -6 -7 -8 -8 -4 -2
25 25 13 17 22 25 22 22 21 20 21 25 24 20 18 17 12 16 17 19 26 23 25 27 28 25 20 18 18 16 15 15 15 14 14 13 11 8 4 4 6 9 1 1 1 1 -0 -6 -7 -8 -8 -10 -10 -9
18 23 22 22 21 17 22 20 20 18 19 20 23 19 11 14 16 14 14 21 23 21 19 19 20 20 19 19 18 17 16 13 10 6 3 -0 -1 3 1 -1 -1 2 1 1 9 3 -1 -5 -8 -10 -9 -9 -8 -3
20 24 17 11 10 15 16 16 17 17 17 16 16 14 13 12 10 13 16 19 17 18 17 18 19 18 17 16 17 16 15 12 10 9 8 6 5 5 3 1 -1 0 5 7 3 -1 5 -4 -1 -3 -5 -8 -11 -14
22 22 19 17 15 16 17 16 14 13 13 13 12 16 10 7 9 12 17 19 19 22 18 18 18 18 18 16 13 10 6 7 7 10 12 11 9 7 5 3 1 2 3 0 -1 -8 -10 -11 -12 -12 -13 -13 -11 -14
19 20 17 14 10 14 12 12 12 12 10 9 13 12 9 7 4 7 12 17 20 18 15 18 18 18 17 16 15 14 10 8 7 9 7 7 6 4 4 1 2 2 -0 -2 -6 -10 -13 -13 -14 -15 -16 -17 -18 -20
16 18 17 12 6 9 12 13 13 13 14 14 15 10 9 12 7 7 9 13 13 21 19 16 16 15 14 12 10 8 7 5 6 9 8 7 5 6 3 3 1 -0 -1 -5 -9 -11 -13 -14 -16 -17 -18 -21 -23 -24

GFSWCAN_sfc_dewp_090.txt.gz
Dewpoint
44 43 42 44 43 43 43 43 43 42 42 42 41 40 41 40 41 39 36 36 33 28 30 31 31 26 25 25 21 23 22 24 24 20 21 15 14 22 25 28 28 25 25 24 25 22 19 29 28 25 31 32 27 26
43 43 43 43 43 42 42 42 43 42 43 43 42 41 40 41 40 41 34 37 35 29 29 31 31 31 29 28 26 25 23 27 26 20 21 21 21 24 25 24 32 24 27 25 25 23 32 32 31 34 33 31 29 28
42 43 43 43 42 43 43 43 42 42 42 43 43 41 40 40 41 40 36 37 34 28 28 30 28 31 31 29 30 25 30 31 28 28 22 23 19 26 23 27 27 26 32 28 27 28 28 32 33 32 32 28 27 26
43 43 43 43 42 42 42 43 42 42 42 42 42 41 40 40 40 40 36 37 35 30 23 30 32 30 33 30 30 30 29 31 30 29 23 20 21 28 26 31 25 26 27 27 26 28 29 29 31 32 29 29 28 28
42 42 43 42 42 42 42 42 41 41 42 41 41 41 40 40 40 38 37 37 38 30 24 25 30 30 30 32 31 30 29 28 27 24 21 21 26 27 30 28 25 28 26 24 20 27 27 28 30 31 30 28 26 24
43 43 43 42 41 42 42 41 41 41 41 42 41 40 40 40 39 32 26 36 39 36 25 20 30 28 30 30 30 29 29 28 27 25 23 27 28 27 24 20 28 30 30 31 24 30 30 31 30 30 28 27 26 25
41 42 41 41 41 42 41 41 41 41 41 41 41 40 40 40 36 31 29 38 41 35 23 19 24 29 30 30 30 32 33 30 27 26 25 25 25 31 25 23 28 28 31 32 34 31 28 30 28 29 26 24 26 25
41 42 42 41 41 41 41 40 40 41 41 41 41 40 40 41 38 34 39 41 39 32 31 18 22 26 30 26 27 32 29 29 29 26 27 27 28 30 24 28 28 29 30 31 31 32 29 29 30 25 22 22 21 21
41 41 41 41 41 41 41 40 40 41 41 41 40 39 35 32 29 35 41 40 38 30 27 24 18 14 31 28 28 30 30 20 27 23 26 29 24 23 25 28 27 28 30 29 33 30 25 23 23 24 21 20 20 20
41 41 41 41 41 40 40 40 40 41 41 40 34 28 27 30 41 37 34 30 32 32 31 25 27 21 28 21 21 24 24 23 20 25 28 22 23 28 28 28 29 31 30 32 30 27 24 23 21 21 21 21 19 18
40 39 40 41 41 41 40 40 40 40 37 31 29 28 38 40 35 33 27 25 25 25 27 27 26 23 30 20 21 28 28 29 25 25 26 23 22 25 26 24 25 28 28 28 27 26 27 22 20 18 18 17 17 16
38 39 40 40 41 40 40 41 40 34 32 31 35 39 38 34 30 25 23 24 24 22 25 24 25 27 27 32 24 29 26 27 23 30 24 16 21 25 24 23 23 23 22 21 21 21 21 19 18 17 16 15 14 12
38 39 40 40 40 40 41 40 39 40 38 37 36 30 29 28 23 17 11 18 15 22 23 23 27 27 28 28 23 29 27 23 30 21 19 18 23 23 21 21 21 21 20 18 18 18 17 17 16 14 12 8 9 7
39 40 41 39 40 40 40 40 40 38 34 28 27 23 22 14 14 16 18 17 22 22 24 22 21 22 23 22 21 24 22 30 20 17 17 18 22 22 21 21 19 16 15 15 13 12 10 10 7 6 5 1 2 -1
39 39 40 39 40 40 39 40 38 35 32 29 30 18 16 22 28 29 31 30 29 33 24 22 23 25 22 22 27 25 24 21 23 20 17 19 20 18 16 14 12 9 8 8 5 7 8 8 6 0 -3 -4 -2 -5
40 40 38 39 39 39 39 37 35 33 31 30 29 27 28 27 27 28 29 29 33 32 30 29 27 25 25 24 25 23 24 21 14 16 21 21 17 11 11 11 9 9 10 11 10 9 8 5 5 3 -1 -1 -3 -3
39 35 39 39 39 39 37 33 33 27 28 29 25 26 28 28 28 27 30 31 33 31 26 27 25 20 29 21 21 24 21 12 19 21 21 18 15 11 10 14 15 14 12 11 10 12 9 7 9 11 10 10 9 10
35 38 39 39 37 36 34 34 29 29 25 28 18 18 18 27 30 31 31 31 31 31 31 29 31 25 13 17 20 21 21 21 22 17 16 14 14 13 16 13 13 14 14 14 14 12 12 12 13 14 15 14 13 14
37 38 39 38 35 32 27 29 34 26 26 27 27 27 27 28 29 30 30 31 32 33 29 26 21 19 25 25 16 14 19 12 14 13 11 10 14 15 14 16 16 15 16 16 17 16 16 17 18 18 17 17 15 14
39 39 38 39 38 33 29 31 34 27 19 20 27 25 26 27 28 28 29 30 30 30 28 23 21 22 21 21 22 21 19 19 18 16 14 13 15 17 17 19 19 18 17 18 19 17 17 16 16 14 13 13 7 5
38 38 38 35 35 35 32 28 27 28 27 26 27 27 26 28 27 27 28 30 29 28 24 26 25 21 23 22 25 23 20 20 17 16 16 17 19 19 19 20 21 19 17 16 12 11 11 13 13 12 5 -2 -4 -1
36 38 36 36 32 31 26 27 27 27 26 26 26 28 25 24 25 27 30 28 27 24 27 21 21 23 23 23 22 23 21 21 20 19 18 19 19 17 18 16 17 14 15 12 16 10 8 12 10 8 1 -2 1 2
36 36 33 33 29 25 21 29 24 25 20 24 27 25 24 25 27 27 23 23 19 19 21 22 23 26 23 23 25 25 24 21 19 19 19 19 17 15 18 15 16 17 17 14 16 11 7 5 3 -2 -3 -4 -7 -7
37 32 28 27 28 22 24 19 25 25 27 25 24 22 23 24 24 19 16 19 15 18 21 21 24 22 24 24 20 21 22 21 20 17 19 20 21 20 19 17 17 17 16 16 13 9 5 -2 -2 -1 -7 -6 -8 -8
25 25 28 21 25 21 21 23 23 22 18 22 23 21 21 22 15 17 16 13 21 23 21 18 20 21 14 10 16 20 21 21 20 20 19 21 18 17 15 13 12 12 12 7 -0 -2 -4 -8 -8 -7 -7 -10 -8 -10
25 21 21 19 23 22 21 19 20 21 22 19 21 23 19 15 15 14 18 10 14 18 21 20 17 17 19 21 20 22 21 23 22 18 18 20 18 14 10 7 5 5 6 5 2 -4 -1 1 -3 -5 -9 -8 -10 -13
16 16 21 25 25 27 24 25 25 23 20 19 21 18 19 15 13 12 14 16 16 11 18 23 23 21 20 19 19 19 20 20 19 16 15 14 12 12 12 8 5 6 3 2 -2 -2 -4 -8 -11 -12 -12 -16 -14 -13
20 19 15 16 19 22 21 21 15 18 21 22 19 14 10 10 10 11 12 16 22 23 23 23 25 22 19 18 17 16 15 14 12 11 10 7 6 5 7 8 8 9 1 -0 -3 -4 -3 -4 -6 -11 -13 -13 -16 -20
14 17 19 17 15 12 21 21 20 16 18 18 14 9 7 10 10 5 12 17 17 18 16 16 17 18 17 17 16 16 15 14 10 5 2 -3 -6 -0 -4 -1 0 -2 -3 -0 6 -0 -2 -6 -9 -11 -13 -13 -12 -14
16 18 12 7 10 9 9 11 10 10 14 11 12 12 10 5 3 4 9 15 13 10 6 14 17 18 16 15 12 10 11 8 10 10 5 -0 -0 3 1 -0 -4 -6 -6 -2 -4 -2 4 -4 -3 -8 -13 -15 -19 -20
20 18 12 9 4 7 6 6 5 5 3 3 -0 4 3 0 4 3 6 8 17 15 17 15 14 16 16 14 11 10 8 10 9 10 10 9 8 4 1 -2 -2 0 1 -2 -5 -8 -11 -15 -21 -22 -20 -20 -23 -26
16 16 14 7 5 9 10 8 4 1 -1 0 1 -2 -0 -2 -2 -0 3 6 16 15 6 14 15 11 14 15 14 12 11 10 10 9 9 7 5 3 3 2 1 1 -1 -4 -7 -11 -15 -17 -22 -23 -24 -27 -29 -29
17 18 13 10 7 6 5 10 7 6 3 -1 1 3 2 4 3 3 3 10 12 14 16 12 12 13 12 12 10 8 9 9 9 10 7 6 3 4 2 -0 -0 -1 -2 -6 -10 -12 -15 -19 -24 -27 -29 -30 -31 -32

GFSWCAN_sfc_dewp_093.txt.gz
Dewpoint
42 45 44 43 43 43 43 43 43 42 41 41 40 40 40 41 42 35 34 36 31 28 29 30 30 25 25 25 20 22 21 22 22 19 18 13 11 22 21 22 26 25 22 22 23 21 18 29 28 23 29 30 28 26
43 44 43 43 44 43 42 43 43 43 43 42 41 40 40 41 43 38 34 38 35 30 29 31 30 30 27 26 25 26 22 26 24 19 19 20 19 21 20 19 30 23 26 23 23 22 31 31 29 31 32 30 28 27
43 43 43 43 43 42 41 43 43 43 43 42 41 40 40 41 42 39 35 36 32 29 29 29 27 30 30 28 28 27 29 31 28 26 21 21 20 24 17 21 23 26 30 27 26 27 27 30 30 31 29 27 27 27
42 43 43 43 42 42 43 42 43 42 42 43 41 40 41 41 41 39 36 36 34 29 24 28 31 29 32 30 29 30 31 30 30 28 21 19 21 26 23 28 22 25 26 26 25 28 28 29 30 29 28 28 28 27
43 42 42 42 42 43 42 42 42 42 42 42 41 40 41 41 40 37 37 37 37 28 24 25 28 30 31 30 30 29 28 27 26 23 20 20 25 25 30 24 22 28 26 24 20 27 27 27 29 31 27 26 27 24
42 43 43 42 42 42 42 42 42 42 42 42 40 40 40 40 35 32 27 35 39 34 24 20 28 28 29 31 30 29 29 27 26 24 22 25 27 25 21 17 26 30 31 31 26 30 30 29 30 29 27 26 25 24
42 43 42 42 42 42 42 41 41 42 42 42 41 40 40 40 37 31 28 36 39 32 20 18 24 28 30 31 32 32 33 29 28 26 25 24 25 29 22 19 27 29 31 31 33 29 27 29 27 30 27 25 24 22
43 43 42 41 42 42 41 41 41 41 42 41 40 41 41 38 36 34 40 40 34 30 26 18 21 25 29 26 29 31 30 29 28 25 26 26 27 29 22 25 28 28 30 30 32 32 28 28 24 23 23 22 22 20
42 41 41 42 41 41 40 40 41 41 41 40 39 36 33 31 28 34 38 37 35 29 21 21 18 14 28 27 28 28 28 21 28 22 25 26 22 25 25 26 28 29 28 25 31 29 26 28 25 21 21 20 19 19
42 40 41 41 41 40 40 40 41 41 40 37 32 26 18 29 38 35 31 27 28 31 31 22 25 20 26 19 20 22 23 23 19 23 26 20 22 28 28 29 29 30 30 32 25 24 24 22 21 21 20 20 19 19
41 41 41 41 41 41 40 40 41 39 35 30 23 29 34 40 35 30 25 23 25 24 25 26 25 22 29 19 20 25 25 26 22 22 23 23 21 25 26 27 27 27 27 26 26 27 26 23 20 19 18 17 17 17
40 41 41 41 40 40 40 40 38 32 29 29 35 37 37 32 29 23 22 24 23 21 24 23 25 26 26 30 22 25 28 28 23 31 26 17 18 24 24 23 23 23 23 23 25 23 22 20 19 17 16 15 13 11
39 40 40 41 40 41 41 39 39 38 38 38 33 30 28 29 20 16 14 19 15 22 22 23 20 23 26 27 21 24 26 23 28 24 16 15 21 23 22 21 21 20 20 19 19 18 18 16 15 14 11 7 8 5
39 40 41 41 40 41 40 40 39 36 32 27 25 21 20 18 17 15 16 16 22 21 23 21 21 21 22 21 23 21 17 26 19 15 15 16 21 21 21 21 19 16 14 14 12 11 9 8 3 1 0 -3 1 -2
39 40 40 40 41 40 40 39 37 33 29 27 28 15 20 23 25 29 30 30 29 30 22 21 23 23 19 16 25 24 23 20 23 20 14 20 21 19 16 13 12 9 6 5 2 5 4 3 3 -2 -6 -6 -3 -8
39 40 37 40 40 40 38 36 34 31 30 28 28 24 27 26 26 28 28 29 33 31 29 25 22 17 19 24 24 21 23 18 19 14 11 17 15 11 10 10 7 6 6 5 6 5 3 2 3 0 -4 -4 -6 -6
39 36 39 39 39 38 36 32 29 27 26 26 25 26 27 27 27 26 29 30 33 31 26 26 23 18 25 23 20 24 20 11 21 15 14 14 13 9 7 8 9 12 10 10 8 10 6 6 7 10 8 8 7 8
36 38 39 39 36 35 33 32 26 27 24 21 19 20 25 26 30 31 30 32 31 31 31 28 30 25 17 16 19 14 19 20 15 13 7 7 9 9 13 12 11 13 13 12 13 12 10 10 12 12 14 13 12 13
37 37 39 37 33 30 27 29 32 25 24 26 27 27 27 27 29 29 30 31 32 34 31 28 25 21 19 18 12 8 6 13 16 12 7 7 13 14 12 14 14 14 15 15 16 15 13 14 15 15 16 16 11 11
39 39 38 38 37 29 27 29 33 28 21 21 27 25 25 25 28 28 28 30 30 30 26 20 19 15 16 15 16 15 15 16 16 14 10 10 12 15 15 17 17 17 17 18 17 16 16 15 15 14 14 13 7 5
37 37 37 35 33 34 32 29 28 29 25 25 25 26 21 27 26 26 27 30 28 25 20 17 17 17 20 19 19 20 19 19 14 15 14 14 17 18 19 18 19 18 16 13 12 10 10 12 12 12 5 -1 -6 -4
37 37 34 33 29 30 30 28 25 26 24 25 25 28 23 23 24 26 28 27 26 21 20 19 19 21 23 22 20 22 20 20 19 17 16 18 18 17 18 16 18 13 12 10 12 6 6 10 10 9 3 -4 -3 -1
36 34 31 31 27 23 23 30 23 25 19 22 25 22 23 22 24 27 20 20 17 16 19 22 23 26 23 22 23 22 21 19 18 17 18 17 17 12 16 15 16 10 10 13 16 12 8 7 5 1 -5 -7 -11 -11
35 31 26 24 25 18 26 24 26 26 24 22 19 17 22 23 24 17 16 16 13 15 19 20 24 22 23 24 19 18 20 19 17 13 17 18 16 16 17 16 16 15 15 15 13 8 5 -2 -3 -4 -11 -12 -15 -14
23 24 28 24 26 19 21 23 23 20 17 20 22 20 19 20 11 13 13 11 17 22 19 18 20 20 14 11 16 17 20 20 18 17 13 19 17 17 15 14 12 13 13 8 -0 -1 -7 -13 -13 -11 -11 -12 -8 -11
18 23 23 18 20 22 21 19 21 20 21 20 20 20 19 15 13 14 15 7 12 20 15 20 15 15 18 20 19 17 18 21 20 16 18 19 17 14 10 9 6 6 4 2 0 -6 -7 -7 -7 -6 -10 -9 -12 -15
19 21 22 25 23 25 20 23 24 20 20 13 17 17 16 15 10 11 10 16 14 10 15 18 20 19 19 18 20 18 18 17 17 15 13 14 13 14 13 9 5 5 1 1 -2 1 -0 -6 -12 -13 -13 -19 -19 -19
22 18 16 18 18 20 21 21 21 16 20 21 19 13 9 10 11 8 10 12 23 23 17 19 21 20 18 17 16 14 12 11 11 11 11 10 8 6 6 6 6 7 -2 -4 -4 -4 -4 -5 -7 -13 -16 -14 -17 -23
17 16 19 12 12 14 14 14 16 17 19 20 17 12 10 11 5 4 12 14 21 14 14 14 14 16 16 16 15 14 14 14 13 11 7 4 1 4 1 4 2 1 -0 1 7 2 -2 -5 -7 -8 -15 -14 -21 -24
13 17 13 8 12 14 13 11 10 8 12 10 12 12 10 4 2 0 9 12 16 11 4 6 12 13 13 12 10 11 9 10 12 15 11 5 4 3 -1 -1 -2 -4 -2 -1 -1 -1 5 -4 -3 -14 -15 -17 -22 -26
20 17 12 10 8 2 3 1 -1 0 1 -0 -5 2 3 -2 2 0 3 7 5 14 12 12 10 12 13 12 12 11 8 9 13 9 7 7 7 3 1 -3 -6 -5 -4 -5 -6 -6 -8 -12 -16 -17 -18 -23 -30 -32
17 18 15 8 6 9 8 3 -1 -2 -6 -2 -0 -7 -3 -2 -1 -1 -2 6 14 10 6 10 12 9 11 14 12 12 12 12 11 10 8 7 4 1 -0 -2 -4 -4 -5 -6 -7 -9 -10 -13 -19 -22 -26 -31 -33 -34
17 16 12 10 9 8 9 14 11 6 -2 -5 -4 -2 -1 2 3 0 3 5 10 12 7 4 12 14 12 11 10 10 9 8 9 11 8 6 3 2 -3 -4 -4 -3 -4 -7 -9 -11 -14 -18 -24 -29 -33 -34 -35 -36

GFSWCAN_sfc_dewp_096.txt.gz
Dewpoint
40 43 44 43 43 43 43 43 42 41 41 40 40 39 41 43 40 34 34 36 31 28 28 30 28 25 25 24 21 22 20 21 21 18 17 12 10 19 19 15 25 23 21 21 21 18 13 27 25 21 26 29 28 27
41 45 44 43 43 43 43 43 42 43 41 41 40 40 42 42 41 36 33 37 35 30 28 31 30 30 26 25 25 26 21 25 23 19 19 20 19 16 17 17 26 18 21 21 23 20 29 29 28 30 30 28 27 26
42 42 43 43 43 43 42 43 43 43 42 41 40 40 42 42 41 38 35 35 32 30 30 30 28 30 29 28 30 27 28 29 26 25 20 20 18 23 15 20 23 26 30 25 25 27 27 29 29 29 28 26 26 25
42 44 43 44 43 42 42 42 43 42 42 41 40 41 41 41 41 39 36 36 32 30 25 28 30 29 31 29 30 30 30 29 29 26 21 18 21 25 21 26 22 24 26 25 25 27 27 28 29 29 28 27 24 24
43 43 43 43 42 42 42 42 42 42 42 41 41 41 41 41 40 38 37 38 36 28 26 27 28 30 30 30 29 29 28 26 25 23 20 20 25 24 30 24 23 27 24 22 18 27 26 26 30 30 27 25 25 22
42 42 42 42 42 42 42 42 42 42 42 42 41 41 40 38 34 32 28 34 37 32 26 21 27 28 30 31 30 28 28 27 26 23 21 24 26 24 19 19 26 29 30 30 22 29 27 29 28 27 25 24 24 22
42 42 42 42 42 42 42 42 42 42 42 41 41 41 41 40 37 30 28 36 38 31 23 20 24 27 29 31 33 31 31 28 26 25 24 23 24 28 22 20 26 30 30 31 29 28 26 28 26 26 24 22 23 22
42 42 42 42 42 42 42 42 42 42 42 41 41 39 39 39 37 35 38 38 33 28 25 19 21 26 30 26 30 30 30 29 27 24 26 26 26 27 24 26 28 29 30 30 31 30 28 27 24 24 23 22 19 19
42 42 42 42 42 41 41 41 41 42 41 40 37 35 33 32 30 36 38 36 33 28 21 21 19 15 28 27 31 28 28 23 28 21 24 24 18 22 23 26 27 27 25 29 30 29 28 25 23 22 21 20 19 18
42 41 42 41 41 41 41 41 41 41 38 35 32 27 23 33 38 34 30 24 25 27 27 20 24 20 25 19 19 21 23 22 18 22 25 24 18 27 28 28 29 30 30 28 25 24 25 24 22 22 20 20 19 18
41 41 41 41 41 40 41 41 41 36 33 28 27 29 35 38 32 29 21 19 23 21 24 24 24 23 28 19 19 24 22 23 20 20 21 21 19 24 28 28 27 26 26 28 26 25 24 23 22 19 18 18 18 17
41 42 41 40 40 40 41 40 35 31 27 28 33 37 36 31 26 22 21 23 22 20 24 23 24 25 26 28 21 24 26 28 21 26 24 19 17 24 24 24 23 24 25 24 25 24 22 20 20 18 16 14 12 10
41 41 41 41 40 40 40 37 37 39 38 37 30 29 28 27 18 16 14 20 14 22 22 22 19 22 26 26 20 23 21 24 28 25 19 16 21 23 22 21 21 21 21 20 19 19 17 15 14 14 11 6 7 3
41 41 41 40 40 40 39 39 39 34 31 25 24 19 17 17 17 14 15 14 24 23 22 20 21 20 25 20 21 19 15 25 19 18 13 13 21 21 21 21 19 16 16 15 12 11 9 7 2 2 0 -5 -0 -2
41 41 40 40 41 40 40 38 35 32 28 27 27 13 20 22 23 27 29 28 30 29 21 23 22 21 18 14 23 21 19 16 19 12 12 12 19 19 17 14 12 9 6 5 2 4 2 2 3 -3 -9 -8 -2 -6
40 39 38 40 40 39 37 34 32 30 28 25 25 23 25 26 25 27 28 28 32 31 25 24 21 13 15 21 22 19 19 13 16 14 10 22 16 11 10 10 8 7 6 4 4 3 2 1 3 -0 -4 -5 -8 -7
38 36 39 40 39 37 35 30 27 27 24 24 23 21 24 23 24 26 28 29 32 30 23 26 20 15 24 22 22 24 20 17 12 18 9 10 13 8 8 7 8 9 8 7 7 8 6 6 6 8 6 8 6 6
37 39 40 38 35 34 32 30 26 26 22 18 20 20 26 27 29 29 31 32 30 31 30 27 29 23 16 16 13 14 19 19 19 19 6 3 6 6 10 9 9 11 11 11 12 11 9 9 11 10 12 11 10 12
38 39 39 36 32 30 27 27 30 23 23 24 26 27 27 26 28 29 29 31 32 34 28 28 24 23 15 14 12 5 12 20 17 11 5 2 9 11 10 11 11 12 14 14 15 13 12 13 13 13 14 14 10 10
39 38 38 38 36 28 26 26 32 27 21 20 27 25 26 25 27 28 28 30 30 29 26 23 19 15 16 14 15 14 13 15 15 11 8 7 8 12 12 14 14 15 16 17 16 13 14 13 14 13 12 11 6 4
38 37 36 33 31 32 30 27 25 29 25 24 26 26 24 27 26 26 26 29 27 26 19 15 16 11 23 20 17 17 17 18 13 14 13 11 13 16 16 17 17 17 15 12 11 10 10 11 10 11 3 -3 -7 -6
36 36 31 31 28 29 30 30 27 25 24 24 24 27 21 22 23 26 27 25 23 19 18 16 15 23 22 19 18 20 18 19 17 15 15 16 16 16 17 16 17 10 11 10 12 7 7 9 9 8 -1 -8 -4 -3
35 32 30 29 21 19 25 30 22 24 15 21 24 21 18 20 21 28 23 20 17 13 16 19 22 26 22 21 21 21 20 18 16 15 16 15 15 14 16 15 14 11 9 11 13 9 6 8 4 -1 -4 -8 -12 -13
34 28 22 20 21 14 24 24 26 25 23 22 20 17 18 20 23 16 17 15 11 13 17 19 23 23 23 21 17 17 18 18 15 11 15 17 15 15 17 15 14 13 13 15 15 12 8 -1 0 -1 -11 -14 -17 -15
17 18 21 19 23 15 15 20 23 21 16 15 16 13 20 18 10 7 11 10 20 23 22 17 19 20 18 14 12 15 18 18 17 15 12 17 15 15 14 13 11 10 11 9 3 1 -8 -11 -11 -9 -10 -13 -10 -14
12 15 22 21 18 16 19 19 18 14 15 17 16 19 15 10 12 12 13 6 11 21 22 16 14 14 16 17 17 17 17 20 19 15 18 17 16 14 10 11 8 9 6 6 3 -1 -1 -3 -3 -3 -9 -12 -14 -17
17 18 22 26 24 24 20 22 23 17 15 10 14 12 10 7 8 13 10 15 15 9 12 16 19 19 18 16 18 17 15 15 15 15 14 13 12 14 15 13 10 9 4 3 1 2 3 1 -1 -6 -13 -21 -21 -21
20 20 17 19 19 21 20 21 20 15 19 20 17 13 10 12 15 12 12 15 22 23 18 15 17 19 17 14 14 12 10 10 10 11 12 10 8 8 8 5 8 8 1 -3 -2 1 0 -2 -6 -12 -11 -13 -20 -26
20 16 19 16 14 15 16 16 15 16 18 19 15 12 14 16 12 11 12 16 22 21 17 11 11 11 13 13 12 11 13 15 13 11 8 5 5 5 3 4 3 3 2 3 6 -1 -4 -6 -8 -8 -11 -15 -24 -28
11 15 11 9 11 12 11 10 9 7 11 10 11 12 11 8 7 6 9 14 19 20 10 3 6 8 10 9 7 8 8 7 11 15 12 9 9 5 2 3 1 -0 1 2 3 3 3 -6 -6 -14 -18 -21 -27 -29
17 12 9 8 6 3 5 3 1 3 2 -2 -8 2 3 -3 2 1 5 3 2 8 11 9 6 8 10 10 10 10 9 8 11 11 9 9 6 4 2 1 -2 -1 -1 -5 -7 -10 -13 -16 -16 -18 -21 -25 -32 -34
17 19 15 10 9 10 11 8 -1 -4 -8 -4 -2 -9 -4 -2 2 -0 -2 3 7 8 3 6 6 4 6 11 11 13 12 12 8 8 6 6 4 2 1 -0 -3 -4 -7 -10 -11 -12 -13 -16 -20 -22 -25 -30 -35 -36
17 15 13 12 10 9 10 14 13 10 0 -6 -7 -8 -6 1 4 1 2 2 5 6 5 1 7 11 12 12 11 9 9 10 10 11 8 7 3 3 1 -1 -3 -5 -9 -12 -14 -14 -15 -18 -23 -29 -31 -35 -37 -38

GFSWCAN_sfc_dewp_099.txt.gz
Dewpoint
40 40 41 43 43 42 43 42 42 41 40 40 41 40 42 42 40 35 36 37 32 30 29 30 27 26 26 25 23 24 23 24 24 20 19 19 20 23 22 20 24 22 20 19 19 18 15 26 23 20 26 29 27 26
40 40 42 43 43 43 42 42 42 42 41 41 40 41 42 41 39 36 34 37 35 31 29 32 32 30 28 26 26 26 22 26 26 22 22 23 23 24 21 20 27 22 24 23 23 22 29 28 27 29 29 26 26 25
41 41 43 43 43 43 43 42 43 42 41 40 41 42 42 41 40 38 37 36 34 33 30 30 30 33 32 30 33 28 30 29 28 26 26 26 22 24 22 22 23 26 29 25 25 26 27 28 29 28 28 25 25 25
41 44 43 43 43 43 43 42 42 42 42 40 42 42 42 42 41 39 37 37 33 31 28 29 32 31 32 32 32 32 31 31 30 27 27 26 23 26 26 26 24 23 25 25 24 27 28 28 28 28 27 26 24 25
39 41 43 43 43 42 42 42 42 42 41 40 42 42 42 41 40 39 38 38 35 29 28 28 29 31 32 32 31 31 30 28 25 25 26 24 25 28 29 26 24 24 24 24 22 27 26 27 29 29 26 25 25 22
40 42 43 42 42 42 42 42 42 42 42 42 41 40 39 37 33 34 31 35 37 33 30 26 28 29 32 32 31 31 29 28 26 25 25 25 27 28 25 23 26 25 29 28 26 29 28 28 28 26 24 23 22 21
43 43 42 42 42 42 42 42 42 42 42 41 41 40 40 39 37 33 31 35 37 33 29 25 26 28 30 32 33 33 32 29 27 27 25 23 24 29 26 23 26 30 29 29 28 27 26 27 24 24 22 21 22 20
42 42 42 41 41 41 41 42 42 42 42 42 41 41 40 39 38 35 38 37 34 30 29 24 24 28 30 27 30 32 30 29 29 26 28 26 28 30 23 26 29 30 31 30 29 29 28 26 24 23 22 20 18 17
42 42 41 41 42 41 41 41 41 42 41 37 36 35 34 33 33 35 38 34 35 31 25 24 23 22 30 29 32 30 30 26 28 27 26 26 25 24 26 27 28 28 28 30 29 27 25 23 22 22 21 19 18 17
42 41 41 41 41 41 41 40 41 39 36 34 32 29 26 34 39 34 31 26 27 29 28 24 25 27 28 25 26 28 27 26 23 24 28 26 25 27 29 28 28 28 30 29 26 25 25 23 22 21 20 19 18 17
42 41 41 41 41 41 41 41 37 34 32 31 30 30 35 37 33 29 23 23 24 23 24 25 26 27 30 26 26 26 26 26 21 23 23 22 22 25 29 29 30 31 30 28 27 26 27 24 23 20 19 19 18 17
41 41 41 41 41 41 41 37 34 30 28 31 33 36 34 30 26 21 20 23 21 20 25 25 25 27 29 30 27 27 26 27 21 27 24 22 21 26 25 25 25 26 27 28 26 24 24 23 21 19 18 16 15 13
41 41 41 41 41 40 36 37 37 37 36 33 30 28 25 24 15 12 14 20 20 25 25 27 26 27 29 28 26 26 21 25 29 26 22 21 23 24 23 23 22 23 23 22 22 21 19 18 17 16 13 11 11 7
41 40 40 41 40 39 39 39 37 34 30 26 23 19 15 17 16 17 19 20 25 27 25 25 26 26 27 25 24 19 21 24 20 19 20 20 22 22 22 21 20 20 19 18 17 15 13 10 7 6 6 6 6 6
40 40 40 40 40 41 39 36 34 31 28 26 24 17 19 23 24 27 28 29 31 28 26 26 25 25 24 21 24 22 20 18 21 20 22 20 22 21 20 19 17 14 13 12 11 9 7 7 6 3 2 5 5 2
40 38 38 40 40 39 36 33 31 30 28 26 25 22 24 24 26 28 29 29 33 31 27 26 23 19 20 22 21 20 21 18 22 23 19 20 20 19 17 16 14 12 11 9 9 9 8 7 9 7 5 5 4 5
37 36 40 40 38 36 34 29 28 26 24 25 22 22 23 21 24 27 30 31 33 31 27 25 17 18 24 21 20 24 22 24 20 21 19 19 19 15 13 13 12 11 10 10 10 10 9 8 7 6 5 6 6 8
36 39 39 38 34 33 31 29 26 25 22 24 24 24 23 28 29 30 32 33 32 31 30 27 28 24 20 19 21 23 23 22 21 20 17 14 14 13 15 13 12 13 12 12 12 11 9 10 8 8 8 9 10 12
39 39 38 35 32 29 26 26 28 22 23 26 27 27 27 27 29 30 30 32 33 33 30 27 23 22 24 23 23 18 21 22 20 17 13 10 13 13 12 13 13 14 14 14 12 10 10 13 13 14 13 13 14 15
39 38 38 37 34 28 25 27 31 26 21 23 27 26 26 26 28 28 28 30 30 29 25 24 24 26 24 24 22 23 20 19 17 16 14 13 14 14 14 15 15 15 15 15 15 13 13 14 16 17 17 16 17 15
37 36 35 32 31 30 28 26 24 28 25 24 26 26 25 27 26 26 26 29 26 25 23 22 22 20 22 25 21 20 19 20 19 20 17 14 14 15 15 16 17 16 16 16 15 14 15 17 16 16 17 15 11 12
35 33 30 30 28 28 28 29 27 26 25 25 24 26 21 19 24 26 28 25 24 23 23 23 22 24 24 22 21 21 20 19 18 17 16 16 16 16 17 17 17 16 17 16 16 16 17 16 15 15 14 10 8 9
33 31 28 26 19 17 24 29 22 24 17 22 24 21 21 20 23 28 24 23 21 18 19 22 23 25 23 21 21 20 20 18 17 17 17 18 18 19 18 18 18 17 16 15 16 16 16 11 10 12 9 9 10 8
33 26 18 19 19 15 23 23 26 24 22 21 19 18 19 18 25 21 18 19 17 18 22 21 24 23 22 21 19 19 19 18 16 16 18 17 17 17 18 17 17 18 18 16 17 15 13 13 8 9 8 8 6 7
15 14 15 12 24 14 16 19 22 21 12 19 15 14 20 21 14 14 15 15 20 24 24 23 23 23 23 20 18 19 19 18 17 17 17 18 18 17 17 17 16 16 17 17 15 13 8 6 8 8 8 8 6 3
6 10 16 16 13 14 15 10 11 12 12 12 14 18 19 17 15 14 15 15 19 23 24 24 22 21 20 20 19 19 19 19 18 18 17 18 18 18 16 15 15 16 15 17 13 11 7 6 7 6 4 0 -4 2
10 9 21 25 24 24 18 18 21 17 15 14 16 15 15 8 10 15 16 16 19 20 19 18 21 23 22 19 18 17 18 18 18 17 16 15 15 17 19 18 17 17 12 13 12 11 8 7 6 5 -0 -2 -3 -1
18 18 15 20 21 23 19 17 16 16 18 20 18 15 12 13 16 20 19 19 23 22 18 17 19 21 19 17 14 13 12 12 12 13 13 12 10 11 11 12 12 12 11 11 11 10 9 7 4 2 2 -0 -6 -10
22 20 20 15 18 16 18 18 17 19 19 20 18 18 18 18 17 17 17 18 23 22 17 15 15 14 14 14 14 14 15 17 17 14 13 12 12 11 8 9 8 8 9 8 9 6 4 3 1 -0 -4 -6 -11 -13
19 15 14 13 14 17 18 15 16 13 13 13 13 14 15 15 12 11 14 17 20 20 21 14 14 14 14 12 11 12 13 14 16 19 16 14 15 9 8 8 7 8 9 9 6 4 4 -2 -4 -8 -9 -10 -10 -12
15 15 10 9 10 6 8 8 6 7 3 2 -3 9 10 4 7 5 8 11 14 14 15 14 12 11 10 10 12 11 13 14 16 17 15 12 9 8 7 6 6 7 6 3 1 -2 -5 -5 -6 -8 -10 -13 -18 -16
15 17 16 8 8 8 8 5 0 1 1 7 6 -2 3 7 9 9 4 7 12 12 10 11 11 12 11 14 15 17 14 13 11 11 10 9 8 7 5 4 4 4 2 -0 -3 -4 -6 -8 -9 -10 -14 -17 -18 -19
17 15 14 14 12 12 13 15 14 13 5 3 2 -0 -1 5 9 7 5 5 9 10 10 9 10 11 14 14 14 14 12 12 12 12 9 8 5 5 4 3 2 0 -2 -4 -5 -8 -10 -12 -14 -16 -18 -19 -21 -21

GFSWCAN_sfc_dewp_102.txt.gz
Dewpoint
41 40 40 41 43 43 44 43 42 42 42 41 41 41 43 44 43 38 37 39 34 32 30 30 28 26 27 23 22 27 25 25 26 22 22 23 25 23 23 27 25 23 21 20 19 20 17 26 25 26 27 29 28 28
41 40 40 40 43 43 43 42 42 42 42 42 41 42 43 43 42 38 35 37 37 32 30 33 32 31 29 27 25 27 25 25 29 23 22 24 26 28 25 22 28 25 28 27 25 25 28 27 27 28 30 29 28 27
39 41 40 42 43 43 43 42 42 42 42 42 43 43 42 42 40 38 39 36 34 35 29 27 28 32 33 33 35 24 29 28 29 30 32 29 24 27 25 26 25 26 29 27 28 27 27 28 27 28 29 27 28 27
39 41 41 43 43 43 43 42 42 42 42 43 43 42 42 42 41 39 36 40 34 29 29 28 31 31 33 34 34 34 33 33 31 28 30 30 27 28 27 29 26 25 27 25 27 28 27 28 29 28 28 27 26 26
40 42 43 42 43 43 42 42 42 42 42 43 42 42 41 41 40 39 38 37 35 29 29 26 30 32 32 32 31 32 31 28 24 23 28 25 25 30 31 29 26 26 29 26 26 27 29 28 29 29 27 26 25 22
40 42 42 43 43 42 42 42 42 41 43 43 42 39 38 37 34 37 37 37 37 37 32 26 30 30 32 32 31 32 31 30 27 26 25 22 28 31 29 27 26 26 27 28 29 31 30 30 29 27 25 25 24 22
40 42 43 42 42 41 42 42 42 43 43 42 40 40 39 39 37 38 35 37 37 36 38 28 24 30 32 31 32 32 33 30 28 27 24 21 23 30 31 27 26 28 29 29 30 28 27 27 25 25 22 21 21 19
42 42 42 42 42 41 41 42 42 42 42 42 41 40 39 39 38 35 37 36 36 37 35 28 27 28 32 28 30 35 30 30 30 28 28 25 27 30 27 30 28 28 29 29 29 29 27 25 23 21 20 19 19 18
42 42 41 41 41 41 42 42 42 43 42 40 38 36 37 36 35 35 38 35 39 34 29 28 25 26 33 32 34 33 33 31 30 30 27 26 28 26 26 28 28 28 29 29 29 27 24 23 22 21 20 19 18 17
41 41 41 41 41 41 40 41 41 37 35 34 32 29 33 35 38 35 33 34 32 31 30 28 29 28 30 33 32 31 32 28 25 26 29 29 27 28 28 28 29 29 29 29 27 25 24 23 22 21 20 19 18 17
41 41 41 41 41 40 39 41 37 33 32 32 32 32 36 38 34 30 29 27 27 23 26 28 29 28 32 31 30 30 28 29 22 26 25 24 23 25 29 28 28 29 30 29 29 28 26 25 23 21 20 19 18 18
42 41 41 41 40 40 40 36 33 31 29 33 35 37 37 31 27 24 23 24 23 19 27 29 28 30 32 33 30 30 25 28 19 29 25 21 26 28 30 30 30 30 29 29 28 28 27 25 23 22 21 20 20 18
41 41 41 41 40 39 35 36 37 38 37 35 30 26 25 25 21 15 18 22 25 29 30 32 31 34 33 34 32 28 25 27 30 27 24 26 25 26 26 27 27 27 28 28 26 26 24 23 21 21 19 18 17 15
41 41 41 40 39 40 39 37 35 35 34 26 23 20 23 21 23 25 26 28 30 31 31 33 31 34 33 32 31 22 28 27 23 21 22 26 25 25 26 25 24 25 25 25 24 23 20 17 16 16 16 15 13 12
41 41 40 39 40 39 37 36 34 35 32 27 25 21 23 28 30 31 32 33 30 32 34 33 32 32 31 28 26 23 22 21 24 26 30 28 26 26 25 25 24 22 21 20 20 17 14 14 14 13 14 15 13 10
40 39 37 40 39 37 35 34 34 33 31 29 28 27 30 30 30 32 33 32 35 35 34 33 30 28 26 26 23 22 21 21 29 32 29 26 25 25 25 23 22 21 20 18 17 16 15 13 13 13 12 12 10 11
37 35 40 39 37 35 34 33 31 27 28 26 28 31 31 32 30 32 34 33 36 34 31 27 21 19 27 22 19 25 29 31 30 28 27 28 26 25 22 20 18 18 18 17 17 17 16 16 13 10 9 10 11 13
37 40 38 36 34 34 34 32 28 26 25 29 28 30 31 33 32 31 32 34 34 32 28 26 30 24 24 21 27 33 30 27 26 26 26 27 26 22 22 21 18 19 18 17 17 16 13 11 8 10 10 10 11 11
39 38 37 35 32 30 26 28 30 23 27 30 30 30 30 31 32 32 32 32 33 33 31 26 24 24 28 32 33 31 30 29 26 25 23 23 23 21 20 19 19 19 18 17 14 9 9 10 12 13 14 13 16 17
39 38 37 36 35 28 24 27 30 25 25 28 29 27 26 28 31 33 34 32 30 28 26 26 27 32 33 35 33 33 31 28 24 23 23 22 21 20 20 19 19 19 17 16 12 14 15 15 16 16 18 18 19 18
37 36 35 35 34 31 27 25 25 27 26 25 26 25 26 27 27 30 30 29 28 25 25 31 34 33 30 30 30 29 28 26 28 28 25 21 21 21 20 20 20 18 17 15 17 17 19 20 19 19 23 23 21 20
35 33 33 32 29 29 28 29 26 28 25 24 24 26 26 28 28 29 28 27 25 29 31 32 32 30 28 28 27 25 27 24 23 22 23 22 21 21 21 21 19 21 20 21 20 21 22 19 20 21 22 20 18 18
33 32 30 26 25 26 27 31 26 25 23 23 24 23 25 26 27 28 24 25 30 29 28 27 28 28 28 26 24 23 23 22 23 23 23 24 23 24 22 21 22 23 21 19 20 21 22 19 20 22 20 19 19 17
33 28 26 25 24 24 28 26 26 23 24 23 21 19 23 25 25 24 21 24 28 26 26 27 27 26 25 24 24 23 23 23 23 25 24 22 21 21 21 20 21 22 20 18 20 22 22 23 18 19 19 18 17 16
22 23 25 20 25 23 22 24 23 21 20 21 20 22 24 26 23 22 21 25 27 28 27 27 27 27 29 28 26 24 22 21 21 21 23 21 22 21 20 19 20 20 22 24 24 23 22 21 21 19 17 17 15 13
17 21 20 22 23 21 21 20 21 22 22 21 23 24 26 25 19 19 20 28 27 28 28 28 28 26 25 25 25 23 21 21 21 23 20 20 21 23 22 20 20 21 23 26 25 23 19 19 18 16 15 12 9 10
17 21 25 27 25 25 25 26 25 24 21 20 23 23 23 18 19 22 25 25 26 28 26 27 28 28 26 24 23 23 22 22 22 21 22 21 21 22 24 23 21 22 23 25 25 23 19 17 16 15 13 12 10 10
23 24 21 25 25 27 24 24 23 22 23 23 24 21 19 19 23 27 25 26 26 25 25 26 26 26 26 24 23 22 20 19 20 20 20 19 20 22 22 23 23 21 23 24 23 21 20 18 16 13 11 8 5 6
23 25 25 21 24 25 26 24 23 24 24 26 25 24 25 24 26 26 24 24 26 26 25 25 24 25 23 22 22 22 22 23 22 19 19 19 20 19 19 19 19 19 19 17 16 17 16 15 13 10 7 5 4 2
23 26 24 22 21 23 27 26 27 23 20 22 22 21 21 25 25 23 24 25 25 26 27 27 24 25 23 23 21 20 23 25 25 23 21 20 22 19 18 18 18 18 18 16 13 10 8 6 4 3 2 2 2 -1
23 24 24 23 23 23 21 19 20 20 20 22 18 23 26 22 23 20 20 24 25 25 24 23 22 23 23 22 22 21 20 23 22 23 24 22 19 19 18 17 17 16 14 11 10 8 7 6 5 3 1 -2 -6 -5
23 22 22 20 21 19 19 21 22 23 21 22 23 18 21 22 24 23 17 19 21 22 23 24 24 23 23 24 24 25 21 23 22 19 19 19 18 17 15 14 13 12 10 9 8 7 5 4 3 0 -3 -6 -7 -9
21 21 20 20 19 17 19 20 19 19 19 19 19 16 19 20 21 19 15 16 18 21 23 23 24 22 21 21 23 22 20 21 18 17 16 15 13 13 13 12 11 9 8 7 7 5 2 -0 -2 -5 -6 -10 -11 -11

GFSWCAN_sfc_dewp_105.txt.gz
Dewpoint
39 41 41 40 41 41 42 44 44 43 43 42 41 41 43 43 43 43 42 42 38 35 31 30 28 27 27 24 25 27 25 25 23 23 20 23 25 21 23 30 23 21 20 19 18 20 21 26 25 25 28 29 26 27
40 41 40 40 42 42 44 43 42 43 42 42 40 42 43 44 44 44 40 38 37 34 32 34 33 32 31 30 25 28 26 23 28 23 21 23 25 28 25 22 28 28 30 31 27 27 28 28 28 28 29 28 29 28
39 39 39 41 43 44 43 43 43 42 42 42 42 43 43 44 44 41 37 37 35 36 32 29 29 32 33 34 36 23 26 28 27 33 33 29 25 25 24 27 26 26 28 29 28 27 26 27 27 28 28 28 27 27
39 40 40 41 43 43 42 42 42 43 42 41 42 43 43 43 43 41 36 37 37 30 30 28 30 31 32 32 32 34 32 33 31 29 32 32 26 30 29 29 31 26 28 26 27 27 26 26 27 27 27 27 27 27
39 40 41 42 42 43 42 42 42 42 43 42 43 43 43 43 42 40 38 37 36 34 28 27 30 30 29 30 29 30 29 27 22 22 30 28 26 30 30 28 25 27 33 27 30 28 30 28 28 27 27 26 26 23
38 39 42 42 43 42 42 42 42 42 42 43 42 41 41 41 41 38 39 37 37 30 30 27 30 30 30 31 30 30 30 29 26 25 24 23 30 31 29 28 27 26 28 30 31 31 31 29 28 27 26 26 24 23
38 42 42 42 42 42 42 42 42 42 43 42 40 40 40 38 37 39 37 36 36 38 38 27 23 29 31 29 31 30 30 29 27 25 23 21 23 28 30 26 27 27 29 30 30 29 26 27 26 25 23 22 22 21
40 42 42 42 42 42 42 42 43 43 43 42 41 41 41 40 39 34 35 37 39 40 34 28 26 27 30 26 29 32 29 29 29 27 27 24 25 28 27 31 27 28 28 28 28 28 27 25 23 21 21 20 19 19
42 43 42 41 41 41 42 43 43 43 42 40 39 38 36 35 32 31 38 37 39 34 30 28 26 27 32 29 32 30 30 31 28 29 25 24 28 26 27 28 27 28 28 29 27 26 24 23 21 20 20 20 19 19
42 42 41 41 39 41 41 43 43 42 39 34 30 32 36 34 38 37 35 36 33 30 31 29 27 28 30 31 31 30 31 27 24 25 28 28 26 28 25 28 28 27 29 28 26 25 24 23 22 21 20 20 20 19
42 42 41 41 40 41 41 39 37 35 34 29 33 34 34 37 33 30 31 28 27 23 26 27 28 28 30 31 29 27 26 27 20 27 24 24 22 26 28 29 30 29 30 28 28 27 26 25 23 22 21 20 19 19
41 41 41 41 39 41 39 36 33 30 29 32 34 36 36 32 30 27 25 25 21 18 27 29 27 28 31 31 29 28 23 27 19 30 25 20 28 27 30 30 30 30 29 29 30 28 28 26 24 23 21 21 22 21
41 41 41 40 40 38 35 36 39 38 37 34 30 26 27 27 26 23 21 23 26 28 30 32 32 32 31 31 32 28 26 28 30 28 23 27 26 27 30 32 30 30 29 29 31 29 26 25 25 24 23 22 20 19
41 41 41 40 39 39 39 38 35 34 32 28 25 24 27 26 25 27 28 32 31 33 33 35 33 33 34 32 31 25 28 28 23 23 20 28 27 27 28 29 28 29 31 30 30 28 26 25 23 22 21 20 18 17
41 40 39 40 40 37 36 35 35 34 32 28 26 23 25 29 32 32 34 32 32 35 34 33 33 32 30 28 27 23 23 21 23 28 29 30 29 28 29 29 28 27 27 26 25 23 21 20 19 19 19 19 17 15
40 38 37 40 37 36 34 34 33 33 30 29 29 28 32 32 31 33 33 32 34 35 35 32 30 30 27 26 24 22 22 22 30 30 29 28 28 27 28 28 27 26 26 25 23 21 19 18 18 19 18 15 14 14
37 36 39 37 36 35 36 31 30 28 28 26 30 33 34 33 32 32 36 34 37 35 32 28 25 19 26 22 19 25 28 30 29 29 29 29 27 28 27 25 24 23 23 23 21 20 19 20 16 13 11 13 14 16
36 37 37 35 34 34 33 31 29 25 25 31 29 31 34 34 32 32 33 35 35 30 28 25 30 22 23 21 26 32 30 29 29 28 27 28 28 26 26 24 23 23 23 21 21 20 19 15 10 11 12 12 12 13
36 35 37 35 32 30 26 28 29 23 29 30 30 30 32 33 32 31 33 34 34 32 30 28 24 25 28 33 34 31 31 31 29 27 26 27 27 26 25 23 23 23 21 21 18 16 13 12 14 13 13 13 15 17
37 37 36 36 36 27 23 28 29 25 26 28 28 27 27 29 31 35 34 32 30 28 26 25 28 33 33 34 34 34 33 32 29 26 25 25 25 25 24 23 22 22 20 19 16 14 12 14 14 15 17 18 20 19
35 35 36 35 33 28 26 26 25 25 25 26 26 26 26 27 27 29 30 28 28 26 26 32 35 34 33 33 33 33 32 30 31 30 27 24 25 24 23 23 22 21 20 18 17 17 19 19 19 19 23 24 24 22
34 32 33 32 29 28 27 29 25 25 24 23 24 25 25 26 26 28 27 26 25 29 32 32 32 32 31 30 30 28 30 28 27 28 27 26 24 23 23 23 22 23 22 23 21 23 23 21 22 22 25 23 20 19
32 32 30 26 28 28 27 31 26 24 23 23 25 23 25 26 26 26 25 25 29 33 31 29 29 29 30 28 26 26 26 25 26 27 27 26 25 28 25 23 24 25 23 21 21 24 25 21 22 25 22 21 21 19
34 28 30 28 27 25 29 25 24 22 23 23 23 20 23 25 26 24 22 26 32 30 28 28 28 28 28 27 27 26 26 27 27 28 28 25 23 23 23 22 23 24 24 21 23 25 24 24 23 22 22 21 19 18
24 26 29 23 26 25 23 23 23 21 21 22 20 22 24 26 23 22 22 28 30 30 28 27 28 28 30 30 29 28 25 25 25 25 27 25 24 23 22 22 23 23 25 27 25 25 24 24 23 23 20 20 17 15
17 26 24 24 25 22 22 19 21 22 23 23 24 25 26 24 20 22 23 31 30 29 29 28 29 28 27 27 27 26 24 24 24 26 23 23 23 25 24 22 23 24 25 28 26 24 23 22 22 20 20 17 14 14
17 22 26 27 25 23 25 26 23 24 23 22 25 24 23 19 22 25 31 30 30 29 29 30 30 28 28 26 26 25 24 24 25 23 23 23 23 25 26 24 23 23 27 28 27 25 23 22 20 19 17 16 14 13
25 25 22 26 25 26 25 25 24 22 25 24 24 22 20 22 25 32 31 29 29 28 28 28 28 27 28 26 26 25 25 25 25 24 23 24 25 27 28 29 29 25 28 27 27 26 24 22 20 18 16 13 12 12
25 28 26 24 26 26 27 26 26 26 26 28 27 25 28 28 33 33 30 29 29 28 28 27 26 27 26 26 26 26 26 26 24 21 21 21 21 22 24 25 25 25 25 25 24 23 22 20 18 16 12 10 10 9
25 27 24 25 23 24 30 30 31 29 26 28 27 26 25 31 32 31 30 29 29 30 30 30 28 27 25 25 24 24 26 28 28 26 23 22 23 23 23 23 23 23 22 21 18 16 14 13 11 9 8 7 6 3
26 26 25 25 25 28 27 27 28 28 28 29 28 29 30 30 32 29 28 29 29 29 28 27 26 27 26 25 25 23 23 25 25 28 30 28 25 24 23 23 23 22 19 16 14 14 11 10 9 7 7 5 1 1
25 24 23 22 24 25 26 26 27 26 26 27 27 27 28 28 28 27 23 25 24 24 25 26 25 25 27 28 29 29 26 26 25 25 25 25 24 23 22 21 20 19 17 14 13 11 10 9 8 5 2 -0 -1 -3
26 25 24 25 23 22 24 24 23 23 23 24 25 24 25 25 25 23 20 21 22 23 26 27 28 28 26 26 26 25 25 25 24 23 23 22 20 20 20 19 18 15 12 12 11 10 8 6 4 2 0 -3 -5 -5

GFSWCAN_sfc_dewp_108.txt.gz
Dewpoint
36 40 41 41 41 41 42 41 43 45 45 45 45 44 44 43 44 43 42 42 42 36 33 36 34 34 32 30 27 29 27 27 26 25 21 23 25 20 24 30 19 19 18 19 19 19 19 26 26 25 28 28 27 25
37 40 40 41 40 42 42 45 45 44 44 44 43 43 42 42 42 43 39 42 42 39 33 36 34 33 32 31 31 30 26 27 30 23 19 21 25 28 26 22 29 27 30 29 26 26 27 28 28 29 31 28 27 25
39 39 40 40 42 42 43 44 44 44 43 43 42 42 43 41 41 42 41 41 40 35 32 31 30 31 31 34 36 25 24 28 29 34 37 30 25 25 25 27 26 26 29 28 27 26 25 26 27 27 27 26 26 26
38 39 40 40 43 44 43 43 43 43 42 41 42 42 43 42 43 43 41 40 40 37 32 28 30 29 30 30 32 35 33 32 32 33 33 33 28 31 30 28 28 25 26 26 27 27 27 25 26 26 26 26 25 25
38 40 40 40 43 42 43 43 43 42 42 42 42 41 42 43 43 44 43 42 41 38 30 27 30 28 28 29 28 30 32 33 29 27 32 30 28 29 31 30 27 28 32 28 30 28 30 28 27 27 26 25 25 23
38 39 39 43 42 43 43 43 42 41 42 42 41 41 42 43 43 43 38 39 39 41 32 27 29 28 29 30 29 29 29 30 26 26 25 27 32 30 29 28 27 28 31 31 33 32 31 29 28 26 25 25 24 23
38 40 40 43 42 42 42 42 41 41 42 42 42 43 43 43 43 37 36 35 37 41 40 28 23 28 29 28 29 29 30 29 28 23 23 23 25 28 31 27 27 28 30 31 30 29 26 26 25 25 24 23 23 21
38 41 42 42 42 42 42 41 41 42 42 42 42 41 40 40 39 36 35 38 40 41 36 29 27 27 31 27 28 31 27 28 29 27 25 22 24 24 27 32 28 28 29 28 28 28 27 26 24 23 22 21 20 19
38 42 42 42 42 42 42 41 41 42 41 41 42 42 39 40 31 32 36 37 42 36 30 28 25 26 32 30 31 28 28 32 27 27 23 22 29 25 29 27 28 28 28 29 28 26 24 23 21 21 20 20 19 19
41 42 42 42 42 42 42 41 42 41 39 37 33 35 37 34 36 37 37 36 35 28 30 29 30 28 29 34 32 29 28 27 24 25 28 27 28 27 28 28 28 28 29 28 27 25 24 22 21 21 20 21 20 20
42 41 39 40 42 42 43 42 41 38 33 32 34 34 33 35 35 28 32 28 28 24 25 28 28 28 29 32 29 27 26 26 19 27 23 24 22 27 28 28 28 29 30 29 28 28 27 24 24 23 23 23 22 21
42 41 40 41 42 41 39 38 37 32 32 33 34 34 34 31 29 26 24 23 23 19 27 30 28 29 29 29 29 26 21 25 19 29 24 19 28 29 30 32 32 31 30 29 29 28 28 26 25 24 23 23 23 20
41 41 41 41 40 37 37 38 39 38 38 35 30 26 26 26 25 23 20 21 26 29 32 34 33 32 29 32 32 27 26 25 29 26 22 27 29 31 33 31 31 31 30 31 29 29 27 26 25 25 23 21 20 19
40 40 41 39 39 41 40 37 34 35 33 27 25 24 28 25 24 28 31 31 33 35 35 36 34 35 34 32 30 25 29 27 22 21 24 28 29 32 32 31 32 32 33 33 30 27 26 25 23 22 21 21 19 17
41 40 39 40 40 37 35 34 35 35 32 28 27 23 25 30 32 34 35 34 35 37 36 34 33 31 29 27 28 24 22 19 21 27 29 30 31 32 31 31 31 30 29 29 28 25 23 22 22 21 20 20 18 16
39 38 36 39 37 35 33 34 33 32 30 29 29 28 32 31 31 32 33 34 36 37 37 33 31 29 26 25 22 20 21 22 28 28 30 30 30 30 30 29 29 29 28 26 24 23 22 21 20 21 20 17 16 16
37 33 38 37 36 35 36 31 30 27 28 28 30 32 33 33 32 32 36 35 36 36 33 27 24 21 26 21 21 25 27 29 28 29 30 30 29 29 28 28 27 27 25 24 23 22 21 22 19 16 13 14 14 15
34 35 37 34 34 32 31 30 28 25 27 32 29 32 34 34 32 33 34 35 36 30 28 27 30 22 23 19 27 32 29 29 30 28 29 30 29 28 27 26 26 26 25 23 22 21 21 18 14 12 11 13 14 14
34 33 37 36 34 30 27 27 29 23 29 31 32 32 32 33 33 33 33 34 32 30 30 27 25 25 29 33 32 30 29 29 27 27 28 29 28 27 26 25 25 25 23 22 20 19 17 15 15 14 14 14 15 17
38 38 37 36 37 26 24 27 29 26 28 28 29 28 29 31 32 35 34 31 30 29 25 24 29 33 33 33 34 33 30 31 27 25 25 26 26 26 25 24 23 23 21 21 20 18 15 16 16 16 17 18 21 21
33 33 35 34 30 28 28 27 27 26 25 27 27 28 27 29 30 31 31 31 29 26 26 33 34 33 33 34 33 33 32 31 30 30 26 23 25 25 23 25 23 22 21 21 19 18 20 20 19 19 25 27 26 25
30 33 32 31 29 27 28 29 26 26 25 25 25 27 27 28 28 29 28 27 25 33 34 33 34 32 31 30 30 31 32 30 30 30 29 27 25 25 25 25 23 24 24 24 21 23 24 21 24 24 26 25 23 20
32 31 29 26 28 27 26 31 26 25 23 23 24 23 24 25 27 26 24 25 31 34 33 30 30 31 31 29 29 29 28 27 28 28 28 28 27 28 27 26 26 27 25 23 24 25 27 24 25 26 24 23 22 20
34 29 30 28 26 24 28 25 24 22 23 22 22 20 22 24 25 24 23 27 32 31 28 29 28 28 29 28 28 27 27 29 29 29 29 27 27 26 26 25 26 27 26 24 25 28 26 26 25 23 23 22 20 19
24 27 29 23 26 24 22 22 23 21 21 21 21 22 24 25 22 21 21 30 30 30 29 27 28 29 31 32 30 28 27 28 28 26 30 27 27 26 25 25 26 26 28 29 28 27 26 26 25 23 23 22 20 19
20 27 24 23 24 21 21 19 20 21 22 21 22 25 25 23 20 20 25 31 30 30 31 30 29 28 28 29 30 27 25 25 28 28 26 27 26 28 26 25 25 27 29 29 28 26 25 24 24 22 22 20 16 17
18 22 24 27 23 21 24 25 22 23 20 20 23 23 22 19 20 27 30 30 30 30 29 32 31 31 30 28 27 27 27 27 28 25 26 26 27 28 28 26 25 26 28 29 28 27 24 24 23 22 20 18 17 16
23 25 22 25 24 24 24 23 23 21 22 22 23 20 19 22 27 30 31 30 29 28 28 29 29 30 30 28 28 27 26 27 27 27 26 26 28 29 30 31 28 27 30 30 29 27 26 24 23 19 17 16 16 15
25 28 25 22 24 25 25 25 25 25 27 28 26 25 26 29 32 32 30 30 31 29 28 27 28 30 29 28 28 28 26 26 24 21 20 20 22 24 28 29 29 29 29 29 28 27 25 23 21 19 15 14 12 11
25 28 23 23 22 22 29 29 31 30 28 30 30 27 25 31 30 31 30 29 28 28 31 31 29 28 26 26 25 26 28 29 29 26 24 22 23 25 26 26 26 26 26 24 20 19 18 16 14 13 12 10 8 6
28 27 24 23 23 29 28 28 28 28 28 28 28 29 30 31 31 28 28 30 31 30 29 27 27 28 28 27 26 24 24 28 27 29 30 27 25 25 25 24 24 24 20 18 17 15 13 12 11 8 7 6 4 2
25 23 23 20 25 26 27 26 26 25 26 26 27 27 27 27 26 26 23 25 26 26 27 28 27 27 29 31 32 30 28 27 27 28 26 26 26 25 25 24 22 20 18 17 15 13 12 10 10 9 6 2 2 0
26 26 26 25 23 22 24 24 23 23 24 23 25 26 26 25 25 23 22 22 23 24 25 28 29 31 29 29 28 29 28 28 26 25 25 25 24 23 23 22 21 19 17 15 14 13 10 9 6 4 3 1 -2 -3

GFSWCAN_sfc_dewp_111.txt.gz
Dewpoint
35 36 39 41 41 41 41 42 42 42 43 42 43 44 43 46 46 43 41 43 41 34 35 38 38 37 38 36 31 29 26 26 27 25 26 26 28 27 25 25 20 21 21 21 21 18 17 27 27 23 24 27 26 27
36 37 40 40 41 41 41 41 42 42 41 43 43 43 44 45 45 42 39 42 45 36 36 39 37 39 38 37 31 30 28 27 30 26 24 25 27 27 27 24 30 20 24 24 25 23 28 27 28 31 30 27 27 27
36 38 39 40 41 40 41 41 42 44 45 44 44 45 45 44 44 42 41 42 42 38 36 34 32 32 33 33 37 28 30 31 31 35 33 30 24 27 23 23 27 30 32 24 25 25 25 27 28 29 28 27 26 26
37 38 40 40 39 40 42 44 44 44 44 44 45 44 43 43 42 43 40 42 42 39 32 28 31 31 33 33 35 34 32 32 32 34 31 31 28 33 27 28 26 27 28 26 27 27 26 27 27 27 27 26 26 25
37 39 39 39 41 43 43 43 43 43 43 43 43 42 42 42 41 43 43 43 44 38 29 28 30 30 31 32 32 33 32 30 31 27 29 28 29 29 31 30 28 31 27 23 25 27 27 27 28 26 26 25 26 25
38 39 38 40 43 43 42 42 42 42 42 42 43 42 42 42 44 41 33 42 43 41 32 28 30 30 31 32 32 30 31 30 30 28 27 31 32 30 26 25 30 31 32 31 28 30 28 28 28 26 26 26 25 24
38 39 40 43 43 42 42 41 41 41 42 42 43 42 42 43 42 36 35 37 38 40 33 27 25 30 32 32 31 31 31 30 31 24 24 27 28 30 26 24 29 31 30 29 29 27 27 27 26 26 25 24 24 23
38 40 42 42 42 41 42 42 42 42 43 42 43 43 43 43 41 36 37 39 39 39 36 27 27 27 32 29 28 31 29 30 29 27 26 26 25 27 25 27 29 30 30 29 29 28 27 26 25 24 23 22 21 21
39 41 42 42 41 41 41 42 42 42 42 42 42 43 40 39 36 33 36 38 42 37 29 28 25 22 32 30 31 29 30 27 28 27 26 25 25 23 27 27 28 28 29 29 28 26 25 25 23 22 21 21 20 20
39 42 42 41 41 41 41 42 42 42 42 41 37 36 33 36 36 37 36 33 33 30 31 28 31 26 31 30 29 28 28 27 24 26 29 24 23 29 29 29 29 28 29 29 26 25 24 22 22 21 21 21 21 20
42 42 42 42 41 41 41 41 41 38 35 35 35 33 34 37 37 33 28 27 29 25 28 30 28 27 31 26 27 29 26 25 21 24 22 22 22 25 28 29 29 30 29 29 28 26 25 23 23 23 23 22 21 20
42 42 41 41 41 41 41 40 36 34 35 35 35 35 36 34 31 25 25 26 25 22 27 28 28 30 30 32 27 27 23 24 21 27 21 16 27 28 28 29 30 30 30 30 28 27 26 25 25 24 23 21 20 18
39 40 41 41 39 38 36 36 38 39 39 36 32 29 29 27 18 18 17 22 23 29 30 30 27 29 30 31 25 25 16 17 27 16 18 24 30 32 32 30 29 30 30 29 29 27 25 25 25 23 21 19 18 16
41 40 39 38 40 40 38 36 36 37 34 28 26 15 21 18 23 27 29 27 29 30 32 31 28 27 27 24 23 15 22 24 13 12 20 26 31 31 32 32 31 32 31 28 27 25 23 21 21 21 20 19 17 14
40 39 40 39 38 36 35 35 37 37 33 27 27 19 22 28 28 31 29 30 30 32 31 28 27 27 23 16 22 21 15 12 16 22 26 30 31 31 31 31 30 28 26 24 23 22 21 20 19 18 18 16 15 13
38 37 37 38 36 35 35 36 35 34 32 29 29 25 27 24 27 30 31 31 33 30 30 29 25 20 19 22 20 14 20 18 23 27 29 30 29 29 29 29 29 27 25 23 21 22 20 19 18 18 15 14 13 12
36 34 38 36 35 34 34 34 32 28 29 28 27 32 32 29 30 30 33 29 34 29 27 25 17 20 24 21 21 23 21 26 27 28 29 29 28 28 27 26 25 24 22 22 21 21 20 20 17 16 14 15 15 13
32 36 36 36 36 35 34 34 30 28 28 30 27 29 29 31 30 29 32 31 30 28 27 25 25 20 14 18 23 27 27 28 28 29 29 28 27 26 25 25 25 24 22 21 20 20 18 18 16 14 14 14 14 14
34 34 36 36 35 32 29 30 30 25 28 28 30 28 27 30 31 31 30 30 32 31 29 27 21 22 25 30 29 28 27 27 26 27 27 27 26 23 23 24 24 23 22 21 21 19 18 17 15 13 14 15 15 15
37 37 38 37 37 30 27 28 32 28 25 26 28 28 29 28 28 27 28 29 29 28 26 23 27 30 30 30 31 30 29 28 26 24 24 26 26 25 23 24 23 23 22 21 21 18 18 17 14 15 16 16 15 15
35 34 36 35 31 32 31 30 28 27 28 26 29 29 27 30 28 27 28 28 26 27 25 25 30 31 31 31 32 31 29 27 24 24 24 23 25 24 23 24 23 23 22 21 18 17 18 17 17 17 18 21 20 19
32 35 33 34 30 28 28 30 27 27 27 27 28 29 27 26 25 28 26 24 25 28 29 30 31 30 28 28 30 31 30 30 30 27 24 25 25 23 24 23 22 21 20 19 19 18 20 20 22 24 22 20 17 18
35 33 32 30 24 23 26 32 25 28 24 23 27 24 23 25 26 27 23 23 29 31 31 31 31 31 29 28 28 28 27 28 27 26 25 24 26 25 26 24 24 23 21 20 22 22 21 22 23 21 20 17 15 11
35 31 25 25 24 18 26 24 25 23 24 25 22 21 22 22 24 22 21 28 29 29 27 27 26 29 28 27 25 25 27 29 28 28 28 27 26 26 26 24 26 26 23 23 23 25 23 23 20 20 19 15 11 10
20 19 22 17 24 20 17 18 20 21 15 21 18 19 21 24 22 20 21 26 28 27 28 27 27 29 28 28 28 27 26 29 27 27 26 27 27 27 25 26 25 25 26 24 25 24 24 22 20 19 16 14 12 12
13 19 18 18 18 18 20 12 13 16 18 14 20 25 24 22 18 18 26 24 29 28 29 29 28 27 28 29 27 26 26 29 28 26 26 27 26 25 24 23 22 22 25 26 24 23 22 21 19 16 17 18 16 13
11 15 25 28 27 24 20 22 24 20 13 12 18 19 19 9 12 24 27 29 28 28 29 29 29 29 29 27 27 27 26 26 26 26 25 26 26 25 25 24 23 21 26 27 24 23 22 21 20 19 17 15 14 12
22 23 14 19 21 24 16 17 15 13 17 25 21 11 13 15 24 28 28 27 27 28 28 28 29 29 28 27 26 22 23 22 23 23 24 24 24 23 23 25 25 25 26 26 25 23 23 22 20 16 14 12 11 8
21 25 23 20 20 22 19 18 19 24 27 23 16 18 22 27 30 28 27 27 28 27 26 25 27 28 26 25 26 25 26 24 17 15 14 16 15 20 27 26 27 27 27 26 25 24 22 20 17 15 12 9 7 6
20 25 19 15 14 14 22 27 28 28 25 27 25 26 26 28 29 29 28 27 26 26 28 28 26 26 25 25 24 25 27 27 25 20 18 14 18 18 24 24 24 24 24 23 22 21 20 15 13 10 8 6 4 2
27 25 20 19 16 26 26 27 27 27 27 27 27 26 28 29 28 27 25 26 29 29 29 27 27 27 26 26 24 24 23 27 25 23 24 23 22 21 22 22 20 18 18 16 15 13 12 10 8 6 3 1 -1 -4
25 22 17 12 19 25 25 24 25 24 24 24 22 27 26 25 23 23 21 23 25 26 27 27 26 26 28 28 29 26 22 24 26 24 23 23 22 22 22 19 17 17 16 13 13 11 9 7 6 4 1 -2 -4 -7
25 26 22 21 21 20 23 22 20 20 24 22 23 25 25 24 20 18 20 22 21 22 23 26 28 29 29 29 28 28 25 27 27 27 25 23 22 21 19 18 17 16 14 12 12 9 8 6 3 1 -2 -5 -9 -11

GFSWCAN_sfc_dewp_114.txt.gz
Dewpoint
33 35 36 36 42 40 40 41 41 42 42 42 42 42 44 43 45 43 41 43 40 35 35 36 37 36 37 34 28 34 32 30 26 23 25 23 23 25 23 23 20 19 19 21 21 18 16 27 27 23 22 26 26 23
34 35 36 39 40 41 40 41 42 42 43 43 43 44 44 44 43 43 39 43 44 35 36 39 39 40 39 39 32 31 29 28 29 24 25 27 27 30 26 23 30 19 22 22 23 19 27 28 27 28 27 25 26 23
34 36 37 39 39 40 40 40 41 42 43 43 43 43 44 43 45 42 40 42 41 36 36 37 36 38 40 41 37 29 29 31 31 33 31 30 25 29 25 24 27 30 29 23 23 26 26 28 29 29 28 26 27 26
36 37 39 39 39 39 39 40 41 42 43 43 43 43 43 45 44 42 41 43 42 38 30 32 37 35 41 39 34 33 31 32 32 33 30 31 29 31 27 28 26 28 28 26 25 27 26 28 28 28 27 27 26 25
36 37 39 39 39 40 41 43 42 43 43 43 43 43 45 44 43 43 42 43 43 36 28 28 30 32 32 33 32 32 30 29 30 27 28 29 31 31 30 29 27 30 26 22 20 26 25 26 28 27 26 25 24 23
38 39 39 38 40 43 43 43 44 44 44 44 45 44 44 44 43 40 33 41 44 40 29 26 30 31 32 32 31 30 31 30 29 28 28 31 32 29 26 24 30 31 31 29 26 28 27 28 28 27 26 25 24 25
38 38 39 43 42 42 42 42 42 43 43 43 43 43 43 43 41 35 34 39 41 40 29 25 25 29 32 32 32 31 30 30 27 25 25 28 28 30 25 23 30 30 29 28 28 27 26 26 26 26 25 25 26 23
38 41 41 42 41 42 42 42 42 42 42 42 43 43 44 43 41 37 37 39 40 36 33 26 26 26 31 29 27 32 28 30 28 26 27 25 25 28 25 28 29 28 28 27 28 28 26 27 26 25 24 23 23 22
39 41 41 41 41 41 41 42 41 42 42 42 43 42 41 39 36 35 38 37 38 35 27 27 23 19 31 30 30 28 30 25 29 26 25 26 25 23 27 29 28 28 27 29 27 26 26 25 25 24 23 22 22 22
40 41 41 41 41 41 42 42 42 42 42 42 40 37 33 36 37 37 34 31 30 29 32 27 28 25 29 27 27 26 27 25 23 25 27 25 23 29 29 29 29 29 29 28 25 25 25 25 23 22 21 21 21 20
42 41 41 41 41 42 41 41 41 41 39 37 34 30 34 38 36 31 25 24 26 24 29 29 27 27 30 25 25 27 25 25 22 24 23 22 22 25 28 28 28 28 29 28 27 26 25 24 23 22 22 22 21 18
41 41 41 41 41 41 39 37 37 35 35 35 34 35 35 34 29 23 23 24 24 22 27 27 27 29 30 32 25 27 23 24 22 26 20 15 26 27 27 28 28 29 29 28 26 25 24 24 24 23 23 22 20 18
41 41 41 41 39 39 37 38 40 39 39 36 33 29 26 24 16 15 14 21 21 27 28 28 27 28 30 29 25 24 15 16 25 11 16 24 30 30 29 29 29 29 29 28 26 25 25 24 25 25 22 20 18 16
41 40 39 39 40 39 37 37 38 36 34 27 24 15 16 14 23 27 28 24 27 28 29 28 27 27 26 23 21 14 20 21 10 10 17 26 31 31 30 29 29 27 27 27 24 23 24 25 23 22 21 20 17 14
39 39 39 38 37 37 37 38 38 36 31 27 26 19 20 28 28 30 29 30 30 31 29 28 27 26 22 15 19 19 13 9 13 12 24 29 31 31 30 31 30 25 24 23 22 22 22 21 21 19 20 19 17 14
37 37 37 36 35 36 35 36 35 34 31 28 28 23 24 25 27 30 31 29 33 29 29 28 24 18 17 19 18 13 17 12 14 25 29 31 30 31 31 30 27 24 23 22 22 22 21 19 19 17 17 17 16 14
36 34 37 34 35 36 36 33 31 28 28 27 26 32 24 28 29 30 30 28 31 28 21 25 17 18 22 19 20 23 20 24 26 28 29 29 28 27 27 25 24 22 21 21 21 21 20 19 18 16 14 14 14 14
33 36 36 35 35 35 34 33 28 28 27 28 26 28 28 28 28 28 27 28 30 27 27 24 23 18 10 18 21 24 26 27 28 28 28 28 27 26 25 23 23 22 21 21 21 20 19 18 18 17 16 15 14 13
32 33 36 37 34 32 28 29 30 26 28 28 27 26 23 22 25 29 28 29 31 30 27 25 20 20 26 28 27 26 27 26 26 26 26 26 26 24 22 23 22 21 21 21 20 19 19 20 19 18 15 13 12 13
37 37 38 37 36 30 27 27 30 27 24 25 26 24 24 24 25 26 28 27 28 27 25 23 26 29 27 29 30 29 28 28 26 24 23 25 25 23 21 22 21 22 22 23 22 21 21 17 14 14 15 14 13 14
34 33 36 34 32 32 31 28 26 27 27 24 26 28 26 26 23 21 21 26 24 25 28 27 28 30 29 29 31 29 28 27 25 22 21 23 25 24 23 23 23 22 21 21 19 19 18 16 15 16 15 11 8 12
31 35 31 33 28 28 27 29 27 27 26 27 27 28 26 24 25 25 26 21 21 27 27 30 30 29 28 29 30 29 28 27 27 26 23 23 23 23 22 22 22 19 19 18 19 18 18 18 18 18 19 15 18 20
35 33 30 28 21 19 24 29 25 28 23 23 26 24 24 24 26 26 23 24 27 29 30 30 31 31 29 28 28 28 29 28 26 25 22 20 21 18 20 20 21 19 18 19 20 19 20 21 21 20 19 19 18 17
34 29 23 21 20 14 22 21 24 23 24 24 22 18 21 22 23 23 20 24 27 26 27 27 29 28 28 27 26 24 26 29 27 26 26 25 23 25 25 24 24 23 22 21 21 21 21 21 20 18 17 16 15 14
12 14 16 10 18 14 13 15 19 18 13 19 15 17 20 24 21 18 19 25 26 24 26 27 27 28 27 26 27 26 28 28 27 27 27 27 26 26 25 25 25 24 24 22 21 21 21 20 19 16 15 14 12 11
10 12 13 12 13 14 16 9 9 12 12 10 17 24 23 19 11 13 25 24 28 27 27 27 27 26 27 28 26 26 26 29 29 27 25 27 27 25 23 20 21 21 23 24 22 21 20 20 18 16 15 13 13 11
7 10 23 26 25 22 15 16 21 15 9 9 12 14 7 6 6 21 27 27 24 27 28 28 29 28 27 26 26 26 27 26 24 24 24 24 23 23 23 20 16 19 24 24 23 21 20 19 18 18 17 16 14 11
17 18 11 14 15 19 10 9 8 9 11 22 16 7 7 12 18 26 26 27 27 28 28 27 28 28 27 25 25 24 21 18 21 21 22 22 21 18 17 17 19 25 25 24 24 23 22 21 20 18 16 15 13 10
15 17 17 7 11 16 12 13 14 22 25 19 9 11 19 27 28 27 26 26 27 26 25 25 26 27 26 25 25 25 24 19 16 12 7 7 13 19 19 20 21 25 25 25 25 24 23 21 18 16 13 11 8 5
15 17 12 5 6 10 22 25 25 22 24 27 21 22 25 26 27 27 27 27 25 25 27 26 26 25 23 17 18 20 25 25 16 15 14 13 15 16 22 27 27 27 24 23 21 19 18 14 14 11 8 6 4 1
24 14 10 10 7 19 25 25 26 26 26 26 26 26 26 27 25 24 22 23 27 28 28 26 25 26 24 24 23 22 21 17 21 23 20 20 20 20 20 19 19 21 20 18 16 14 12 11 9 6 4 2 -1 -2
23 20 11 8 19 23 24 23 23 22 22 23 15 25 25 25 22 20 20 22 24 25 25 27 26 25 27 27 27 25 17 16 15 14 19 21 20 18 16 18 18 17 16 14 13 11 10 8 6 4 1 -2 -4 -6
18 22 19 16 16 20 23 18 11 15 18 16 19 23 23 21 17 10 15 20 20 21 21 22 26 27 28 28 28 27 25 24 24 24 23 21 18 16 15 15 15 14 13 11 10 9 7 5 3 0 -2 -3 -7 -9

GFSWCAN_sfc_dewp_117.txt.gz
Dewpoint
33 34 34 36 36 36 38 40 39 37 37 38 40 41 42 42 42 41 40 43 38 33 35 36 35 34 34 34 28 32 33 32 31 27 27 25 22 22 21 19 22 21 22 21 20 18 13 27 27 22 22 25 24 21
33 34 35 36 36 40 41 41 41 41 42 40 40 41 42 42 43 43 39 43 43 36 34 38 37 39 38 38 31 32 30 31 32 29 26 28 27 24 23 20 27 17 21 20 23 20 27 29 27 26 26 25 22 21
34 34 35 36 37 38 40 40 40 42 42 43 43 42 42 43 42 43 40 42 41 37 35 37 34 38 40 41 38 31 30 32 31 33 31 29 25 26 21 21 27 28 28 23 24 25 27 28 28 27 27 25 23 23
34 35 36 37 38 38 38 39 41 41 42 43 43 43 43 43 43 44 40 42 41 38 29 33 39 38 41 41 41 35 31 33 34 32 27 26 27 30 27 27 27 28 27 25 25 27 27 28 27 27 27 26 24 24
36 37 38 39 39 38 38 39 39 39 41 43 43 43 43 42 43 43 42 43 43 36 27 31 37 39 40 39 38 33 32 29 28 26 27 27 30 31 29 29 27 29 27 23 22 26 25 26 27 27 26 26 25 22
37 38 39 39 40 40 40 40 40 39 42 43 43 43 41 45 43 40 34 41 43 41 29 28 31 33 34 34 32 30 31 30 28 28 29 31 32 31 27 24 30 31 30 28 26 28 27 28 27 27 25 25 23 22
38 39 39 40 43 44 44 44 42 42 43 43 43 43 44 43 40 36 32 36 41 39 28 24 25 29 32 32 32 31 31 31 26 26 27 29 29 30 27 24 28 29 29 28 28 27 26 26 26 26 24 23 25 24
39 40 41 41 43 43 44 44 43 43 43 44 45 44 43 42 41 37 36 42 41 35 31 23 24 25 30 28 27 31 28 28 28 25 27 25 25 28 25 29 28 28 28 27 27 27 26 26 25 25 25 25 23 22
40 41 41 42 41 42 43 43 43 43 43 44 44 43 42 39 36 38 40 40 38 34 26 25 21 18 30 29 29 28 29 24 28 26 25 26 25 22 26 28 27 27 26 27 27 26 26 25 25 25 25 23 22 22
41 41 41 41 42 42 42 42 42 43 43 42 41 37 33 37 40 38 35 32 31 29 31 26 28 25 29 27 26 25 27 24 22 25 26 25 22 28 30 29 28 28 29 27 25 25 25 25 25 24 23 23 22 22
41 41 41 41 42 41 41 43 43 42 41 38 32 32 36 38 35 31 27 23 25 24 29 29 27 27 30 24 25 26 25 25 22 24 22 22 21 25 28 29 29 29 28 27 26 26 26 26 25 23 23 23 23 21
41 41 41 40 41 41 42 42 40 38 37 35 33 36 35 33 28 23 22 24 23 23 26 25 26 28 30 30 26 27 24 24 21 25 21 15 20 26 27 27 27 28 28 28 27 25 25 24 23 23 23 22 21 19
40 41 40 39 40 40 40 40 39 39 38 35 32 28 27 24 14 13 13 20 20 26 27 27 26 28 27 27 24 24 17 16 24 12 15 20 27 28 28 29 28 27 27 26 25 25 25 24 24 24 22 21 18 16
40 40 40 39 38 37 37 38 39 38 33 27 24 16 18 15 24 26 26 24 26 26 28 28 25 25 25 23 21 16 20 20 9 9 15 25 28 29 29 29 28 25 24 24 23 23 23 24 25 24 22 19 17 15
39 39 38 37 36 38 39 41 40 36 31 26 25 18 22 28 29 30 31 30 27 27 28 26 25 25 21 16 19 18 14 8 12 9 22 29 30 29 29 29 21 19 19 20 22 23 23 23 22 20 21 20 18 15
38 37 36 37 38 38 38 36 35 34 31 28 27 24 25 23 28 31 31 28 32 27 27 27 23 18 18 19 16 12 14 9 12 25 29 31 31 30 31 29 24 18 18 21 22 23 23 22 20 19 19 18 17 16
36 32 36 37 38 38 38 32 31 30 28 27 26 28 21 24 28 30 31 30 30 28 22 24 16 18 22 18 19 22 17 22 26 28 29 30 30 30 29 26 22 19 21 21 21 22 20 19 19 18 16 17 17 16
32 33 36 38 35 35 34 32 28 28 27 26 24 27 26 26 29 29 29 28 29 27 26 23 23 18 8 17 22 24 26 27 28 28 28 27 27 26 24 23 23 21 20 20 20 19 19 19 19 18 17 17 16 14
32 33 37 37 34 31 28 28 29 25 26 27 26 26 24 24 28 28 28 27 29 29 27 25 22 21 21 27 26 26 26 26 25 25 25 26 26 24 20 22 22 21 21 20 21 20 21 22 20 19 18 18 15 14
37 38 38 37 36 29 26 27 30 26 23 25 25 23 23 24 28 26 25 27 27 27 26 23 24 28 23 29 29 28 28 28 26 24 23 24 24 24 22 22 21 22 22 23 22 21 21 20 20 20 19 18 15 15
34 33 36 34 32 32 30 27 26 27 26 23 25 24 23 25 22 22 23 26 25 27 24 27 28 29 29 28 30 29 28 28 26 21 19 21 24 23 22 23 23 22 21 20 19 20 20 19 19 19 17 16 14 14
31 35 31 32 27 28 27 28 26 26 25 26 26 26 20 14 17 21 25 21 25 27 27 30 29 29 29 29 29 28 26 27 27 25 22 22 21 23 21 19 21 16 18 18 19 18 19 19 19 18 15 12 15 14
34 32 29 26 21 18 22 28 25 26 18 20 25 22 21 19 22 26 19 22 25 27 29 30 31 32 29 29 29 29 29 28 27 25 23 18 18 15 18 18 17 16 17 18 19 19 19 18 18 18 17 17 18 16
31 28 22 20 20 14 21 21 23 23 24 23 22 18 22 23 24 22 19 23 22 24 28 28 29 28 29 28 27 25 28 28 26 25 25 22 18 19 21 22 21 20 20 20 20 19 20 19 19 19 19 18 17 15
13 15 14 8 16 12 11 14 20 18 13 19 17 17 21 25 19 11 17 23 26 25 27 27 27 27 26 26 26 27 28 28 26 25 26 26 25 25 24 24 22 20 21 18 16 19 19 18 18 17 17 16 14 13
4 9 12 11 10 13 14 9 7 10 11 10 14 23 23 18 7 9 23 22 27 27 27 27 26 26 27 28 26 25 26 29 28 26 27 27 26 25 23 18 18 17 20 21 19 18 19 17 16 15 15 15 13 10
7 9 21 25 24 22 14 14 20 13 8 8 11 14 5 4 4 20 26 26 25 26 28 28 28 27 27 26 26 25 25 24 23 24 23 24 23 24 23 20 18 19 21 22 21 19 18 17 17 16 15 15 12 11
15 16 7 11 14 18 9 7 8 9 11 20 14 7 8 10 15 26 25 27 27 28 27 27 27 27 26 25 24 24 23 21 22 19 21 20 17 15 16 15 18 23 23 23 22 21 20 19 18 17 15 14 13 11
14 15 16 6 7 11 11 16 13 22 25 20 10 9 22 26 27 26 26 26 27 26 25 25 25 25 25 24 24 24 24 23 18 11 9 10 11 16 9 14 24 22 21 23 23 22 21 21 20 19 17 15 12 9
13 14 11 1 5 9 11 25 24 21 25 26 25 24 25 25 26 27 27 27 25 25 25 26 26 25 23 23 22 21 24 24 21 15 13 11 11 11 18 25 26 25 25 23 21 20 19 15 14 11 9 6 4 2
19 9 9 7 5 16 24 25 26 26 25 26 26 25 25 24 24 22 22 22 24 27 27 25 25 25 24 23 23 22 21 21 18 12 10 11 14 17 20 24 25 23 19 16 16 14 13 12 10 8 6 4 2 0
23 14 5 11 17 23 24 22 22 19 12 9 12 25 25 24 22 20 19 21 23 25 25 26 25 25 27 26 26 26 21 9 9 11 13 11 10 9 16 20 21 20 16 15 14 13 11 9 8 6 3 2 -1 -3
6 9 15 13 10 18 22 17 6 5 4 3 5 5 9 11 9 7 7 15 19 21 21 22 23 26 27 27 27 26 24 21 16 21 19 16 13 13 13 15 15 14 13 12 11 10 8 7 5 3 1 -2 -4 -6

GFSWCAN_sfc_dewp_120.txt.gz
Dewpoint
35 34 34 34 34 36 36 37 37 37 37 39 40 41 41 41 42 40 38 40 36 33 34 35 36 34 35 32 27 33 34 33 32 28 27 26 23 23 24 22 26 24 23 22 23 20 13 28 27 20 23 25 26 25
33 33 34 34 35 36 36 37 39 39 38 39 39 40 41 41 41 41 34 40 40 35 35 39 37 36 38 37 32 34 29 29 30 28 30 30 28 25 21 18 25 22 21 18 21 19 25 28 28 27 26 24 22 23
34 34 34 34 35 36 36 40 42 41 41 39 39 38 39 40 41 41 35 39 37 35 34 36 35 37 39 39 39 33 33 32 32 33 29 28 28 28 24 21 25 26 26 19 21 23 26 28 27 26 26 24 23 24
34 34 34 35 35 36 36 39 40 39 41 41 39 40 39 40 41 41 38 40 38 37 30 29 38 37 39 40 41 39 33 35 35 36 32 31 30 31 25 25 23 26 26 25 23 26 28 28 27 26 24 24 23 23
33 34 35 37 37 37 37 39 39 40 41 42 42 42 41 41 42 41 42 42 43 37 29 30 35 38 40 41 40 40 38 35 35 31 30 27 30 27 26 26 24 28 26 24 22 26 25 26 27 26 24 23 22 21
34 36 37 37 37 38 37 38 38 39 40 42 42 43 43 43 43 40 32 40 41 42 32 28 36 36 38 39 40 38 35 31 32 30 28 29 32 28 23 25 29 31 29 27 26 28 28 28 27 26 24 23 22 21
37 38 39 39 40 40 39 39 38 39 39 42 42 43 43 43 42 36 33 37 42 41 32 29 30 35 37 37 36 33 32 31 26 26 26 28 28 32 29 26 29 28 28 28 28 27 26 26 26 26 24 23 24 22
39 40 39 42 43 44 41 39 40 39 41 43 43 42 42 42 42 38 37 42 43 37 32 26 27 28 32 30 30 31 28 27 27 25 26 25 26 29 27 29 27 27 27 27 27 27 26 26 25 24 24 23 22 21
40 39 43 43 42 43 43 41 40 41 43 43 42 43 41 39 36 38 42 42 40 37 27 24 21 19 29 28 28 27 27 24 27 25 24 25 24 21 26 28 27 27 26 26 26 26 25 24 23 24 23 22 21 21
41 41 42 43 43 43 42 42 43 43 44 43 41 37 32 38 42 41 38 34 34 32 30 23 25 22 27 24 26 25 26 24 23 25 26 24 22 28 29 29 28 28 27 26 25 25 25 24 24 24 23 22 22 22
41 42 41 42 42 43 43 43 43 43 41 36 31 32 38 42 36 32 25 25 25 24 27 27 27 26 30 24 25 26 24 24 20 23 21 21 22 26 28 28 28 29 27 27 26 26 26 25 25 24 23 23 23 22
42 42 42 43 42 42 42 42 40 37 34 33 37 38 35 33 28 23 21 24 23 23 26 26 26 28 29 28 26 26 23 23 21 24 20 15 20 26 28 28 28 27 27 26 26 26 26 26 25 24 23 23 23 21
39 41 42 42 41 40 41 40 40 39 38 35 32 26 26 23 15 14 13 19 20 26 26 27 25 27 26 27 24 24 16 16 24 13 16 19 26 27 26 26 26 27 26 26 25 25 25 24 24 24 24 23 20 17
40 40 39 39 39 40 41 40 39 37 32 28 25 18 19 15 22 23 25 24 28 26 28 27 25 24 24 23 20 16 20 20 11 10 13 18 26 26 27 27 26 24 23 24 22 22 21 23 23 23 22 21 18 16
39 39 38 38 39 41 40 41 39 35 30 26 25 19 23 27 29 30 31 31 30 26 26 25 25 24 20 16 19 19 15 8 11 7 17 28 27 27 29 27 20 17 16 16 17 18 19 23 22 20 21 20 19 16
37 35 34 39 39 40 39 37 34 33 30 28 27 25 25 25 29 31 30 29 29 26 26 26 22 18 18 19 16 11 12 6 10 23 28 30 29 29 28 25 14 17 18 18 16 19 20 21 21 20 20 19 18 17
35 30 37 39 39 39 38 32 32 30 27 26 22 26 21 23 27 28 29 27 29 27 21 24 17 20 21 17 18 21 17 20 26 28 30 30 30 30 27 22 19 16 19 20 18 20 19 20 19 19 16 17 18 17
29 31 38 39 35 34 33 31 29 28 26 25 21 24 24 25 28 25 28 28 29 27 26 24 23 17 8 16 20 24 25 26 27 28 28 28 28 28 28 26 24 22 20 19 19 19 19 19 19 19 18 18 17 16
34 37 38 38 35 30 27 28 29 24 24 24 26 26 27 28 27 29 27 28 29 28 27 25 21 21 23 26 26 26 26 26 25 25 25 26 26 24 21 21 23 23 21 20 20 20 21 22 21 19 18 18 16 16
36 37 38 38 35 28 25 26 30 26 23 23 24 22 23 25 27 23 25 27 28 27 25 22 23 28 26 28 29 28 28 27 26 24 23 23 25 23 21 21 21 22 22 23 22 21 21 20 20 20 19 18 16 16
33 33 35 33 31 30 27 26 25 26 25 21 23 24 22 24 24 21 23 26 25 26 23 26 28 29 29 29 30 29 28 27 25 23 21 22 24 24 23 22 22 22 21 20 20 20 20 19 19 19 19 18 18 18
32 35 30 30 27 27 26 27 25 25 24 25 25 25 19 14 16 19 25 22 24 27 28 29 29 29 29 28 28 27 26 26 26 22 19 21 22 20 21 19 20 17 18 18 20 19 19 19 19 19 16 15 16 16
32 31 27 25 20 18 22 27 23 25 16 19 23 19 16 14 19 25 17 22 26 26 26 30 31 32 29 29 29 29 28 27 26 24 22 17 16 12 17 17 18 14 14 16 19 19 18 19 18 16 16 16 15 14
29 25 20 18 19 13 19 19 23 23 22 21 19 17 19 23 23 19 18 23 23 23 28 28 29 29 30 29 27 27 28 28 26 25 25 21 17 18 18 18 18 17 17 18 18 18 19 17 17 16 16 15 15 14
14 12 12 7 15 12 11 14 16 17 14 18 15 16 20 24 12 10 17 24 25 26 26 27 27 27 26 26 26 27 27 27 26 25 25 24 24 21 22 23 20 20 19 16 14 14 14 16 17 17 17 16 14 14
2 8 10 10 9 12 14 10 8 11 10 12 15 23 24 11 7 9 20 16 26 26 26 26 26 26 27 28 26 25 25 28 27 24 26 26 25 25 23 16 14 17 17 17 15 15 14 14 16 16 16 15 14 12
2 8 19 25 23 21 12 13 18 12 8 9 11 14 6 3 5 16 25 26 25 26 28 28 28 27 27 26 25 24 24 24 24 23 20 23 23 24 22 18 17 18 19 18 17 16 15 15 15 15 14 14 12 11
13 14 7 10 12 15 8 6 7 7 10 19 13 7 8 9 12 24 25 26 27 27 26 26 27 27 26 24 22 22 22 22 23 19 20 21 18 14 14 13 14 21 21 20 19 19 18 17 16 14 13 12 12 11
12 13 14 5 5 8 13 15 16 22 25 19 8 8 16 25 26 26 25 26 27 26 25 24 22 25 25 24 24 23 23 23 17 12 12 9 9 16 10 12 17 10 17 21 22 21 19 19 18 16 15 13 11 9
12 12 9 -1 4 8 15 24 23 23 25 26 25 25 25 25 25 26 26 26 25 25 25 25 25 24 23 23 22 23 24 23 22 15 10 8 11 9 21 25 25 24 23 22 22 22 22 18 16 12 10 8 7 5
16 7 8 6 4 5 21 25 25 25 25 21 24 22 24 23 23 22 22 23 25 26 26 25 25 25 24 23 23 22 21 24 24 21 8 5 3 17 24 25 24 23 21 19 17 17 15 14 12 9 7 6 5 3
19 10 5 12 18 21 24 22 22 20 9 9 18 22 23 23 22 21 19 21 22 24 26 26 25 25 25 25 26 25 22 15 9 16 16 5 5 7 13 18 18 16 16 15 14 14 12 11 10 8 6 4 2 1
9 5 5 7 7 18 21 16 7 3 1 0 0 2 15 18 11 8 6 6 14 21 21 21 22 23 25 26 26 26 24 20 11 14 11 14 9 12 17 16 16 15 14 12 12 11 9 8 6 5 4 2 -0 -2